<?xml version="1.0" encoding="UTF-8" standalone="no" ?>
<gpx xmlns="http://www.topografix.com/GPX/1/1" xmlns:xsi="http://www.w3.org/2001/XMLSchema-instance" xsi:schemaLocation="http://www.topografix.com/GPX/1/1 http://www.topografix.com/GPX/1/1/gpx.xsd" version="1.1" creator="VisuGPX - https://www.visugpx.com">
  <metadata>
    <name>F26420 Romeyer col des Bachassons Chaumailloux LCV N4</name>
    <desc><![CDATA[File with points/tracks from Locus Map/3.39.4]]></desc>
  </metadata>
  <trk>
    <name><![CDATA[F26420 Romeyer col des Bachassons Chaumailloux LCV N4]]></name>
    <trkseg>
      <trkpt lat="44.80653" lon="5.44641">
        <ele>996.84</ele>
        <time>2019-09-29T07:16:20.000Z</time>
      </trkpt>
      <trkpt lat="44.80659" lon="5.4465">
        <ele>993.82</ele>
        <time>2019-09-29T07:16:52.000Z</time>
      </trkpt>
      <trkpt lat="44.80651" lon="5.44653">
        <ele>996.6</ele>
        <time>2019-09-29T07:17:18.000Z</time>
      </trkpt>
      <trkpt lat="44.80642" lon="5.44658">
        <ele>999.84</ele>
        <time>2019-09-29T07:17:29.000Z</time>
      </trkpt>
      <trkpt lat="44.80632" lon="5.44657">
        <ele>1003.6</ele>
        <time>2019-09-29T07:17:42.000Z</time>
      </trkpt>
      <trkpt lat="44.80623" lon="5.44655">
        <ele>1007.28</ele>
        <time>2019-09-29T07:17:52.000Z</time>
      </trkpt>
      <trkpt lat="44.80615" lon="5.44648">
        <ele>1010.37</ele>
        <time>2019-09-29T07:18:04.000Z</time>
      </trkpt>
      <trkpt lat="44.80609" lon="5.44638">
        <ele>1011.99</ele>
        <time>2019-09-29T07:18:17.000Z</time>
      </trkpt>
      <trkpt lat="44.80603" lon="5.44627">
        <ele>1013.86</ele>
        <time>2019-09-29T07:18:29.000Z</time>
      </trkpt>
      <trkpt lat="44.80597" lon="5.44615">
        <ele>1015</ele>
        <time>2019-09-29T07:18:39.000Z</time>
      </trkpt>
      <trkpt lat="44.80595" lon="5.446">
        <ele>1014.61</ele>
        <time>2019-09-29T07:18:49.000Z</time>
      </trkpt>
      <trkpt lat="44.80594" lon="5.44586">
        <ele>1013.68</ele>
        <time>2019-09-29T07:18:59.000Z</time>
      </trkpt>
      <trkpt lat="44.80592" lon="5.44573">
        <ele>1013.08</ele>
        <time>2019-09-29T07:19:09.000Z</time>
      </trkpt>
      <trkpt lat="44.80589" lon="5.44561">
        <ele>1013.09</ele>
        <time>2019-09-29T07:19:20.000Z</time>
      </trkpt>
      <trkpt lat="44.80589" lon="5.44546">
        <ele>1012.01</ele>
        <time>2019-09-29T07:19:30.000Z</time>
      </trkpt>
      <trkpt lat="44.80583" lon="5.44532">
        <ele>1014.08</ele>
        <time>2019-09-29T07:19:40.000Z</time>
      </trkpt>
      <trkpt lat="44.8057" lon="5.44525">
        <ele>1020.42</ele>
        <time>2019-09-29T07:19:50.000Z</time>
      </trkpt>
      <trkpt lat="44.80565" lon="5.44537">
        <ele>1024.8</ele>
        <time>2019-09-29T07:20:00.000Z</time>
      </trkpt>
      <trkpt lat="44.80567" lon="5.44551">
        <ele>1025.11</ele>
        <time>2019-09-29T07:20:10.000Z</time>
      </trkpt>
      <trkpt lat="44.80569" lon="5.44563">
        <ele>1024.68</ele>
        <time>2019-09-29T07:20:21.000Z</time>
      </trkpt>
      <trkpt lat="44.80569" lon="5.44578">
        <ele>1026.39</ele>
        <time>2019-09-29T07:20:31.000Z</time>
      </trkpt>
      <trkpt lat="44.80573" lon="5.44593">
        <ele>1025.49</ele>
        <time>2019-09-29T07:20:41.000Z</time>
      </trkpt>
      <trkpt lat="44.80576" lon="5.44606">
        <ele>1025.31</ele>
        <time>2019-09-29T07:20:51.000Z</time>
      </trkpt>
      <trkpt lat="44.80576" lon="5.4462">
        <ele>1027.24</ele>
        <time>2019-09-29T07:21:01.000Z</time>
      </trkpt>
      <trkpt lat="44.80579" lon="5.44633">
        <ele>1027.35</ele>
        <time>2019-09-29T07:21:11.000Z</time>
      </trkpt>
      <trkpt lat="44.80586" lon="5.44648">
        <ele>1025.92</ele>
        <time>2019-09-29T07:21:21.000Z</time>
      </trkpt>
      <trkpt lat="44.80584" lon="5.44665">
        <ele>1030.01</ele>
        <time>2019-09-29T07:21:31.000Z</time>
      </trkpt>
      <trkpt lat="44.80587" lon="5.44679">
        <ele>1031.41</ele>
        <time>2019-09-29T07:21:42.000Z</time>
      </trkpt>
      <trkpt lat="44.80592" lon="5.44693">
        <ele>1030.27</ele>
        <time>2019-09-29T07:21:52.000Z</time>
      </trkpt>
      <trkpt lat="44.80597" lon="5.44705">
        <ele>1029.91</ele>
        <time>2019-09-29T07:22:04.000Z</time>
      </trkpt>
      <trkpt lat="44.80603" lon="5.44715">
        <ele>1028.97</ele>
        <time>2019-09-29T07:22:14.000Z</time>
      </trkpt>
      <trkpt lat="44.80609" lon="5.44727">
        <ele>1029.33</ele>
        <time>2019-09-29T07:22:24.000Z</time>
      </trkpt>
      <trkpt lat="44.80614" lon="5.44739">
        <ele>1030.84</ele>
        <time>2019-09-29T07:22:37.000Z</time>
      </trkpt>
      <trkpt lat="44.80618" lon="5.44751">
        <ele>1033.62</ele>
        <time>2019-09-29T07:22:50.000Z</time>
      </trkpt>
      <trkpt lat="44.80628" lon="5.44759">
        <ele>1032.51</ele>
        <time>2019-09-29T07:23:00.000Z</time>
      </trkpt>
      <trkpt lat="44.80633" lon="5.44769">
        <ele>1035.59</ele>
        <time>2019-09-29T07:23:10.000Z</time>
      </trkpt>
      <trkpt lat="44.8064" lon="5.44782">
        <ele>1039.59</ele>
        <time>2019-09-29T07:23:20.000Z</time>
      </trkpt>
      <trkpt lat="44.80646" lon="5.44791">
        <ele>1041.23</ele>
        <time>2019-09-29T07:23:31.000Z</time>
      </trkpt>
      <trkpt lat="44.80651" lon="5.44802">
        <ele>1044.83</ele>
        <time>2019-09-29T07:23:43.000Z</time>
      </trkpt>
      <trkpt lat="44.80656" lon="5.44813">
        <ele>1047.86</ele>
        <time>2019-09-29T07:23:56.000Z</time>
      </trkpt>
      <trkpt lat="44.80663" lon="5.44822">
        <ele>1047.94</ele>
        <time>2019-09-29T07:24:06.000Z</time>
      </trkpt>
      <trkpt lat="44.80672" lon="5.44827">
        <ele>1045.14</ele>
        <time>2019-09-29T07:24:16.000Z</time>
      </trkpt>
      <trkpt lat="44.80681" lon="5.44831">
        <ele>1041.92</ele>
        <time>2019-09-29T07:24:26.000Z</time>
      </trkpt>
      <trkpt lat="44.80687" lon="5.44845">
        <ele>1044.22</ele>
        <time>2019-09-29T07:24:36.000Z</time>
      </trkpt>
      <trkpt lat="44.80692" lon="5.44859">
        <ele>1046.16</ele>
        <time>2019-09-29T07:24:46.000Z</time>
      </trkpt>
      <trkpt lat="44.80695" lon="5.44871">
        <ele>1048.5</ele>
        <time>2019-09-29T07:24:57.000Z</time>
      </trkpt>
      <trkpt lat="44.80698" lon="5.44884">
        <ele>1050.3</ele>
        <time>2019-09-29T07:25:07.000Z</time>
      </trkpt>
      <trkpt lat="44.80699" lon="5.44896">
        <ele>1053.4</ele>
        <time>2019-09-29T07:25:19.000Z</time>
      </trkpt>
      <trkpt lat="44.80696" lon="5.4491">
        <ele>1059.61</ele>
        <time>2019-09-29T07:25:29.000Z</time>
      </trkpt>
      <trkpt lat="44.80692" lon="5.44924">
        <ele>1066.3</ele>
        <time>2019-09-29T07:25:39.000Z</time>
      </trkpt>
      <trkpt lat="44.80689" lon="5.44936">
        <ele>1070.87</ele>
        <time>2019-09-29T07:25:49.000Z</time>
      </trkpt>
      <trkpt lat="44.80688" lon="5.4495">
        <ele>1073.09</ele>
        <time>2019-09-29T07:25:59.000Z</time>
      </trkpt>
      <trkpt lat="44.80691" lon="5.44963">
        <ele>1072.79</ele>
        <time>2019-09-29T07:26:10.000Z</time>
      </trkpt>
      <trkpt lat="44.80699" lon="5.44971">
        <ele>1070</ele>
        <time>2019-09-29T07:26:20.000Z</time>
      </trkpt>
      <trkpt lat="44.80709" lon="5.44977">
        <ele>1066.61</ele>
        <time>2019-09-29T07:26:30.000Z</time>
      </trkpt>
      <trkpt lat="44.80717" lon="5.44985">
        <ele>1066.12</ele>
        <time>2019-09-29T07:26:40.000Z</time>
      </trkpt>
      <trkpt lat="44.80725" lon="5.44992">
        <ele>1066.37</ele>
        <time>2019-09-29T07:26:50.000Z</time>
      </trkpt>
      <trkpt lat="44.80737" lon="5.45001">
        <ele>1066.08</ele>
        <time>2019-09-29T07:27:00.000Z</time>
      </trkpt>
      <trkpt lat="44.80747" lon="5.45005">
        <ele>1064.11</ele>
        <time>2019-09-29T07:27:10.000Z</time>
      </trkpt>
      <trkpt lat="44.80758" lon="5.45008">
        <ele>1062.06</ele>
        <time>2019-09-29T07:27:20.000Z</time>
      </trkpt>
      <trkpt lat="44.80768" lon="5.45012">
        <ele>1061.33</ele>
        <time>2019-09-29T07:27:30.000Z</time>
      </trkpt>
      <trkpt lat="44.80778" lon="5.4502">
        <ele>1063.31</ele>
        <time>2019-09-29T07:27:40.000Z</time>
      </trkpt>
      <trkpt lat="44.80785" lon="5.45031">
        <ele>1067.87</ele>
        <time>2019-09-29T07:27:50.000Z</time>
      </trkpt>
      <trkpt lat="44.80783" lon="5.45044">
        <ele>1075.06</ele>
        <time>2019-09-29T07:28:16.000Z</time>
      </trkpt>
      <trkpt lat="44.80777" lon="5.45054">
        <ele>1081</ele>
        <time>2019-09-29T07:28:32.000Z</time>
      </trkpt>
      <trkpt lat="44.80777" lon="5.45068">
        <ele>1087.58</ele>
        <time>2019-09-29T07:29:01.000Z</time>
      </trkpt>
      <trkpt lat="44.80784" lon="5.45077">
        <ele>1091.41</ele>
        <time>2019-09-29T07:29:17.000Z</time>
      </trkpt>
      <trkpt lat="44.80791" lon="5.45085">
        <ele>1094.07</ele>
        <time>2019-09-29T07:29:28.000Z</time>
      </trkpt>
      <trkpt lat="44.80801" lon="5.4509">
        <ele>1095.2</ele>
        <time>2019-09-29T07:29:44.000Z</time>
      </trkpt>
      <trkpt lat="44.8081" lon="5.45092">
        <ele>1094.62</ele>
        <time>2019-09-29T07:29:57.000Z</time>
      </trkpt>
      <trkpt lat="44.80815" lon="5.45103">
        <ele>1096.44</ele>
        <time>2019-09-29T07:30:09.000Z</time>
      </trkpt>
      <trkpt lat="44.80813" lon="5.45116">
        <ele>1099.54</ele>
        <time>2019-09-29T07:30:21.000Z</time>
      </trkpt>
      <trkpt lat="44.80813" lon="5.45129">
        <ele>1101.75</ele>
        <time>2019-09-29T07:30:31.000Z</time>
      </trkpt>
      <trkpt lat="44.80813" lon="5.45141">
        <ele>1102.89</ele>
        <time>2019-09-29T07:30:43.000Z</time>
      </trkpt>
      <trkpt lat="44.80815" lon="5.45154">
        <ele>1102.76</ele>
        <time>2019-09-29T07:30:54.000Z</time>
      </trkpt>
      <trkpt lat="44.80817" lon="5.4517">
        <ele>1102.65</ele>
        <time>2019-09-29T07:31:04.000Z</time>
      </trkpt>
      <trkpt lat="44.80813" lon="5.45184">
        <ele>1105.02</ele>
        <time>2019-09-29T07:31:14.000Z</time>
      </trkpt>
      <trkpt lat="44.8081" lon="5.45199">
        <ele>1105.87</ele>
        <time>2019-09-29T07:31:24.000Z</time>
      </trkpt>
      <trkpt lat="44.80807" lon="5.45214">
        <ele>1106.86</ele>
        <time>2019-09-29T07:31:34.000Z</time>
      </trkpt>
      <trkpt lat="44.80805" lon="5.45227">
        <ele>1106.59</ele>
        <time>2019-09-29T07:31:46.000Z</time>
      </trkpt>
      <trkpt lat="44.80798" lon="5.45237">
        <ele>1108.92</ele>
        <time>2019-09-29T07:31:58.000Z</time>
      </trkpt>
      <trkpt lat="44.80793" lon="5.45248">
        <ele>1110.23</ele>
        <time>2019-09-29T07:32:09.000Z</time>
      </trkpt>
      <trkpt lat="44.80787" lon="5.45257">
        <ele>1112.65</ele>
        <time>2019-09-29T07:32:25.000Z</time>
      </trkpt>
      <trkpt lat="44.80782" lon="5.45268">
        <ele>1113.83</ele>
        <time>2019-09-29T07:32:38.000Z</time>
      </trkpt>
      <trkpt lat="44.80782" lon="5.45281">
        <ele>1111.1</ele>
        <time>2019-09-29T07:32:48.000Z</time>
      </trkpt>
      <trkpt lat="44.80777" lon="5.45294">
        <ele>1111.58</ele>
        <time>2019-09-29T07:32:58.000Z</time>
      </trkpt>
      <trkpt lat="44.80769" lon="5.453">
        <ele>1114.68</ele>
        <time>2019-09-29T07:33:10.000Z</time>
      </trkpt>
      <trkpt lat="44.80759" lon="5.45302">
        <ele>1120.05</ele>
        <time>2019-09-29T07:33:21.000Z</time>
      </trkpt>
      <trkpt lat="44.80752" lon="5.45309">
        <ele>1123.78</ele>
        <time>2019-09-29T07:33:31.000Z</time>
      </trkpt>
      <trkpt lat="44.80748" lon="5.45327">
        <ele>1122.6</ele>
        <time>2019-09-29T07:33:41.000Z</time>
      </trkpt>
      <trkpt lat="44.80743" lon="5.45339">
        <ele>1123.78</ele>
        <time>2019-09-29T07:33:51.000Z</time>
      </trkpt>
      <trkpt lat="44.80737" lon="5.45349">
        <ele>1126.3</ele>
        <time>2019-09-29T07:34:01.000Z</time>
      </trkpt>
      <trkpt lat="44.80734" lon="5.45364">
        <ele>1125.53</ele>
        <time>2019-09-29T07:34:11.000Z</time>
      </trkpt>
      <trkpt lat="44.80733" lon="5.45377">
        <ele>1123.99</ele>
        <time>2019-09-29T07:34:21.000Z</time>
      </trkpt>
      <trkpt lat="44.8073" lon="5.4539">
        <ele>1123</ele>
        <time>2019-09-29T07:34:33.000Z</time>
      </trkpt>
      <trkpt lat="44.80733" lon="5.45377">
        <ele>1124.01</ele>
        <time>2019-09-29T07:34:53.000Z</time>
      </trkpt>
      <trkpt lat="44.80734" lon="5.45364">
        <ele>1125.89</ele>
        <time>2019-09-29T07:35:05.000Z</time>
      </trkpt>
      <trkpt lat="44.80732" lon="5.45351">
        <ele>1129.86</ele>
        <time>2019-09-29T07:35:15.000Z</time>
      </trkpt>
      <trkpt lat="44.80734" lon="5.45339">
        <ele>1130.37</ele>
        <time>2019-09-29T07:35:25.000Z</time>
      </trkpt>
      <trkpt lat="44.80737" lon="5.45325">
        <ele>1130.85</ele>
        <time>2019-09-29T07:35:35.000Z</time>
      </trkpt>
      <trkpt lat="44.80742" lon="5.45313">
        <ele>1129.55</ele>
        <time>2019-09-29T07:35:45.000Z</time>
      </trkpt>
      <trkpt lat="44.80747" lon="5.453">
        <ele>1128.63</ele>
        <time>2019-09-29T07:35:55.000Z</time>
      </trkpt>
      <trkpt lat="44.8075" lon="5.45286">
        <ele>1129.64</ele>
        <time>2019-09-29T07:36:07.000Z</time>
      </trkpt>
      <trkpt lat="44.80752" lon="5.45273">
        <ele>1130.53</ele>
        <time>2019-09-29T07:36:17.000Z</time>
      </trkpt>
      <trkpt lat="44.80758" lon="5.45258">
        <ele>1129.38</ele>
        <time>2019-09-29T07:36:27.000Z</time>
      </trkpt>
      <trkpt lat="44.80762" lon="5.45245">
        <ele>1128.43</ele>
        <time>2019-09-29T07:36:37.000Z</time>
      </trkpt>
      <trkpt lat="44.80767" lon="5.45234">
        <ele>1126.94</ele>
        <time>2019-09-29T07:36:49.000Z</time>
      </trkpt>
      <trkpt lat="44.80772" lon="5.45224">
        <ele>1125.43</ele>
        <time>2019-09-29T07:36:59.000Z</time>
      </trkpt>
      <trkpt lat="44.80768" lon="5.45211">
        <ele>1129.22</ele>
        <time>2019-09-29T07:37:10.000Z</time>
      </trkpt>
      <trkpt lat="44.80765" lon="5.45199">
        <ele>1132.12</ele>
        <time>2019-09-29T07:37:24.000Z</time>
      </trkpt>
      <trkpt lat="44.80759" lon="5.45189">
        <ele>1135.52</ele>
        <time>2019-09-29T07:37:42.000Z</time>
      </trkpt>
      <trkpt lat="44.80753" lon="5.45179">
        <ele>1138.03</ele>
        <time>2019-09-29T07:38:00.000Z</time>
      </trkpt>
      <trkpt lat="44.80746" lon="5.45172">
        <ele>1141</ele>
        <time>2019-09-29T07:38:12.000Z</time>
      </trkpt>
      <trkpt lat="44.80737" lon="5.45166">
        <ele>1144.48</ele>
        <time>2019-09-29T07:38:22.000Z</time>
      </trkpt>
      <trkpt lat="44.80727" lon="5.4516">
        <ele>1148.21</ele>
        <time>2019-09-29T07:38:32.000Z</time>
      </trkpt>
      <trkpt lat="44.80718" lon="5.45155">
        <ele>1151.28</ele>
        <time>2019-09-29T07:38:44.000Z</time>
      </trkpt>
      <trkpt lat="44.80708" lon="5.45155">
        <ele>1155.79</ele>
        <time>2019-09-29T07:38:56.000Z</time>
      </trkpt>
      <trkpt lat="44.80699" lon="5.4516">
        <ele>1161.65</ele>
        <time>2019-09-29T07:39:06.000Z</time>
      </trkpt>
      <trkpt lat="44.8069" lon="5.45155">
        <ele>1164.31</ele>
        <time>2019-09-29T07:39:24.000Z</time>
      </trkpt>
      <trkpt lat="44.80686" lon="5.45142">
        <ele>1161.56</ele>
        <time>2019-09-29T07:39:39.000Z</time>
      </trkpt>
      <trkpt lat="44.80682" lon="5.45129">
        <ele>1158.1</ele>
        <time>2019-09-29T07:39:49.000Z</time>
      </trkpt>
      <trkpt lat="44.80677" lon="5.45114">
        <ele>1153.7</ele>
        <time>2019-09-29T07:39:59.000Z</time>
      </trkpt>
      <trkpt lat="44.80672" lon="5.45103">
        <ele>1150.58</ele>
        <time>2019-09-29T07:40:09.000Z</time>
      </trkpt>
      <trkpt lat="44.80665" lon="5.45095">
        <ele>1149.67</ele>
        <time>2019-09-29T07:40:20.000Z</time>
      </trkpt>
      <trkpt lat="44.80655" lon="5.45094">
        <ele>1151.66</ele>
        <time>2019-09-29T07:40:33.000Z</time>
      </trkpt>
      <trkpt lat="44.80646" lon="5.45092">
        <ele>1152.44</ele>
        <time>2019-09-29T07:40:45.000Z</time>
      </trkpt>
      <trkpt lat="44.80637" lon="5.45089">
        <ele>1152.5</ele>
        <time>2019-09-29T07:40:57.000Z</time>
      </trkpt>
      <trkpt lat="44.80627" lon="5.45089">
        <ele>1153.19</ele>
        <time>2019-09-29T07:41:11.000Z</time>
      </trkpt>
      <trkpt lat="44.80617" lon="5.45089">
        <ele>1154.36</ele>
        <time>2019-09-29T07:41:21.000Z</time>
      </trkpt>
      <trkpt lat="44.80606" lon="5.45087">
        <ele>1155.2</ele>
        <time>2019-09-29T07:41:31.000Z</time>
      </trkpt>
      <trkpt lat="44.80597" lon="5.45087">
        <ele>1157.29</ele>
        <time>2019-09-29T07:41:42.000Z</time>
      </trkpt>
      <trkpt lat="44.80588" lon="5.45094">
        <ele>1162.86</ele>
        <time>2019-09-29T07:41:52.000Z</time>
      </trkpt>
      <trkpt lat="44.80578" lon="5.45092">
        <ele>1166.11</ele>
        <time>2019-09-29T07:42:19.000Z</time>
      </trkpt>
      <trkpt lat="44.80573" lon="5.45082">
        <ele>1165.65</ele>
        <time>2019-09-29T07:42:30.000Z</time>
      </trkpt>
      <trkpt lat="44.80569" lon="5.45063">
        <ele>1165.88</ele>
        <time>2019-09-29T07:42:40.000Z</time>
      </trkpt>
      <trkpt lat="44.80571" lon="5.45049">
        <ele>1165.02</ele>
        <time>2019-09-29T07:42:50.000Z</time>
      </trkpt>
      <trkpt lat="44.80574" lon="5.45033">
        <ele>1164.64</ele>
        <time>2019-09-29T07:43:00.000Z</time>
      </trkpt>
      <trkpt lat="44.80575" lon="5.4502">
        <ele>1164.94</ele>
        <time>2019-09-29T07:43:12.000Z</time>
      </trkpt>
      <trkpt lat="44.80575" lon="5.45006">
        <ele>1164.58</ele>
        <time>2019-09-29T07:43:22.000Z</time>
      </trkpt>
      <trkpt lat="44.80569" lon="5.44996">
        <ele>1167.81</ele>
        <time>2019-09-29T07:43:32.000Z</time>
      </trkpt>
      <trkpt lat="44.80562" lon="5.44987">
        <ele>1170.89</ele>
        <time>2019-09-29T07:43:48.000Z</time>
      </trkpt>
      <trkpt lat="44.80556" lon="5.44975">
        <ele>1173.11</ele>
        <time>2019-09-29T07:43:58.000Z</time>
      </trkpt>
      <trkpt lat="44.80552" lon="5.44963">
        <ele>1173</ele>
        <time>2019-09-29T07:44:08.000Z</time>
      </trkpt>
      <trkpt lat="44.80547" lon="5.4495">
        <ele>1172.83</ele>
        <time>2019-09-29T07:44:19.000Z</time>
      </trkpt>
      <trkpt lat="44.80542" lon="5.44939">
        <ele>1173.49</ele>
        <time>2019-09-29T07:44:30.000Z</time>
      </trkpt>
      <trkpt lat="44.80539" lon="5.44927">
        <ele>1171.44</ele>
        <time>2019-09-29T07:44:43.000Z</time>
      </trkpt>
      <trkpt lat="44.80533" lon="5.44915">
        <ele>1171.84</ele>
        <time>2019-09-29T07:44:53.000Z</time>
      </trkpt>
      <trkpt lat="44.80527" lon="5.44905">
        <ele>1172.9</ele>
        <time>2019-09-29T07:45:03.000Z</time>
      </trkpt>
      <trkpt lat="44.80524" lon="5.4489">
        <ele>1170.76</ele>
        <time>2019-09-29T07:45:13.000Z</time>
      </trkpt>
      <trkpt lat="44.80519" lon="5.44879">
        <ele>1169.74</ele>
        <time>2019-09-29T07:45:28.000Z</time>
      </trkpt>
      <trkpt lat="44.80512" lon="5.44868">
        <ele>1170.06</ele>
        <time>2019-09-29T07:45:38.000Z</time>
      </trkpt>
      <trkpt lat="44.80504" lon="5.44862">
        <ele>1172.6</ele>
        <time>2019-09-29T07:45:54.000Z</time>
      </trkpt>
      <trkpt lat="44.80496" lon="5.44855">
        <ele>1174.82</ele>
        <time>2019-09-29T07:46:04.000Z</time>
      </trkpt>
      <trkpt lat="44.80488" lon="5.44848">
        <ele>1176.1</ele>
        <time>2019-09-29T07:46:15.000Z</time>
      </trkpt>
      <trkpt lat="44.80479" lon="5.44845">
        <ele>1180.24</ele>
        <time>2019-09-29T07:46:27.000Z</time>
      </trkpt>
      <trkpt lat="44.8047" lon="5.44842">
        <ele>1183.75</ele>
        <time>2019-09-29T07:46:37.000Z</time>
      </trkpt>
      <trkpt lat="44.80459" lon="5.44834">
        <ele>1186.28</ele>
        <time>2019-09-29T07:46:47.000Z</time>
      </trkpt>
      <trkpt lat="44.80456" lon="5.44821">
        <ele>1182.64</ele>
        <time>2019-09-29T07:47:05.000Z</time>
      </trkpt>
      <trkpt lat="44.80444" lon="5.44813">
        <ele>1185.62</ele>
        <time>2019-09-29T07:47:15.000Z</time>
      </trkpt>
      <trkpt lat="44.80441" lon="5.44797">
        <ele>1182.37</ele>
        <time>2019-09-29T07:47:25.000Z</time>
      </trkpt>
      <trkpt lat="44.80434" lon="5.44785">
        <ele>1182.24</ele>
        <time>2019-09-29T07:47:35.000Z</time>
      </trkpt>
      <trkpt lat="44.8043" lon="5.44771">
        <ele>1181.34</ele>
        <time>2019-09-29T07:47:45.000Z</time>
      </trkpt>
      <trkpt lat="44.80424" lon="5.44761">
        <ele>1182.52</ele>
        <time>2019-09-29T07:47:57.000Z</time>
      </trkpt>
      <trkpt lat="44.80416" lon="5.44755">
        <ele>1187.1</ele>
        <time>2019-09-29T07:48:07.000Z</time>
      </trkpt>
      <trkpt lat="44.80406" lon="5.44749">
        <ele>1192.6</ele>
        <time>2019-09-29T07:48:17.000Z</time>
      </trkpt>
      <trkpt lat="44.80398" lon="5.44742">
        <ele>1196.76</ele>
        <time>2019-09-29T07:48:27.000Z</time>
      </trkpt>
      <trkpt lat="44.80396" lon="5.44727">
        <ele>1195.48</ele>
        <time>2019-09-29T07:48:41.000Z</time>
      </trkpt>
      <trkpt lat="44.804" lon="5.44711">
        <ele>1189.93</ele>
        <time>2019-09-29T07:48:51.000Z</time>
      </trkpt>
      <trkpt lat="44.80405" lon="5.44698">
        <ele>1183.82</ele>
        <time>2019-09-29T07:49:01.000Z</time>
      </trkpt>
      <trkpt lat="44.80407" lon="5.44685">
        <ele>1180.46</ele>
        <time>2019-09-29T07:49:11.000Z</time>
      </trkpt>
      <trkpt lat="44.80402" lon="5.44671">
        <ele>1180.8</ele>
        <time>2019-09-29T07:49:21.000Z</time>
      </trkpt>
      <trkpt lat="44.80401" lon="5.44657">
        <ele>1177.93</ele>
        <time>2019-09-29T07:49:31.000Z</time>
      </trkpt>
      <trkpt lat="44.80394" lon="5.44648">
        <ele>1180.24</ele>
        <time>2019-09-29T07:49:45.000Z</time>
      </trkpt>
      <trkpt lat="44.80384" lon="5.44646">
        <ele>1185.98</ele>
        <time>2019-09-29T07:49:55.000Z</time>
      </trkpt>
      <trkpt lat="44.80374" lon="5.44641">
        <ele>1190.26</ele>
        <time>2019-09-29T07:50:05.000Z</time>
      </trkpt>
      <trkpt lat="44.80368" lon="5.44632">
        <ele>1189.89</ele>
        <time>2019-09-29T07:50:19.000Z</time>
      </trkpt>
      <trkpt lat="44.8036" lon="5.44625">
        <ele>1190.28</ele>
        <time>2019-09-29T07:50:31.000Z</time>
      </trkpt>
      <trkpt lat="44.80348" lon="5.44618">
        <ele>1192.8</ele>
        <time>2019-09-29T07:50:41.000Z</time>
      </trkpt>
      <trkpt lat="44.8034" lon="5.4461">
        <ele>1193.22</ele>
        <time>2019-09-29T07:50:52.000Z</time>
      </trkpt>
      <trkpt lat="44.80332" lon="5.44603">
        <ele>1193.96</ele>
        <time>2019-09-29T07:51:03.000Z</time>
      </trkpt>
      <trkpt lat="44.80324" lon="5.44598">
        <ele>1196.82</ele>
        <time>2019-09-29T07:51:13.000Z</time>
      </trkpt>
      <trkpt lat="44.80319" lon="5.44588">
        <ele>1195.86</ele>
        <time>2019-09-29T07:51:24.000Z</time>
      </trkpt>
      <trkpt lat="44.80315" lon="5.44574">
        <ele>1194.56</ele>
        <time>2019-09-29T07:51:37.000Z</time>
      </trkpt>
      <trkpt lat="44.80315" lon="5.44557">
        <ele>1190.75</ele>
        <time>2019-09-29T07:51:47.000Z</time>
      </trkpt>
      <trkpt lat="44.80314" lon="5.44544">
        <ele>1189.41</ele>
        <time>2019-09-29T07:51:58.000Z</time>
      </trkpt>
      <trkpt lat="44.80309" lon="5.4453">
        <ele>1190.59</ele>
        <time>2019-09-29T07:52:09.000Z</time>
      </trkpt>
      <trkpt lat="44.80302" lon="5.44516">
        <ele>1193.14</ele>
        <time>2019-09-29T07:52:19.000Z</time>
      </trkpt>
      <trkpt lat="44.80295" lon="5.44507">
        <ele>1195.69</ele>
        <time>2019-09-29T07:52:32.000Z</time>
      </trkpt>
      <trkpt lat="44.80287" lon="5.44503">
        <ele>1199.58</ele>
        <time>2019-09-29T07:52:48.000Z</time>
      </trkpt>
      <trkpt lat="44.80277" lon="5.44495">
        <ele>1202.66</ele>
        <time>2019-09-29T07:52:59.000Z</time>
      </trkpt>
      <trkpt lat="44.80268" lon="5.44486">
        <ele>1204.03</ele>
        <time>2019-09-29T07:53:09.000Z</time>
      </trkpt>
      <trkpt lat="44.80263" lon="5.44476">
        <ele>1201.52</ele>
        <time>2019-09-29T07:53:19.000Z</time>
      </trkpt>
      <trkpt lat="44.80252" lon="5.44471">
        <ele>1204.29</ele>
        <time>2019-09-29T07:53:29.000Z</time>
      </trkpt>
      <trkpt lat="44.80242" lon="5.44468">
        <ele>1207.38</ele>
        <time>2019-09-29T07:53:39.000Z</time>
      </trkpt>
      <trkpt lat="44.80235" lon="5.44461">
        <ele>1206.69</ele>
        <time>2019-09-29T07:53:53.000Z</time>
      </trkpt>
      <trkpt lat="44.80227" lon="5.4445">
        <ele>1204.59</ele>
        <time>2019-09-29T07:54:03.000Z</time>
      </trkpt>
      <trkpt lat="44.80221" lon="5.44442">
        <ele>1203.26</ele>
        <time>2019-09-29T07:54:14.000Z</time>
      </trkpt>
      <trkpt lat="44.80215" lon="5.44431">
        <ele>1201.13</ele>
        <time>2019-09-29T07:54:24.000Z</time>
      </trkpt>
      <trkpt lat="44.80206" lon="5.44426">
        <ele>1204</ele>
        <time>2019-09-29T07:54:34.000Z</time>
      </trkpt>
      <trkpt lat="44.80199" lon="5.44417">
        <ele>1204.17</ele>
        <time>2019-09-29T07:54:51.000Z</time>
      </trkpt>
      <trkpt lat="44.80189" lon="5.44409">
        <ele>1207.27</ele>
        <time>2019-09-29T07:55:01.000Z</time>
      </trkpt>
      <trkpt lat="44.80183" lon="5.44399">
        <ele>1207.91</ele>
        <time>2019-09-29T07:55:11.000Z</time>
      </trkpt>
      <trkpt lat="44.80175" lon="5.44392">
        <ele>1210.21</ele>
        <time>2019-09-29T07:55:25.000Z</time>
      </trkpt>
      <trkpt lat="44.80165" lon="5.44382">
        <ele>1212.38</ele>
        <time>2019-09-29T07:55:38.000Z</time>
      </trkpt>
      <trkpt lat="44.80159" lon="5.44364">
        <ele>1210.39</ele>
        <time>2019-09-29T07:55:48.000Z</time>
      </trkpt>
      <trkpt lat="44.80158" lon="5.4435">
        <ele>1207.27</ele>
        <time>2019-09-29T07:55:59.000Z</time>
      </trkpt>
      <trkpt lat="44.80155" lon="5.44336">
        <ele>1204.51</ele>
        <time>2019-09-29T07:56:09.000Z</time>
      </trkpt>
      <trkpt lat="44.80149" lon="5.44326">
        <ele>1204.79</ele>
        <time>2019-09-29T07:56:19.000Z</time>
      </trkpt>
      <trkpt lat="44.80139" lon="5.44323">
        <ele>1208.13</ele>
        <time>2019-09-29T07:56:31.000Z</time>
      </trkpt>
      <trkpt lat="44.80132" lon="5.44314">
        <ele>1209.38</ele>
        <time>2019-09-29T07:56:41.000Z</time>
      </trkpt>
      <trkpt lat="44.80122" lon="5.44313">
        <ele>1214.01</ele>
        <time>2019-09-29T07:56:56.000Z</time>
      </trkpt>
      <trkpt lat="44.80115" lon="5.44305">
        <ele>1215.58</ele>
        <time>2019-09-29T07:57:08.000Z</time>
      </trkpt>
      <trkpt lat="44.80112" lon="5.44291">
        <ele>1214.91</ele>
        <time>2019-09-29T07:57:20.000Z</time>
      </trkpt>
      <trkpt lat="44.80108" lon="5.44279">
        <ele>1214.81</ele>
        <time>2019-09-29T07:57:31.000Z</time>
      </trkpt>
      <trkpt lat="44.801" lon="5.44264">
        <ele>1217.27</ele>
        <time>2019-09-29T07:57:41.000Z</time>
      </trkpt>
      <trkpt lat="44.80095" lon="5.44253">
        <ele>1217.96</ele>
        <time>2019-09-29T07:57:51.000Z</time>
      </trkpt>
      <trkpt lat="44.8009" lon="5.4424">
        <ele>1218.09</ele>
        <time>2019-09-29T07:58:01.000Z</time>
      </trkpt>
      <trkpt lat="44.80083" lon="5.4423">
        <ele>1219.21</ele>
        <time>2019-09-29T07:58:11.000Z</time>
      </trkpt>
      <trkpt lat="44.80077" lon="5.4422">
        <ele>1219.63</ele>
        <time>2019-09-29T07:58:23.000Z</time>
      </trkpt>
      <trkpt lat="44.80071" lon="5.44209">
        <ele>1218.85</ele>
        <time>2019-09-29T07:58:37.000Z</time>
      </trkpt>
      <trkpt lat="44.80065" lon="5.44199">
        <ele>1218.73</ele>
        <time>2019-09-29T07:58:48.000Z</time>
      </trkpt>
      <trkpt lat="44.80059" lon="5.44189">
        <ele>1218.24</ele>
        <time>2019-09-29T07:58:58.000Z</time>
      </trkpt>
      <trkpt lat="44.80054" lon="5.44178">
        <ele>1217.45</ele>
        <time>2019-09-29T07:59:08.000Z</time>
      </trkpt>
      <trkpt lat="44.80047" lon="5.44162">
        <ele>1216.67</ele>
        <time>2019-09-29T07:59:18.000Z</time>
      </trkpt>
      <trkpt lat="44.80039" lon="5.4415">
        <ele>1217.59</ele>
        <time>2019-09-29T07:59:28.000Z</time>
      </trkpt>
      <trkpt lat="44.8003" lon="5.44144">
        <ele>1220.08</ele>
        <time>2019-09-29T07:59:38.000Z</time>
      </trkpt>
      <trkpt lat="44.80018" lon="5.44139">
        <ele>1223.87</ele>
        <time>2019-09-29T07:59:48.000Z</time>
      </trkpt>
      <trkpt lat="44.80009" lon="5.44134">
        <ele>1226.17</ele>
        <time>2019-09-29T08:00:11.000Z</time>
      </trkpt>
      <trkpt lat="44.8" lon="5.44131">
        <ele>1228.44</ele>
        <time>2019-09-29T08:00:22.000Z</time>
      </trkpt>
      <trkpt lat="44.79991" lon="5.44126">
        <ele>1229.61</ele>
        <time>2019-09-29T08:00:32.000Z</time>
      </trkpt>
      <trkpt lat="44.79983" lon="5.44118">
        <ele>1229.33</ele>
        <time>2019-09-29T08:00:44.000Z</time>
      </trkpt>
      <trkpt lat="44.79971" lon="5.44112">
        <ele>1229.96</ele>
        <time>2019-09-29T08:00:54.000Z</time>
      </trkpt>
      <trkpt lat="44.79962" lon="5.44107">
        <ele>1229.98</ele>
        <time>2019-09-29T08:01:04.000Z</time>
      </trkpt>
      <trkpt lat="44.79949" lon="5.441">
        <ele>1229.92</ele>
        <time>2019-09-29T08:01:14.000Z</time>
      </trkpt>
      <trkpt lat="44.79936" lon="5.44094">
        <ele>1230.76</ele>
        <time>2019-09-29T08:01:24.000Z</time>
      </trkpt>
      <trkpt lat="44.79924" lon="5.44091">
        <ele>1232.42</ele>
        <time>2019-09-29T08:01:34.000Z</time>
      </trkpt>
      <trkpt lat="44.79915" lon="5.44087">
        <ele>1233.96</ele>
        <time>2019-09-29T08:01:45.000Z</time>
      </trkpt>
      <trkpt lat="44.79904" lon="5.44081">
        <ele>1235.24</ele>
        <time>2019-09-29T08:01:55.000Z</time>
      </trkpt>
      <trkpt lat="44.79895" lon="5.44073">
        <ele>1235.65</ele>
        <time>2019-09-29T08:02:05.000Z</time>
      </trkpt>
      <trkpt lat="44.79887" lon="5.44067">
        <ele>1236.57</ele>
        <time>2019-09-29T08:02:39.000Z</time>
      </trkpt>
      <trkpt lat="44.79878" lon="5.44065">
        <ele>1239</ele>
        <time>2019-09-29T08:07:56.000Z</time>
      </trkpt>
      <trkpt lat="44.79886" lon="5.44071">
        <ele>1238.42</ele>
        <time>2019-09-29T08:08:51.000Z</time>
      </trkpt>
      <trkpt lat="44.79889" lon="5.44084">
        <ele>1241.72</ele>
        <time>2019-09-29T08:09:12.000Z</time>
      </trkpt>
      <trkpt lat="44.79897" lon="5.44092">
        <ele>1241.86</ele>
        <time>2019-09-29T08:09:27.000Z</time>
      </trkpt>
      <trkpt lat="44.79905" lon="5.44099">
        <ele>1241.18</ele>
        <time>2019-09-29T08:09:37.000Z</time>
      </trkpt>
      <trkpt lat="44.79914" lon="5.44104">
        <ele>1239.17</ele>
        <time>2019-09-29T08:09:52.000Z</time>
      </trkpt>
      <trkpt lat="44.79922" lon="5.44112">
        <ele>1238.9</ele>
        <time>2019-09-29T08:10:04.000Z</time>
      </trkpt>
      <trkpt lat="44.79929" lon="5.44122">
        <ele>1239.82</ele>
        <time>2019-09-29T08:10:15.000Z</time>
      </trkpt>
      <trkpt lat="44.79932" lon="5.44134">
        <ele>1242.79</ele>
        <time>2019-09-29T08:10:28.000Z</time>
      </trkpt>
      <trkpt lat="44.7994" lon="5.44138">
        <ele>1242.01</ele>
        <time>2019-09-29T08:10:44.000Z</time>
      </trkpt>
      <trkpt lat="44.7995" lon="5.44147">
        <ele>1242.64</ele>
        <time>2019-09-29T08:10:56.000Z</time>
      </trkpt>
      <trkpt lat="44.79959" lon="5.44154">
        <ele>1243.39</ele>
        <time>2019-09-29T08:11:06.000Z</time>
      </trkpt>
      <trkpt lat="44.79963" lon="5.44166">
        <ele>1246.32</ele>
        <time>2019-09-29T08:11:20.000Z</time>
      </trkpt>
      <trkpt lat="44.79972" lon="5.44175">
        <ele>1247.93</ele>
        <time>2019-09-29T08:11:30.000Z</time>
      </trkpt>
      <trkpt lat="44.79981" lon="5.4418">
        <ele>1247.8</ele>
        <time>2019-09-29T08:11:40.000Z</time>
      </trkpt>
      <trkpt lat="44.79971" lon="5.44178">
        <ele>1249.24</ele>
        <time>2019-09-29T08:12:09.000Z</time>
      </trkpt>
      <trkpt lat="44.79963" lon="5.44173">
        <ele>1249</ele>
        <time>2019-09-29T08:12:29.000Z</time>
      </trkpt>
      <trkpt lat="44.79954" lon="5.44173">
        <ele>1250.99</ele>
        <time>2019-09-29T08:12:40.000Z</time>
      </trkpt>
      <trkpt lat="44.79945" lon="5.44171">
        <ele>1252.14</ele>
        <time>2019-09-29T08:12:53.000Z</time>
      </trkpt>
      <trkpt lat="44.79935" lon="5.44169">
        <ele>1253.84</ele>
        <time>2019-09-29T08:13:07.000Z</time>
      </trkpt>
      <trkpt lat="44.79926" lon="5.44166">
        <ele>1255.54</ele>
        <time>2019-09-29T08:13:24.000Z</time>
      </trkpt>
      <trkpt lat="44.79913" lon="5.44159">
        <ele>1259.1</ele>
        <time>2019-09-29T08:13:34.000Z</time>
      </trkpt>
      <trkpt lat="44.79903" lon="5.44154">
        <ele>1263</ele>
        <time>2019-09-29T08:13:45.000Z</time>
      </trkpt>
      <trkpt lat="44.79892" lon="5.44149">
        <ele>1269.09</ele>
        <time>2019-09-29T08:13:55.000Z</time>
      </trkpt>
      <trkpt lat="44.79882" lon="5.44143">
        <ele>1273.82</ele>
        <time>2019-09-29T08:14:05.000Z</time>
      </trkpt>
      <trkpt lat="44.79874" lon="5.44138">
        <ele>1277.82</ele>
        <time>2019-09-29T08:14:16.000Z</time>
      </trkpt>
      <trkpt lat="44.79868" lon="5.44127">
        <ele>1274.84</ele>
        <time>2019-09-29T08:14:26.000Z</time>
      </trkpt>
      <trkpt lat="44.79857" lon="5.44118">
        <ele>1276.12</ele>
        <time>2019-09-29T08:14:36.000Z</time>
      </trkpt>
      <trkpt lat="44.79852" lon="5.44105">
        <ele>1270.01</ele>
        <time>2019-09-29T08:14:46.000Z</time>
      </trkpt>
      <trkpt lat="44.79846" lon="5.44091">
        <ele>1265</ele>
        <time>2019-09-29T08:14:56.000Z</time>
      </trkpt>
      <trkpt lat="44.79836" lon="5.44081">
        <ele>1264.24</ele>
        <time>2019-09-29T08:15:06.000Z</time>
      </trkpt>
      <trkpt lat="44.79828" lon="5.4407">
        <ele>1264.35</ele>
        <time>2019-09-29T08:15:16.000Z</time>
      </trkpt>
      <trkpt lat="44.79823" lon="5.44059">
        <ele>1263.21</ele>
        <time>2019-09-29T08:15:27.000Z</time>
      </trkpt>
      <trkpt lat="44.79821" lon="5.44046">
        <ele>1259.53</ele>
        <time>2019-09-29T08:15:44.000Z</time>
      </trkpt>
      <trkpt lat="44.79813" lon="5.44035">
        <ele>1261.59</ele>
        <time>2019-09-29T08:15:54.000Z</time>
      </trkpt>
      <trkpt lat="44.798" lon="5.44027">
        <ele>1267.16</ele>
        <time>2019-09-29T08:16:04.000Z</time>
      </trkpt>
      <trkpt lat="44.79791" lon="5.44021">
        <ele>1270.87</ele>
        <time>2019-09-29T08:16:14.000Z</time>
      </trkpt>
      <trkpt lat="44.79777" lon="5.44011">
        <ele>1275.33</ele>
        <time>2019-09-29T08:16:24.000Z</time>
      </trkpt>
      <trkpt lat="44.79769" lon="5.44001">
        <ele>1275.33</ele>
        <time>2019-09-29T08:16:37.000Z</time>
      </trkpt>
      <trkpt lat="44.7976" lon="5.43997">
        <ele>1278.22</ele>
        <time>2019-09-29T08:16:47.000Z</time>
      </trkpt>
      <trkpt lat="44.79749" lon="5.43996">
        <ele>1282.76</ele>
        <time>2019-09-29T08:16:57.000Z</time>
      </trkpt>
      <trkpt lat="44.79741" lon="5.43987">
        <ele>1283.53</ele>
        <time>2019-09-29T08:17:07.000Z</time>
      </trkpt>
      <trkpt lat="44.79734" lon="5.43978">
        <ele>1283.65</ele>
        <time>2019-09-29T08:17:27.000Z</time>
      </trkpt>
      <trkpt lat="44.79727" lon="5.43969">
        <ele>1283.52</ele>
        <time>2019-09-29T08:17:39.000Z</time>
      </trkpt>
      <trkpt lat="44.79717" lon="5.43968">
        <ele>1288.89</ele>
        <time>2019-09-29T08:17:55.000Z</time>
      </trkpt>
      <trkpt lat="44.79714" lon="5.43981">
        <ele>1295.22</ele>
        <time>2019-09-29T08:18:08.000Z</time>
      </trkpt>
      <trkpt lat="44.79717" lon="5.43993">
        <ele>1297.97</ele>
        <time>2019-09-29T08:18:24.000Z</time>
      </trkpt>
      <trkpt lat="44.79721" lon="5.44007">
        <ele>1299.75</ele>
        <time>2019-09-29T08:18:45.000Z</time>
      </trkpt>
      <trkpt lat="44.79727" lon="5.44016">
        <ele>1299.32</ele>
        <time>2019-09-29T08:18:57.000Z</time>
      </trkpt>
      <trkpt lat="44.79736" lon="5.44024">
        <ele>1299.17</ele>
        <time>2019-09-29T08:19:07.000Z</time>
      </trkpt>
      <trkpt lat="44.79743" lon="5.44035">
        <ele>1300.59</ele>
        <time>2019-09-29T08:19:17.000Z</time>
      </trkpt>
      <trkpt lat="44.79734" lon="5.44035">
        <ele>1303.21</ele>
        <time>2019-09-29T08:19:47.000Z</time>
      </trkpt>
      <trkpt lat="44.79725" lon="5.44034">
        <ele>1305.12</ele>
        <time>2019-09-29T08:20:02.000Z</time>
      </trkpt>
      <trkpt lat="44.79733" lon="5.44039">
        <ele>1304.88</ele>
        <time>2019-09-29T08:20:29.000Z</time>
      </trkpt>
      <trkpt lat="44.7974" lon="5.4405">
        <ele>1306.88</ele>
        <time>2019-09-29T08:20:46.000Z</time>
      </trkpt>
      <trkpt lat="44.7975" lon="5.44054">
        <ele>1306.57</ele>
        <time>2019-09-29T08:20:56.000Z</time>
      </trkpt>
      <trkpt lat="44.79758" lon="5.44062">
        <ele>1307.06</ele>
        <time>2019-09-29T08:21:10.000Z</time>
      </trkpt>
      <trkpt lat="44.7976" lon="5.44074">
        <ele>1310.49</ele>
        <time>2019-09-29T08:21:22.000Z</time>
      </trkpt>
      <trkpt lat="44.79764" lon="5.44087">
        <ele>1311.93</ele>
        <time>2019-09-29T08:21:34.000Z</time>
      </trkpt>
      <trkpt lat="44.79756" lon="5.4408">
        <ele>1312.96</ele>
        <time>2019-09-29T08:22:14.000Z</time>
      </trkpt>
      <trkpt lat="44.79745" lon="5.44078">
        <ele>1313.34</ele>
        <time>2019-09-29T08:22:24.000Z</time>
      </trkpt>
      <trkpt lat="44.79735" lon="5.4408">
        <ele>1312.38</ele>
        <time>2019-09-29T08:22:45.000Z</time>
      </trkpt>
      <trkpt lat="44.79726" lon="5.44076">
        <ele>1310.25</ele>
        <time>2019-09-29T08:23:18.000Z</time>
      </trkpt>
      <trkpt lat="44.79734" lon="5.44084">
        <ele>1312.13</ele>
        <time>2019-09-29T08:24:34.000Z</time>
      </trkpt>
      <trkpt lat="44.79743" lon="5.44082">
        <ele>1313.64</ele>
        <time>2019-09-29T08:25:06.000Z</time>
      </trkpt>
      <trkpt lat="44.79751" lon="5.4409">
        <ele>1314.58</ele>
        <time>2019-09-29T08:25:24.000Z</time>
      </trkpt>
      <trkpt lat="44.79756" lon="5.44101">
        <ele>1315.08</ele>
        <time>2019-09-29T08:25:39.000Z</time>
      </trkpt>
      <trkpt lat="44.79764" lon="5.44106">
        <ele>1314.65</ele>
        <time>2019-09-29T08:25:50.000Z</time>
      </trkpt>
      <trkpt lat="44.79774" lon="5.44111">
        <ele>1313.17</ele>
        <time>2019-09-29T08:26:00.000Z</time>
      </trkpt>
      <trkpt lat="44.79784" lon="5.44121">
        <ele>1312.33</ele>
        <time>2019-09-29T08:26:10.000Z</time>
      </trkpt>
      <trkpt lat="44.79796" lon="5.44129">
        <ele>1311.16</ele>
        <time>2019-09-29T08:26:20.000Z</time>
      </trkpt>
      <trkpt lat="44.79804" lon="5.44135">
        <ele>1311.27</ele>
        <time>2019-09-29T08:26:33.000Z</time>
      </trkpt>
      <trkpt lat="44.79813" lon="5.44136">
        <ele>1308.73</ele>
        <time>2019-09-29T08:27:06.000Z</time>
      </trkpt>
      <trkpt lat="44.79818" lon="5.44147">
        <ele>1313.39</ele>
        <time>2019-09-29T08:29:03.000Z</time>
      </trkpt>
      <trkpt lat="44.79824" lon="5.44158">
        <ele>1317.82</ele>
        <time>2019-09-29T08:29:20.000Z</time>
      </trkpt>
      <trkpt lat="44.79833" lon="5.44169">
        <ele>1321.04</ele>
        <time>2019-09-29T08:29:30.000Z</time>
      </trkpt>
      <trkpt lat="44.79825" lon="5.44162">
        <ele>1319.42</ele>
        <time>2019-09-29T08:33:11.000Z</time>
      </trkpt>
      <trkpt lat="44.79817" lon="5.44151">
        <ele>1315.56</ele>
        <time>2019-09-29T08:33:21.000Z</time>
      </trkpt>
      <trkpt lat="44.79821" lon="5.44162">
        <ele>1320.42</ele>
        <time>2019-09-29T08:51:58.000Z</time>
      </trkpt>
      <trkpt lat="44.79828" lon="5.44172">
        <ele>1323.69</ele>
        <time>2019-09-29T08:52:08.000Z</time>
      </trkpt>
      <trkpt lat="44.79835" lon="5.44184">
        <ele>1327.58</ele>
        <time>2019-09-29T08:52:18.000Z</time>
      </trkpt>
      <trkpt lat="44.79843" lon="5.44193">
        <ele>1329.09</ele>
        <time>2019-09-29T08:52:28.000Z</time>
      </trkpt>
      <trkpt lat="44.79847" lon="5.44205">
        <ele>1333.09</ele>
        <time>2019-09-29T08:52:38.000Z</time>
      </trkpt>
      <trkpt lat="44.79849" lon="5.44219">
        <ele>1337.98</ele>
        <time>2019-09-29T08:52:48.000Z</time>
      </trkpt>
      <trkpt lat="44.79852" lon="5.44231">
        <ele>1341.29</ele>
        <time>2019-09-29T08:53:00.000Z</time>
      </trkpt>
      <trkpt lat="44.79857" lon="5.44245">
        <ele>1343.28</ele>
        <time>2019-09-29T08:53:10.000Z</time>
      </trkpt>
      <trkpt lat="44.79863" lon="5.44258">
        <ele>1343.47</ele>
        <time>2019-09-29T08:53:20.000Z</time>
      </trkpt>
      <trkpt lat="44.79868" lon="5.44273">
        <ele>1344.07</ele>
        <time>2019-09-29T08:53:30.000Z</time>
      </trkpt>
      <trkpt lat="44.79872" lon="5.44285">
        <ele>1343.41</ele>
        <time>2019-09-29T08:53:40.000Z</time>
      </trkpt>
      <trkpt lat="44.79881" lon="5.44291">
        <ele>1339.61</ele>
        <time>2019-09-29T08:53:56.000Z</time>
      </trkpt>
      <trkpt lat="44.79883" lon="5.44304">
        <ele>1341.17</ele>
        <time>2019-09-29T08:54:20.000Z</time>
      </trkpt>
      <trkpt lat="44.79889" lon="5.44316">
        <ele>1341.43</ele>
        <time>2019-09-29T08:54:33.000Z</time>
      </trkpt>
      <trkpt lat="44.79891" lon="5.4433">
        <ele>1344.36</ele>
        <time>2019-09-29T08:54:48.000Z</time>
      </trkpt>
      <trkpt lat="44.79897" lon="5.4434">
        <ele>1345.23</ele>
        <time>2019-09-29T08:55:01.000Z</time>
      </trkpt>
      <trkpt lat="44.79895" lon="5.44352">
        <ele>1349.94</ele>
        <time>2019-09-29T08:55:15.000Z</time>
      </trkpt>
      <trkpt lat="44.79886" lon="5.44355">
        <ele>1353.19</ele>
        <time>2019-09-29T08:55:34.000Z</time>
      </trkpt>
      <trkpt lat="44.79879" lon="5.44346">
        <ele>1352.87</ele>
        <time>2019-09-29T08:55:46.000Z</time>
      </trkpt>
      <trkpt lat="44.79882" lon="5.44358">
        <ele>1354.63</ele>
        <time>2019-09-29T08:56:10.000Z</time>
      </trkpt>
      <trkpt lat="44.79874" lon="5.44365">
        <ele>1357.09</ele>
        <time>2019-09-29T08:56:57.000Z</time>
      </trkpt>
      <trkpt lat="44.79866" lon="5.44359">
        <ele>1356.6</ele>
        <time>2019-09-29T08:57:09.000Z</time>
      </trkpt>
      <trkpt lat="44.79857" lon="5.44355">
        <ele>1356.21</ele>
        <time>2019-09-29T08:57:53.000Z</time>
      </trkpt>
      <trkpt lat="44.79848" lon="5.44359">
        <ele>1355.11</ele>
        <time>2019-09-29T08:58:23.000Z</time>
      </trkpt>
      <trkpt lat="44.79841" lon="5.44369">
        <ele>1353.2</ele>
        <time>2019-09-29T08:58:42.000Z</time>
      </trkpt>
      <trkpt lat="44.79832" lon="5.44367">
        <ele>1349.54</ele>
        <time>2019-09-29T08:59:11.000Z</time>
      </trkpt>
      <trkpt lat="44.79826" lon="5.44376">
        <ele>1345.82</ele>
        <time>2019-09-29T08:59:31.000Z</time>
      </trkpt>
      <trkpt lat="44.79819" lon="5.44385">
        <ele>1340.91</ele>
        <time>2019-09-29T08:59:41.000Z</time>
      </trkpt>
      <trkpt lat="44.79811" lon="5.44393">
        <ele>1335.4</ele>
        <time>2019-09-29T08:59:57.000Z</time>
      </trkpt>
      <trkpt lat="44.79805" lon="5.44403">
        <ele>1332.05</ele>
        <time>2019-09-29T09:00:07.000Z</time>
      </trkpt>
      <trkpt lat="44.79799" lon="5.4442">
        <ele>1332.66</ele>
        <time>2019-09-29T09:00:17.000Z</time>
      </trkpt>
      <trkpt lat="44.79792" lon="5.4443">
        <ele>1330.3</ele>
        <time>2019-09-29T09:00:34.000Z</time>
      </trkpt>
      <trkpt lat="44.79784" lon="5.44439">
        <ele>1326.66</ele>
        <time>2019-09-29T09:00:44.000Z</time>
      </trkpt>
      <trkpt lat="44.79777" lon="5.44447">
        <ele>1321.54</ele>
        <time>2019-09-29T09:01:00.000Z</time>
      </trkpt>
      <trkpt lat="44.7977" lon="5.44456">
        <ele>1317.39</ele>
        <time>2019-09-29T09:01:10.000Z</time>
      </trkpt>
      <trkpt lat="44.79766" lon="5.44468">
        <ele>1316.94</ele>
        <time>2019-09-29T09:01:20.000Z</time>
      </trkpt>
      <trkpt lat="44.79762" lon="5.4448">
        <ele>1316.17</ele>
        <time>2019-09-29T09:01:30.000Z</time>
      </trkpt>
      <trkpt lat="44.7976" lon="5.44493">
        <ele>1320</ele>
        <time>2019-09-29T09:01:43.000Z</time>
      </trkpt>
      <trkpt lat="44.79752" lon="5.44502">
        <ele>1311.53</ele>
        <time>2019-09-29T09:01:58.000Z</time>
      </trkpt>
      <trkpt lat="44.79744" lon="5.44511">
        <ele>1307.57</ele>
        <time>2019-09-29T09:02:08.000Z</time>
      </trkpt>
      <trkpt lat="44.79739" lon="5.44523">
        <ele>1309.39</ele>
        <time>2019-09-29T09:02:18.000Z</time>
      </trkpt>
      <trkpt lat="44.79733" lon="5.44534">
        <ele>1310.62</ele>
        <time>2019-09-29T09:02:30.000Z</time>
      </trkpt>
      <trkpt lat="44.79732" lon="5.44547">
        <ele>1318.25</ele>
        <time>2019-09-29T09:02:42.000Z</time>
      </trkpt>
      <trkpt lat="44.79731" lon="5.4456">
        <ele>1324.76</ele>
        <time>2019-09-29T09:02:52.000Z</time>
      </trkpt>
      <trkpt lat="44.79723" lon="5.44573">
        <ele>1323.87</ele>
        <time>2019-09-29T09:03:02.000Z</time>
      </trkpt>
      <trkpt lat="44.79719" lon="5.44587">
        <ele>1324.05</ele>
        <time>2019-09-29T09:03:14.000Z</time>
      </trkpt>
      <trkpt lat="44.7971" lon="5.44593">
        <ele>1317.47</ele>
        <time>2019-09-29T09:03:24.000Z</time>
      </trkpt>
      <trkpt lat="44.79702" lon="5.44602">
        <ele>1314.03</ele>
        <time>2019-09-29T09:03:34.000Z</time>
      </trkpt>
      <trkpt lat="44.79693" lon="5.4461">
        <ele>1312.45</ele>
        <time>2019-09-29T09:03:44.000Z</time>
      </trkpt>
      <trkpt lat="44.79685" lon="5.44617">
        <ele>1313.36</ele>
        <time>2019-09-29T09:03:55.000Z</time>
      </trkpt>
      <trkpt lat="44.79674" lon="5.44622">
        <ele>1313.07</ele>
        <time>2019-09-29T09:04:22.000Z</time>
      </trkpt>
      <trkpt lat="44.79662" lon="5.44617">
        <ele>1302.8</ele>
        <time>2019-09-29T09:04:41.000Z</time>
      </trkpt>
      <trkpt lat="44.79652" lon="5.44615">
        <ele>1296.1</ele>
        <time>2019-09-29T09:05:08.000Z</time>
      </trkpt>
      <trkpt lat="44.79644" lon="5.44624">
        <ele>1303.52</ele>
        <time>2019-09-29T09:05:27.000Z</time>
      </trkpt>
      <trkpt lat="44.79635" lon="5.44623">
        <ele>1299.03</ele>
        <time>2019-09-29T09:05:38.000Z</time>
      </trkpt>
      <trkpt lat="44.79625" lon="5.44623">
        <ele>1296.49</ele>
        <time>2019-09-29T09:05:49.000Z</time>
      </trkpt>
      <trkpt lat="44.79617" lon="5.44628">
        <ele>1299.7</ele>
        <time>2019-09-29T09:05:59.000Z</time>
      </trkpt>
      <trkpt lat="44.79609" lon="5.44622">
        <ele>1289.57</ele>
        <time>2019-09-29T09:06:11.000Z</time>
      </trkpt>
      <trkpt lat="44.79601" lon="5.44614">
        <ele>1278.02</ele>
        <time>2019-09-29T09:06:21.000Z</time>
      </trkpt>
      <trkpt lat="44.79591" lon="5.44619">
        <ele>1279.47</ele>
        <time>2019-09-29T09:06:31.000Z</time>
      </trkpt>
      <trkpt lat="44.79583" lon="5.44626">
        <ele>1284.56</ele>
        <time>2019-09-29T09:06:41.000Z</time>
      </trkpt>
      <trkpt lat="44.79575" lon="5.44634">
        <ele>1288.41</ele>
        <time>2019-09-29T09:06:52.000Z</time>
      </trkpt>
      <trkpt lat="44.79566" lon="5.44637">
        <ele>1286.66</ele>
        <time>2019-09-29T09:07:02.000Z</time>
      </trkpt>
      <trkpt lat="44.7956" lon="5.4465">
        <ele>1292.73</ele>
        <time>2019-09-29T09:07:12.000Z</time>
      </trkpt>
      <trkpt lat="44.7956" lon="5.44664">
        <ele>1299.16</ele>
        <time>2019-09-29T09:07:23.000Z</time>
      </trkpt>
      <trkpt lat="44.7956" lon="5.44677">
        <ele>1300.79</ele>
        <time>2019-09-29T09:07:33.000Z</time>
      </trkpt>
      <trkpt lat="44.79562" lon="5.44691">
        <ele>1300.18</ele>
        <time>2019-09-29T09:07:43.000Z</time>
      </trkpt>
      <trkpt lat="44.79571" lon="5.44706">
        <ele>1300.96</ele>
        <time>2019-09-29T09:07:53.000Z</time>
      </trkpt>
      <trkpt lat="44.79579" lon="5.44717">
        <ele>1300.33</ele>
        <time>2019-09-29T09:08:03.000Z</time>
      </trkpt>
      <trkpt lat="44.79588" lon="5.44721">
        <ele>1303.63</ele>
        <time>2019-09-29T09:08:23.000Z</time>
      </trkpt>
      <trkpt lat="44.79595" lon="5.44728">
        <ele>1304.48</ele>
        <time>2019-09-29T09:08:34.000Z</time>
      </trkpt>
      <trkpt lat="44.79602" lon="5.44739">
        <ele>1303.28</ele>
        <time>2019-09-29T09:08:44.000Z</time>
      </trkpt>
      <trkpt lat="44.79609" lon="5.44749">
        <ele>1303.84</ele>
        <time>2019-09-29T09:08:56.000Z</time>
      </trkpt>
      <trkpt lat="44.79615" lon="5.4476">
        <ele>1303.74</ele>
        <time>2019-09-29T09:09:17.000Z</time>
      </trkpt>
      <trkpt lat="44.79622" lon="5.4477">
        <ele>1304.86</ele>
        <time>2019-09-29T09:09:27.000Z</time>
      </trkpt>
      <trkpt lat="44.79629" lon="5.44783">
        <ele>1304.07</ele>
        <time>2019-09-29T09:09:37.000Z</time>
      </trkpt>
      <trkpt lat="44.79636" lon="5.44799">
        <ele>1300.48</ele>
        <time>2019-09-29T09:09:47.000Z</time>
      </trkpt>
      <trkpt lat="44.79644" lon="5.44814">
        <ele>1298.21</ele>
        <time>2019-09-29T09:09:57.000Z</time>
      </trkpt>
      <trkpt lat="44.79652" lon="5.44828">
        <ele>1296.44</ele>
        <time>2019-09-29T09:10:07.000Z</time>
      </trkpt>
      <trkpt lat="44.79662" lon="5.44842">
        <ele>1297.34</ele>
        <time>2019-09-29T09:10:17.000Z</time>
      </trkpt>
      <trkpt lat="44.79672" lon="5.44853">
        <ele>1300.23</ele>
        <time>2019-09-29T09:10:27.000Z</time>
      </trkpt>
      <trkpt lat="44.7968" lon="5.44865">
        <ele>1301.83</ele>
        <time>2019-09-29T09:10:37.000Z</time>
      </trkpt>
      <trkpt lat="44.7968" lon="5.44879">
        <ele>1298.72</ele>
        <time>2019-09-29T09:10:50.000Z</time>
      </trkpt>
      <trkpt lat="44.7968" lon="5.44903">
        <ele>1295.33</ele>
        <time>2019-09-29T09:11:00.000Z</time>
      </trkpt>
      <trkpt lat="44.79684" lon="5.4492">
        <ele>1297.28</ele>
        <time>2019-09-29T09:11:10.000Z</time>
      </trkpt>
      <trkpt lat="44.79686" lon="5.44932">
        <ele>1299.59</ele>
        <time>2019-09-29T09:11:22.000Z</time>
      </trkpt>
      <trkpt lat="44.79685" lon="5.44946">
        <ele>1300.15</ele>
        <time>2019-09-29T09:11:32.000Z</time>
      </trkpt>
      <trkpt lat="44.79676" lon="5.44958">
        <ele>1296.02</ele>
        <time>2019-09-29T09:11:42.000Z</time>
      </trkpt>
      <trkpt lat="44.79671" lon="5.44976">
        <ele>1296.24</ele>
        <time>2019-09-29T09:11:52.000Z</time>
      </trkpt>
      <trkpt lat="44.7967" lon="5.4499">
        <ele>1296.8</ele>
        <time>2019-09-29T09:12:02.000Z</time>
      </trkpt>
      <trkpt lat="44.79671" lon="5.45008">
        <ele>1297.22</ele>
        <time>2019-09-29T09:12:12.000Z</time>
      </trkpt>
      <trkpt lat="44.79676" lon="5.45024">
        <ele>1297.11</ele>
        <time>2019-09-29T09:12:22.000Z</time>
      </trkpt>
      <trkpt lat="44.79678" lon="5.45039">
        <ele>1294.47</ele>
        <time>2019-09-29T09:12:32.000Z</time>
      </trkpt>
      <trkpt lat="44.79683" lon="5.4505">
        <ele>1294.84</ele>
        <time>2019-09-29T09:12:43.000Z</time>
      </trkpt>
      <trkpt lat="44.79685" lon="5.45063">
        <ele>1294.11</ele>
        <time>2019-09-29T09:12:56.000Z</time>
      </trkpt>
      <trkpt lat="44.79689" lon="5.45077">
        <ele>1295.77</ele>
        <time>2019-09-29T09:13:09.000Z</time>
      </trkpt>
      <trkpt lat="44.79686" lon="5.45093">
        <ele>1294.89</ele>
        <time>2019-09-29T09:13:19.000Z</time>
      </trkpt>
      <trkpt lat="44.79678" lon="5.45102">
        <ele>1291.75</ele>
        <time>2019-09-29T09:13:29.000Z</time>
      </trkpt>
      <trkpt lat="44.79671" lon="5.45113">
        <ele>1291.03</ele>
        <time>2019-09-29T09:13:39.000Z</time>
      </trkpt>
      <trkpt lat="44.7966" lon="5.45127">
        <ele>1290.52</ele>
        <time>2019-09-29T09:13:49.000Z</time>
      </trkpt>
      <trkpt lat="44.79651" lon="5.45136">
        <ele>1289.39</ele>
        <time>2019-09-29T09:13:59.000Z</time>
      </trkpt>
      <trkpt lat="44.79641" lon="5.45146">
        <ele>1288.1</ele>
        <time>2019-09-29T09:14:09.000Z</time>
      </trkpt>
      <trkpt lat="44.79634" lon="5.45161">
        <ele>1290.26</ele>
        <time>2019-09-29T09:14:19.000Z</time>
      </trkpt>
      <trkpt lat="44.79631" lon="5.45179">
        <ele>1292.85</ele>
        <time>2019-09-29T09:14:29.000Z</time>
      </trkpt>
      <trkpt lat="44.7963" lon="5.45192">
        <ele>1293.82</ele>
        <time>2019-09-29T09:14:39.000Z</time>
      </trkpt>
      <trkpt lat="44.79632" lon="5.4521">
        <ele>1296.18</ele>
        <time>2019-09-29T09:14:49.000Z</time>
      </trkpt>
      <trkpt lat="44.79629" lon="5.45225">
        <ele>1294.84</ele>
        <time>2019-09-29T09:14:59.000Z</time>
      </trkpt>
      <trkpt lat="44.79629" lon="5.45243">
        <ele>1295.91</ele>
        <time>2019-09-29T09:15:09.000Z</time>
      </trkpt>
      <trkpt lat="44.79623" lon="5.45259">
        <ele>1293.67</ele>
        <time>2019-09-29T09:15:19.000Z</time>
      </trkpt>
      <trkpt lat="44.79617" lon="5.4527">
        <ele>1291.56</ele>
        <time>2019-09-29T09:15:29.000Z</time>
      </trkpt>
      <trkpt lat="44.79611" lon="5.45284">
        <ele>1290.29</ele>
        <time>2019-09-29T09:15:39.000Z</time>
      </trkpt>
      <trkpt lat="44.79605" lon="5.453">
        <ele>1289.86</ele>
        <time>2019-09-29T09:15:49.000Z</time>
      </trkpt>
      <trkpt lat="44.79602" lon="5.4532">
        <ele>1292.08</ele>
        <time>2019-09-29T09:15:59.000Z</time>
      </trkpt>
      <trkpt lat="44.79601" lon="5.4534">
        <ele>1295.67</ele>
        <time>2019-09-29T09:16:09.000Z</time>
      </trkpt>
      <trkpt lat="44.79599" lon="5.45356">
        <ele>1297.75</ele>
        <time>2019-09-29T09:16:19.000Z</time>
      </trkpt>
      <trkpt lat="44.79593" lon="5.4537">
        <ele>1297.67</ele>
        <time>2019-09-29T09:16:29.000Z</time>
      </trkpt>
      <trkpt lat="44.79586" lon="5.45383">
        <ele>1296.25</ele>
        <time>2019-09-29T09:16:39.000Z</time>
      </trkpt>
      <trkpt lat="44.7958" lon="5.45394">
        <ele>1295.27</ele>
        <time>2019-09-29T09:16:51.000Z</time>
      </trkpt>
      <trkpt lat="44.7958" lon="5.4541">
        <ele>1298.49</ele>
        <time>2019-09-29T09:17:01.000Z</time>
      </trkpt>
      <trkpt lat="44.79583" lon="5.45422">
        <ele>1302.99</ele>
        <time>2019-09-29T09:17:11.000Z</time>
      </trkpt>
      <trkpt lat="44.79582" lon="5.45435">
        <ele>1305.53</ele>
        <time>2019-09-29T09:17:27.000Z</time>
      </trkpt>
      <trkpt lat="44.79576" lon="5.45447">
        <ele>1304.67</ele>
        <time>2019-09-29T09:17:37.000Z</time>
      </trkpt>
      <trkpt lat="44.79567" lon="5.45449">
        <ele>1299.71</ele>
        <time>2019-09-29T09:17:47.000Z</time>
      </trkpt>
      <trkpt lat="44.79554" lon="5.45454">
        <ele>1293.39</ele>
        <time>2019-09-29T09:17:57.000Z</time>
      </trkpt>
      <trkpt lat="44.79543" lon="5.45459">
        <ele>1287.89</ele>
        <time>2019-09-29T09:18:07.000Z</time>
      </trkpt>
      <trkpt lat="44.79535" lon="5.45472">
        <ele>1286.91</ele>
        <time>2019-09-29T09:18:17.000Z</time>
      </trkpt>
      <trkpt lat="44.79528" lon="5.45486">
        <ele>1286.85</ele>
        <time>2019-09-29T09:18:27.000Z</time>
      </trkpt>
      <trkpt lat="44.79519" lon="5.45498">
        <ele>1286.5</ele>
        <time>2019-09-29T09:18:37.000Z</time>
      </trkpt>
      <trkpt lat="44.79508" lon="5.45503">
        <ele>1282.51</ele>
        <time>2019-09-29T09:18:47.000Z</time>
      </trkpt>
      <trkpt lat="44.79499" lon="5.45513">
        <ele>1282.55</ele>
        <time>2019-09-29T09:18:57.000Z</time>
      </trkpt>
      <trkpt lat="44.79491" lon="5.45522">
        <ele>1283.09</ele>
        <time>2019-09-29T09:19:07.000Z</time>
      </trkpt>
      <trkpt lat="44.7948" lon="5.4553">
        <ele>1283.62</ele>
        <time>2019-09-29T09:19:17.000Z</time>
      </trkpt>
      <trkpt lat="44.79471" lon="5.45539">
        <ele>1284.88</ele>
        <time>2019-09-29T09:19:27.000Z</time>
      </trkpt>
      <trkpt lat="44.7946" lon="5.45549">
        <ele>1286.3</ele>
        <time>2019-09-29T09:19:37.000Z</time>
      </trkpt>
      <trkpt lat="44.7945" lon="5.45554">
        <ele>1285.37</ele>
        <time>2019-09-29T09:19:47.000Z</time>
      </trkpt>
      <trkpt lat="44.79439" lon="5.45561">
        <ele>1284.76</ele>
        <time>2019-09-29T09:19:57.000Z</time>
      </trkpt>
      <trkpt lat="44.7943" lon="5.45569">
        <ele>1284.63</ele>
        <time>2019-09-29T09:20:07.000Z</time>
      </trkpt>
      <trkpt lat="44.79421" lon="5.45584">
        <ele>1286.04</ele>
        <time>2019-09-29T09:20:17.000Z</time>
      </trkpt>
      <trkpt lat="44.79412" lon="5.45601">
        <ele>1287.06</ele>
        <time>2019-09-29T09:20:27.000Z</time>
      </trkpt>
      <trkpt lat="44.79403" lon="5.45614">
        <ele>1286.36</ele>
        <time>2019-09-29T09:20:37.000Z</time>
      </trkpt>
      <trkpt lat="44.79396" lon="5.45627">
        <ele>1286.23</ele>
        <time>2019-09-29T09:20:47.000Z</time>
      </trkpt>
      <trkpt lat="44.79385" lon="5.45641">
        <ele>1284.97</ele>
        <time>2019-09-29T09:20:57.000Z</time>
      </trkpt>
      <trkpt lat="44.7938" lon="5.45655">
        <ele>1286.46</ele>
        <time>2019-09-29T09:21:07.000Z</time>
      </trkpt>
      <trkpt lat="44.79372" lon="5.45668">
        <ele>1286.37</ele>
        <time>2019-09-29T09:21:17.000Z</time>
      </trkpt>
      <trkpt lat="44.79362" lon="5.45673">
        <ele>1283.55</ele>
        <time>2019-09-29T09:21:27.000Z</time>
      </trkpt>
      <trkpt lat="44.79351" lon="5.45677">
        <ele>1280.19</ele>
        <time>2019-09-29T09:21:37.000Z</time>
      </trkpt>
      <trkpt lat="44.79338" lon="5.45686">
        <ele>1277.5</ele>
        <time>2019-09-29T09:21:47.000Z</time>
      </trkpt>
      <trkpt lat="44.79328" lon="5.45698">
        <ele>1276.7</ele>
        <time>2019-09-29T09:21:57.000Z</time>
      </trkpt>
      <trkpt lat="44.79321" lon="5.45708">
        <ele>1276.9</ele>
        <time>2019-09-29T09:22:07.000Z</time>
      </trkpt>
      <trkpt lat="44.7931" lon="5.45718">
        <ele>1276.07</ele>
        <time>2019-09-29T09:22:17.000Z</time>
      </trkpt>
      <trkpt lat="44.79301" lon="5.45732">
        <ele>1277.07</ele>
        <time>2019-09-29T09:22:27.000Z</time>
      </trkpt>
      <trkpt lat="44.7929" lon="5.45744">
        <ele>1277.63</ele>
        <time>2019-09-29T09:22:37.000Z</time>
      </trkpt>
      <trkpt lat="44.79283" lon="5.45755">
        <ele>1278.94</ele>
        <time>2019-09-29T09:22:47.000Z</time>
      </trkpt>
      <trkpt lat="44.79271" lon="5.45766">
        <ele>1278.97</ele>
        <time>2019-09-29T09:22:57.000Z</time>
      </trkpt>
      <trkpt lat="44.79263" lon="5.45775">
        <ele>1279.87</ele>
        <time>2019-09-29T09:23:07.000Z</time>
      </trkpt>
      <trkpt lat="44.79254" lon="5.45781">
        <ele>1279.32</ele>
        <time>2019-09-29T09:23:17.000Z</time>
      </trkpt>
      <trkpt lat="44.79245" lon="5.45784">
        <ele>1277.31</ele>
        <time>2019-09-29T09:23:41.000Z</time>
      </trkpt>
      <trkpt lat="44.79248" lon="5.45795">
        <ele>1282.35</ele>
        <time>2019-09-29T09:28:11.000Z</time>
      </trkpt>
      <trkpt lat="44.79257" lon="5.458">
        <ele>1286.41</ele>
        <time>2019-09-29T09:29:46.000Z</time>
      </trkpt>
      <trkpt lat="44.79265" lon="5.45806">
        <ele>1291.03</ele>
        <time>2019-09-29T09:30:07.000Z</time>
      </trkpt>
      <trkpt lat="44.79274" lon="5.4581">
        <ele>1294.86</ele>
        <time>2019-09-29T09:30:23.000Z</time>
      </trkpt>
      <trkpt lat="44.79283" lon="5.45814">
        <ele>1298.43</ele>
        <time>2019-09-29T09:30:42.000Z</time>
      </trkpt>
      <trkpt lat="44.79291" lon="5.45817">
        <ele>1302.14</ele>
        <time>2019-09-29T09:31:03.000Z</time>
      </trkpt>
      <trkpt lat="44.79296" lon="5.45829">
        <ele>1307.23</ele>
        <time>2019-09-29T09:31:49.000Z</time>
      </trkpt>
      <trkpt lat="44.7929" lon="5.45838">
        <ele>1308.68</ele>
        <time>2019-09-29T09:32:09.000Z</time>
      </trkpt>
      <trkpt lat="44.79283" lon="5.45848">
        <ele>1309.95</ele>
        <time>2019-09-29T09:32:31.000Z</time>
      </trkpt>
      <trkpt lat="44.79276" lon="5.45857">
        <ele>1311.03</ele>
        <time>2019-09-29T09:32:43.000Z</time>
      </trkpt>
      <trkpt lat="44.79268" lon="5.45865">
        <ele>1311.76</ele>
        <time>2019-09-29T09:33:02.000Z</time>
      </trkpt>
      <trkpt lat="44.79262" lon="5.45875">
        <ele>1313.84</ele>
        <time>2019-09-29T09:33:17.000Z</time>
      </trkpt>
      <trkpt lat="44.79256" lon="5.45884">
        <ele>1315.47</ele>
        <time>2019-09-29T09:33:35.000Z</time>
      </trkpt>
      <trkpt lat="44.79253" lon="5.45897">
        <ele>1319.44</ele>
        <time>2019-09-29T09:33:53.000Z</time>
      </trkpt>
      <trkpt lat="44.7925" lon="5.4591">
        <ele>1323.35</ele>
        <time>2019-09-29T09:34:17.000Z</time>
      </trkpt>
      <trkpt lat="44.79242" lon="5.45916">
        <ele>1323.37</ele>
        <time>2019-09-29T09:34:31.000Z</time>
      </trkpt>
      <trkpt lat="44.79244" lon="5.45929">
        <ele>1329.02</ele>
        <time>2019-09-29T09:34:57.000Z</time>
      </trkpt>
      <trkpt lat="44.79252" lon="5.45933">
        <ele>1333.34</ele>
        <time>2019-09-29T09:35:16.000Z</time>
      </trkpt>
      <trkpt lat="44.7926" lon="5.45941">
        <ele>1338.7</ele>
        <time>2019-09-29T09:35:33.000Z</time>
      </trkpt>
      <trkpt lat="44.79261" lon="5.45956">
        <ele>1345.5</ele>
        <time>2019-09-29T09:35:54.000Z</time>
      </trkpt>
      <trkpt lat="44.79254" lon="5.45964">
        <ele>1347.02</ele>
        <time>2019-09-29T09:36:04.000Z</time>
      </trkpt>
      <trkpt lat="44.7925" lon="5.45976">
        <ele>1351.06</ele>
        <time>2019-09-29T09:36:18.000Z</time>
      </trkpt>
      <trkpt lat="44.79244" lon="5.45986">
        <ele>1353.2</ele>
        <time>2019-09-29T09:36:31.000Z</time>
      </trkpt>
      <trkpt lat="44.79234" lon="5.45994">
        <ele>1351.93</ele>
        <time>2019-09-29T09:36:41.000Z</time>
      </trkpt>
      <trkpt lat="44.79227" lon="5.46005">
        <ele>1353.31</ele>
        <time>2019-09-29T09:36:56.000Z</time>
      </trkpt>
      <trkpt lat="44.79219" lon="5.46013">
        <ele>1352.18</ele>
        <time>2019-09-29T09:37:06.000Z</time>
      </trkpt>
      <trkpt lat="44.79214" lon="5.46024">
        <ele>1353.73</ele>
        <time>2019-09-29T09:37:17.000Z</time>
      </trkpt>
      <trkpt lat="44.79207" lon="5.46034">
        <ele>1354.21</ele>
        <time>2019-09-29T09:37:28.000Z</time>
      </trkpt>
      <trkpt lat="44.79201" lon="5.46045">
        <ele>1356.04</ele>
        <time>2019-09-29T09:37:40.000Z</time>
      </trkpt>
      <trkpt lat="44.79196" lon="5.46057">
        <ele>1358.94</ele>
        <time>2019-09-29T09:37:50.000Z</time>
      </trkpt>
      <trkpt lat="44.7919" lon="5.46067">
        <ele>1361.55</ele>
        <time>2019-09-29T09:38:00.000Z</time>
      </trkpt>
      <trkpt lat="44.79183" lon="5.46075">
        <ele>1363</ele>
        <time>2019-09-29T09:38:18.000Z</time>
      </trkpt>
      <trkpt lat="44.79176" lon="5.46084">
        <ele>1365.91</ele>
        <time>2019-09-29T09:38:35.000Z</time>
      </trkpt>
      <trkpt lat="44.7917" lon="5.46096">
        <ele>1371.5</ele>
        <time>2019-09-29T09:38:56.000Z</time>
      </trkpt>
      <trkpt lat="44.79161" lon="5.46103">
        <ele>1374.48</ele>
        <time>2019-09-29T09:39:15.000Z</time>
      </trkpt>
      <trkpt lat="44.79155" lon="5.46112">
        <ele>1378.89</ele>
        <time>2019-09-29T09:39:32.000Z</time>
      </trkpt>
      <trkpt lat="44.79147" lon="5.4612">
        <ele>1383.41</ele>
        <time>2019-09-29T09:39:45.000Z</time>
      </trkpt>
      <trkpt lat="44.79138" lon="5.46122">
        <ele>1384.3</ele>
        <time>2019-09-29T09:39:59.000Z</time>
      </trkpt>
      <trkpt lat="44.7913" lon="5.46128">
        <ele>1387.74</ele>
        <time>2019-09-29T09:40:13.000Z</time>
      </trkpt>
      <trkpt lat="44.79121" lon="5.46132">
        <ele>1389.63</ele>
        <time>2019-09-29T09:40:28.000Z</time>
      </trkpt>
      <trkpt lat="44.79112" lon="5.46139">
        <ele>1393</ele>
        <time>2019-09-29T09:40:41.000Z</time>
      </trkpt>
      <trkpt lat="44.79104" lon="5.46146">
        <ele>1396.48</ele>
        <time>2019-09-29T09:40:53.000Z</time>
      </trkpt>
      <trkpt lat="44.79097" lon="5.46153">
        <ele>1399.81</ele>
        <time>2019-09-29T09:41:12.000Z</time>
      </trkpt>
      <trkpt lat="44.79088" lon="5.46159">
        <ele>1402.27</ele>
        <time>2019-09-29T09:41:33.000Z</time>
      </trkpt>
      <trkpt lat="44.79082" lon="5.46168">
        <ele>1406.51</ele>
        <time>2019-09-29T09:41:52.000Z</time>
      </trkpt>
      <trkpt lat="44.7908" lon="5.46181">
        <ele>1412.97</ele>
        <time>2019-09-29T09:42:22.000Z</time>
      </trkpt>
      <trkpt lat="44.79071" lon="5.46186">
        <ele>1415.22</ele>
        <time>2019-09-29T09:42:43.000Z</time>
      </trkpt>
      <trkpt lat="44.79062" lon="5.46187">
        <ele>1415.29</ele>
        <time>2019-09-29T09:43:09.000Z</time>
      </trkpt>
      <trkpt lat="44.79053" lon="5.46187">
        <ele>1415.27</ele>
        <time>2019-09-29T09:43:29.000Z</time>
      </trkpt>
      <trkpt lat="44.79043" lon="5.46188">
        <ele>1415.65</ele>
        <time>2019-09-29T09:43:46.000Z</time>
      </trkpt>
      <trkpt lat="44.79034" lon="5.46194">
        <ele>1418.29</ele>
        <time>2019-09-29T09:44:06.000Z</time>
      </trkpt>
      <trkpt lat="44.79025" lon="5.46199">
        <ele>1421.22</ele>
        <time>2019-09-29T09:44:57.000Z</time>
      </trkpt>
      <trkpt lat="44.79016" lon="5.46204">
        <ele>1423.95</ele>
        <time>2019-09-29T09:45:19.000Z</time>
      </trkpt>
      <trkpt lat="44.79008" lon="5.46209">
        <ele>1427.6</ele>
        <time>2019-09-29T09:46:04.000Z</time>
      </trkpt>
      <trkpt lat="44.79015" lon="5.46219">
        <ele>1430.32</ele>
        <time>2019-09-29T09:51:36.000Z</time>
      </trkpt>
      <trkpt lat="44.79013" lon="5.46231">
        <ele>1435.83</ele>
        <time>2019-09-29T09:51:55.000Z</time>
      </trkpt>
      <trkpt lat="44.79012" lon="5.46244">
        <ele>1441.55</ele>
        <time>2019-09-29T09:52:23.000Z</time>
      </trkpt>
      <trkpt lat="44.79003" lon="5.46244">
        <ele>1442.66</ele>
        <time>2019-09-29T09:52:38.000Z</time>
      </trkpt>
      <trkpt lat="44.78994" lon="5.46249">
        <ele>1446.94</ele>
        <time>2019-09-29T09:53:05.000Z</time>
      </trkpt>
      <trkpt lat="44.78993" lon="5.46262">
        <ele>1452.87</ele>
        <time>2019-09-29T09:54:44.000Z</time>
      </trkpt>
      <trkpt lat="44.78986" lon="5.4627">
        <ele>1458.24</ele>
        <time>2019-09-29T09:55:09.000Z</time>
      </trkpt>
      <trkpt lat="44.78977" lon="5.46264">
        <ele>1458.59</ele>
        <time>2019-09-29T09:55:54.000Z</time>
      </trkpt>
      <trkpt lat="44.7897" lon="5.46274">
        <ele>1465.34</ele>
        <time>2019-09-29T09:56:40.000Z</time>
      </trkpt>
      <trkpt lat="44.78962" lon="5.46278">
        <ele>1471</ele>
        <time>2019-09-29T09:57:51.000Z</time>
      </trkpt>
      <trkpt lat="44.78966" lon="5.4629">
        <ele>1474.63</ele>
        <time>2019-09-29T09:58:25.000Z</time>
      </trkpt>
      <trkpt lat="44.78959" lon="5.46297">
        <ele>1481.85</ele>
        <time>2019-09-29T09:58:46.000Z</time>
      </trkpt>
      <trkpt lat="44.7895" lon="5.46292">
        <ele>1483.37</ele>
        <time>2019-09-29T09:59:05.000Z</time>
      </trkpt>
      <trkpt lat="44.78941" lon="5.4629">
        <ele>1487.15</ele>
        <time>2019-09-29T09:59:21.000Z</time>
      </trkpt>
      <trkpt lat="44.78933" lon="5.46284">
        <ele>1488.69</ele>
        <time>2019-09-29T10:00:25.000Z</time>
      </trkpt>
      <trkpt lat="44.78924" lon="5.46286">
        <ele>1495.83</ele>
        <time>2019-09-29T10:00:37.000Z</time>
      </trkpt>
      <trkpt lat="44.78914" lon="5.46289">
        <ele>1503.55</ele>
        <time>2019-09-29T10:00:57.000Z</time>
      </trkpt>
      <trkpt lat="44.78906" lon="5.46285">
        <ele>1508.22</ele>
        <time>2019-09-29T10:02:02.000Z</time>
      </trkpt>
      <trkpt lat="44.78897" lon="5.46289">
        <ele>1517.82</ele>
        <time>2019-09-29T10:02:39.000Z</time>
      </trkpt>
      <trkpt lat="44.78888" lon="5.46286">
        <ele>1523.54</ele>
        <time>2019-09-29T10:03:02.000Z</time>
      </trkpt>
      <trkpt lat="44.78879" lon="5.46289">
        <ele>1533.58</ele>
        <time>2019-09-29T10:03:29.000Z</time>
      </trkpt>
      <trkpt lat="44.78873" lon="5.46279">
        <ele>1530.79</ele>
        <time>2019-09-29T10:04:03.000Z</time>
      </trkpt>
      <trkpt lat="44.78872" lon="5.46266">
        <ele>1524.03</ele>
        <time>2019-09-29T10:04:57.000Z</time>
      </trkpt>
      <trkpt lat="44.78864" lon="5.46258">
        <ele>1525.53</ele>
        <time>2019-09-29T10:05:32.000Z</time>
      </trkpt>
      <trkpt lat="44.78856" lon="5.46264">
        <ele>1536.41</ele>
        <time>2019-09-29T10:05:45.000Z</time>
      </trkpt>
      <trkpt lat="44.78849" lon="5.46254">
        <ele>1536.98</ele>
        <time>2019-09-29T10:07:06.000Z</time>
      </trkpt>
      <trkpt lat="44.78845" lon="5.46243">
        <ele>1536</ele>
        <time>2019-09-29T10:07:30.000Z</time>
      </trkpt>
      <trkpt lat="44.78837" lon="5.4625">
        <ele>1546.14</ele>
        <time>2019-09-29T10:08:34.000Z</time>
      </trkpt>
      <trkpt lat="44.78827" lon="5.46249">
        <ele>1554.79</ele>
        <time>2019-09-29T10:09:20.000Z</time>
      </trkpt>
      <trkpt lat="44.78818" lon="5.46247">
        <ele>1562.34</ele>
        <time>2019-09-29T10:10:28.000Z</time>
      </trkpt>
      <trkpt lat="44.78811" lon="5.46237">
        <ele>1564.71</ele>
        <time>2019-09-29T10:11:08.000Z</time>
      </trkpt>
      <trkpt lat="44.78815" lon="5.46249">
        <ele>1565.85</ele>
        <time>2019-09-29T10:13:11.000Z</time>
      </trkpt>
      <trkpt lat="44.78805" lon="5.4625">
        <ele>1576.41</ele>
        <time>2019-09-29T10:13:41.000Z</time>
      </trkpt>
      <trkpt lat="44.78811" lon="5.4626">
        <ele>1577.88</ele>
        <time>2019-09-29T10:15:17.000Z</time>
      </trkpt>
      <trkpt lat="44.78819" lon="5.46268">
        <ele>1574.44</ele>
        <time>2019-09-29T10:15:30.000Z</time>
      </trkpt>
      <trkpt lat="44.78828" lon="5.46275">
        <ele>1571.81</ele>
        <time>2019-09-29T10:15:43.000Z</time>
      </trkpt>
      <trkpt lat="44.78836" lon="5.46282">
        <ele>1570.34</ele>
        <time>2019-09-29T10:16:32.000Z</time>
      </trkpt>
      <trkpt lat="44.78842" lon="5.46294">
        <ele>1575.52</ele>
        <time>2019-09-29T10:17:19.000Z</time>
      </trkpt>
      <trkpt lat="44.78852" lon="5.46293">
        <ele>1564.38</ele>
        <time>2019-09-29T10:17:41.000Z</time>
      </trkpt>
      <trkpt lat="44.78861" lon="5.46294">
        <ele>1555.49</ele>
        <time>2019-09-29T10:18:07.000Z</time>
      </trkpt>
      <trkpt lat="44.78868" lon="5.46304">
        <ele>1556.81</ele>
        <time>2019-09-29T10:18:31.000Z</time>
      </trkpt>
      <trkpt lat="44.78874" lon="5.46314">
        <ele>1559.28</ele>
        <time>2019-09-29T10:19:03.000Z</time>
      </trkpt>
      <trkpt lat="44.78875" lon="5.46327">
        <ele>1569.18</ele>
        <time>2019-09-29T10:19:47.000Z</time>
      </trkpt>
      <trkpt lat="44.78868" lon="5.46335">
        <ele>1583.9</ele>
        <time>2019-09-29T10:20:27.000Z</time>
      </trkpt>
      <trkpt lat="44.78868" lon="5.46348">
        <ele>1594.53</ele>
        <time>2019-09-29T10:21:34.000Z</time>
      </trkpt>
      <trkpt lat="44.78864" lon="5.46359">
        <ele>1610.23</ele>
        <time>2019-09-29T10:22:10.000Z</time>
      </trkpt>
      <trkpt lat="44.78869" lon="5.46369">
        <ele>1613.57</ele>
        <time>2019-09-29T10:23:08.000Z</time>
      </trkpt>
      <trkpt lat="44.7887" lon="5.46382">
        <ele>1625.48</ele>
        <time>2019-09-29T10:23:35.000Z</time>
      </trkpt>
      <trkpt lat="44.78874" lon="5.46393">
        <ele>1630.35</ele>
        <time>2019-09-29T10:24:46.000Z</time>
      </trkpt>
      <trkpt lat="44.78883" lon="5.46399">
        <ele>1626.58</ele>
        <time>2019-09-29T10:24:58.000Z</time>
      </trkpt>
      <trkpt lat="44.78892" lon="5.46403">
        <ele>1620.58</ele>
        <time>2019-09-29T10:25:16.000Z</time>
      </trkpt>
      <trkpt lat="44.78899" lon="5.46411">
        <ele>1620.45</ele>
        <time>2019-09-29T10:25:33.000Z</time>
      </trkpt>
      <trkpt lat="44.78909" lon="5.46416">
        <ele>1615.83</ele>
        <time>2019-09-29T10:25:50.000Z</time>
      </trkpt>
      <trkpt lat="44.78919" lon="5.46418">
        <ele>1611</ele>
        <time>2019-09-29T10:26:11.000Z</time>
      </trkpt>
      <trkpt lat="44.78927" lon="5.46424">
        <ele>1610.33</ele>
        <time>2019-09-29T10:26:37.000Z</time>
      </trkpt>
      <trkpt lat="44.78934" lon="5.46431">
        <ele>1612.05</ele>
        <time>2019-09-29T10:26:52.000Z</time>
      </trkpt>
      <trkpt lat="44.78943" lon="5.46438">
        <ele>1613.72</ele>
        <time>2019-09-29T10:27:24.000Z</time>
      </trkpt>
      <trkpt lat="44.78949" lon="5.46447">
        <ele>1618.14</ele>
        <time>2019-09-29T10:27:38.000Z</time>
      </trkpt>
      <trkpt lat="44.78958" lon="5.46453">
        <ele>1619.47</ele>
        <time>2019-09-29T10:28:01.000Z</time>
      </trkpt>
      <trkpt lat="44.78967" lon="5.46455">
        <ele>1617.9</ele>
        <time>2019-09-29T10:28:20.000Z</time>
      </trkpt>
      <trkpt lat="44.78976" lon="5.46456">
        <ele>1615.93</ele>
        <time>2019-09-29T10:28:37.000Z</time>
      </trkpt>
      <trkpt lat="44.78985" lon="5.46461">
        <ele>1617.19</ele>
        <time>2019-09-29T10:28:51.000Z</time>
      </trkpt>
      <trkpt lat="44.78994" lon="5.46461">
        <ele>1615.11</ele>
        <time>2019-09-29T10:29:09.000Z</time>
      </trkpt>
      <trkpt lat="44.79004" lon="5.46458">
        <ele>1611.47</ele>
        <time>2019-09-29T10:29:32.000Z</time>
      </trkpt>
      <trkpt lat="44.79013" lon="5.46462">
        <ele>1613.47</ele>
        <time>2019-09-29T10:29:57.000Z</time>
      </trkpt>
      <trkpt lat="44.79022" lon="5.46467">
        <ele>1616.64</ele>
        <time>2019-09-29T10:30:26.000Z</time>
      </trkpt>
      <trkpt lat="44.79031" lon="5.4647">
        <ele>1618.2</ele>
        <time>2019-09-29T10:30:41.000Z</time>
      </trkpt>
      <trkpt lat="44.79041" lon="5.46473">
        <ele>1620.6</ele>
        <time>2019-09-29T10:31:05.000Z</time>
      </trkpt>
      <trkpt lat="44.7905" lon="5.46474">
        <ele>1621.8</ele>
        <time>2019-09-29T10:31:30.000Z</time>
      </trkpt>
      <trkpt lat="44.7906" lon="5.46476">
        <ele>1624.09</ele>
        <time>2019-09-29T10:31:58.000Z</time>
      </trkpt>
      <trkpt lat="44.79069" lon="5.46478">
        <ele>1627.36</ele>
        <time>2019-09-29T10:32:43.000Z</time>
      </trkpt>
      <trkpt lat="44.79077" lon="5.46473">
        <ele>1624.13</ele>
        <time>2019-09-29T10:33:01.000Z</time>
      </trkpt>
      <trkpt lat="44.79086" lon="5.4647">
        <ele>1622.82</ele>
        <time>2019-09-29T10:33:17.000Z</time>
      </trkpt>
      <trkpt lat="44.79095" lon="5.46468">
        <ele>1623.49</ele>
        <time>2019-09-29T10:33:36.000Z</time>
      </trkpt>
      <trkpt lat="44.79104" lon="5.46464">
        <ele>1622.81</ele>
        <time>2019-09-29T10:34:03.000Z</time>
      </trkpt>
      <trkpt lat="44.79114" lon="5.46463">
        <ele>1625.31</ele>
        <time>2019-09-29T10:34:33.000Z</time>
      </trkpt>
      <trkpt lat="44.79125" lon="5.46462">
        <ele>1629.92</ele>
        <time>2019-09-29T10:34:43.000Z</time>
      </trkpt>
      <trkpt lat="44.79134" lon="5.46459">
        <ele>1630.7</ele>
        <time>2019-09-29T10:34:59.000Z</time>
      </trkpt>
      <trkpt lat="44.79144" lon="5.46458">
        <ele>1633.55</ele>
        <time>2019-09-29T10:35:38.000Z</time>
      </trkpt>
      <trkpt lat="44.79152" lon="5.46453">
        <ele>1632.39</ele>
        <time>2019-09-29T10:35:48.000Z</time>
      </trkpt>
      <trkpt lat="44.79161" lon="5.46453">
        <ele>1635.53</ele>
        <time>2019-09-29T10:35:59.000Z</time>
      </trkpt>
      <trkpt lat="44.7917" lon="5.46453">
        <ele>1638.08</ele>
        <time>2019-09-29T10:36:15.000Z</time>
      </trkpt>
      <trkpt lat="44.79179" lon="5.46449">
        <ele>1637.59</ele>
        <time>2019-09-29T10:36:28.000Z</time>
      </trkpt>
      <trkpt lat="44.79189" lon="5.46449">
        <ele>1639.87</ele>
        <time>2019-09-29T10:36:43.000Z</time>
      </trkpt>
      <trkpt lat="44.79197" lon="5.46444">
        <ele>1637.96</ele>
        <time>2019-09-29T10:36:57.000Z</time>
      </trkpt>
      <trkpt lat="44.79207" lon="5.46444">
        <ele>1640.82</ele>
        <time>2019-09-29T10:37:09.000Z</time>
      </trkpt>
      <trkpt lat="44.79216" lon="5.46442">
        <ele>1641.49</ele>
        <time>2019-09-29T10:37:26.000Z</time>
      </trkpt>
      <trkpt lat="44.79225" lon="5.46439">
        <ele>1641.5</ele>
        <time>2019-09-29T10:37:38.000Z</time>
      </trkpt>
      <trkpt lat="44.79235" lon="5.46436">
        <ele>1642.32</ele>
        <time>2019-09-29T10:37:50.000Z</time>
      </trkpt>
      <trkpt lat="44.79243" lon="5.46436">
        <ele>1644.08</ele>
        <time>2019-09-29T10:38:03.000Z</time>
      </trkpt>
      <trkpt lat="44.79253" lon="5.46432">
        <ele>1643.36</ele>
        <time>2019-09-29T10:38:15.000Z</time>
      </trkpt>
      <trkpt lat="44.79262" lon="5.4643">
        <ele>1643.64</ele>
        <time>2019-09-29T10:39:29.000Z</time>
      </trkpt>
      <trkpt lat="44.79269" lon="5.46421">
        <ele>1638.99</ele>
        <time>2019-09-29T10:41:00.000Z</time>
      </trkpt>
      <trkpt lat="44.79277" lon="5.46414">
        <ele>1634.59</ele>
        <time>2019-09-29T11:04:48.000Z</time>
      </trkpt>
      <trkpt lat="44.79267" lon="5.46414">
        <ele>1632.69</ele>
        <time>2019-09-29T11:05:56.000Z</time>
      </trkpt>
      <trkpt lat="44.7926" lon="5.46422">
        <ele>1638.09</ele>
        <time>2019-09-29T11:06:23.000Z</time>
      </trkpt>
      <trkpt lat="44.79256" lon="5.46434">
        <ele>1645.47</ele>
        <time>2019-09-29T11:06:52.000Z</time>
      </trkpt>
      <trkpt lat="44.79262" lon="5.46424">
        <ele>1639.8</ele>
        <time>2019-09-29T11:07:58.000Z</time>
      </trkpt>
      <trkpt lat="44.79271" lon="5.46419">
        <ele>1637.6</ele>
        <time>2019-09-29T11:11:41.000Z</time>
      </trkpt>
      <trkpt lat="44.79263" lon="5.46424">
        <ele>1639.95</ele>
        <time>2019-09-29T11:19:52.000Z</time>
      </trkpt>
      <trkpt lat="44.79268" lon="5.46435">
        <ele>1647.72</ele>
        <time>2019-09-29T11:21:00.000Z</time>
      </trkpt>
      <trkpt lat="44.79277" lon="5.46441">
        <ele>1651.19</ele>
        <time>2019-09-29T11:21:29.000Z</time>
      </trkpt>
      <trkpt lat="44.79288" lon="5.46444">
        <ele>1652.81</ele>
        <time>2019-09-29T11:21:39.000Z</time>
      </trkpt>
      <trkpt lat="44.79296" lon="5.4645">
        <ele>1654.56</ele>
        <time>2019-09-29T11:21:50.000Z</time>
      </trkpt>
      <trkpt lat="44.79305" lon="5.46452">
        <ele>1654.85</ele>
        <time>2019-09-29T11:22:01.000Z</time>
      </trkpt>
      <trkpt lat="44.79313" lon="5.46459">
        <ele>1656.37</ele>
        <time>2019-09-29T11:22:12.000Z</time>
      </trkpt>
      <trkpt lat="44.79322" lon="5.46461">
        <ele>1656.86</ele>
        <time>2019-09-29T11:22:25.000Z</time>
      </trkpt>
      <trkpt lat="44.7933" lon="5.46467">
        <ele>1657.86</ele>
        <time>2019-09-29T11:22:38.000Z</time>
      </trkpt>
      <trkpt lat="44.79337" lon="5.46475">
        <ele>1659.19</ele>
        <time>2019-09-29T11:22:51.000Z</time>
      </trkpt>
      <trkpt lat="44.79343" lon="5.46485">
        <ele>1660.55</ele>
        <time>2019-09-29T11:23:05.000Z</time>
      </trkpt>
      <trkpt lat="44.79351" lon="5.46493">
        <ele>1661.64</ele>
        <time>2019-09-29T11:23:18.000Z</time>
      </trkpt>
      <trkpt lat="44.7936" lon="5.46499">
        <ele>1662.41</ele>
        <time>2019-09-29T11:23:31.000Z</time>
      </trkpt>
      <trkpt lat="44.79368" lon="5.46506">
        <ele>1663.07</ele>
        <time>2019-09-29T11:23:44.000Z</time>
      </trkpt>
      <trkpt lat="44.79374" lon="5.46517">
        <ele>1663.8</ele>
        <time>2019-09-29T11:23:57.000Z</time>
      </trkpt>
      <trkpt lat="44.79378" lon="5.46528">
        <ele>1664.39</ele>
        <time>2019-09-29T11:24:08.000Z</time>
      </trkpt>
      <trkpt lat="44.79385" lon="5.46539">
        <ele>1664.22</ele>
        <time>2019-09-29T11:24:18.000Z</time>
      </trkpt>
      <trkpt lat="44.79393" lon="5.46549">
        <ele>1663.05</ele>
        <time>2019-09-29T11:24:28.000Z</time>
      </trkpt>
      <trkpt lat="44.79403" lon="5.46559">
        <ele>1661.18</ele>
        <time>2019-09-29T11:24:38.000Z</time>
      </trkpt>
      <trkpt lat="44.79409" lon="5.46573">
        <ele>1659.24</ele>
        <time>2019-09-29T11:24:48.000Z</time>
      </trkpt>
      <trkpt lat="44.79414" lon="5.46587">
        <ele>1656.99</ele>
        <time>2019-09-29T11:24:58.000Z</time>
      </trkpt>
      <trkpt lat="44.79419" lon="5.46601">
        <ele>1654.97</ele>
        <time>2019-09-29T11:25:08.000Z</time>
      </trkpt>
      <trkpt lat="44.79419" lon="5.46616">
        <ele>1653.4</ele>
        <time>2019-09-29T11:25:18.000Z</time>
      </trkpt>
      <trkpt lat="44.79421" lon="5.4663">
        <ele>1651.73</ele>
        <time>2019-09-29T11:25:28.000Z</time>
      </trkpt>
      <trkpt lat="44.79425" lon="5.46643">
        <ele>1650.04</ele>
        <time>2019-09-29T11:25:38.000Z</time>
      </trkpt>
      <trkpt lat="44.79425" lon="5.46656">
        <ele>1648.51</ele>
        <time>2019-09-29T11:26:11.000Z</time>
      </trkpt>
      <trkpt lat="44.7942" lon="5.46667">
        <ele>1647.65</ele>
        <time>2019-09-29T11:26:52.000Z</time>
      </trkpt>
      <trkpt lat="44.79411" lon="5.46677">
        <ele>1647.28</ele>
        <time>2019-09-29T11:27:02.000Z</time>
      </trkpt>
      <trkpt lat="44.79405" lon="5.46686">
        <ele>1646.83</ele>
        <time>2019-09-29T11:27:20.000Z</time>
      </trkpt>
      <trkpt lat="44.79403" lon="5.46701">
        <ele>1644.65</ele>
        <time>2019-09-29T11:27:30.000Z</time>
      </trkpt>
      <trkpt lat="44.79403" lon="5.46715">
        <ele>1642.19</ele>
        <time>2019-09-29T11:28:35.000Z</time>
      </trkpt>
      <trkpt lat="44.79397" lon="5.46732">
        <ele>1640.11</ele>
        <time>2019-09-29T11:28:45.000Z</time>
      </trkpt>
      <trkpt lat="44.79391" lon="5.46753">
        <ele>1638.03</ele>
        <time>2019-09-29T11:28:55.000Z</time>
      </trkpt>
      <trkpt lat="44.79387" lon="5.4677">
        <ele>1635.97</ele>
        <time>2019-09-29T11:29:05.000Z</time>
      </trkpt>
      <trkpt lat="44.79382" lon="5.46787">
        <ele>1633.75</ele>
        <time>2019-09-29T11:29:15.000Z</time>
      </trkpt>
      <trkpt lat="44.7938" lon="5.46801">
        <ele>1631.81</ele>
        <time>2019-09-29T11:29:25.000Z</time>
      </trkpt>
      <trkpt lat="44.79374" lon="5.46815">
        <ele>1630.52</ele>
        <time>2019-09-29T11:29:35.000Z</time>
      </trkpt>
      <trkpt lat="44.79369" lon="5.4683">
        <ele>1629.25</ele>
        <time>2019-09-29T11:29:45.000Z</time>
      </trkpt>
      <trkpt lat="44.79364" lon="5.46847">
        <ele>1628.49</ele>
        <time>2019-09-29T11:29:55.000Z</time>
      </trkpt>
      <trkpt lat="44.79357" lon="5.4686">
        <ele>1628.88</ele>
        <time>2019-09-29T11:30:05.000Z</time>
      </trkpt>
      <trkpt lat="44.79348" lon="5.4687">
        <ele>1629.94</ele>
        <time>2019-09-29T11:30:15.000Z</time>
      </trkpt>
      <trkpt lat="44.79345" lon="5.46885">
        <ele>1629.99</ele>
        <time>2019-09-29T11:30:25.000Z</time>
      </trkpt>
      <trkpt lat="44.79343" lon="5.469">
        <ele>1629.89</ele>
        <time>2019-09-29T11:30:35.000Z</time>
      </trkpt>
      <trkpt lat="44.79343" lon="5.46914">
        <ele>1629.29</ele>
        <time>2019-09-29T11:30:50.000Z</time>
      </trkpt>
      <trkpt lat="44.79343" lon="5.46927">
        <ele>1628.61</ele>
        <time>2019-09-29T11:32:22.000Z</time>
      </trkpt>
      <trkpt lat="44.79351" lon="5.46933">
        <ele>1626.86</ele>
        <time>2019-09-29T11:32:35.000Z</time>
      </trkpt>
      <trkpt lat="44.79352" lon="5.46946">
        <ele>1625.91</ele>
        <time>2019-09-29T11:32:46.000Z</time>
      </trkpt>
      <trkpt lat="44.79352" lon="5.4696">
        <ele>1625.15</ele>
        <time>2019-09-29T11:32:56.000Z</time>
      </trkpt>
      <trkpt lat="44.79354" lon="5.46974">
        <ele>1624.19</ele>
        <time>2019-09-29T11:33:06.000Z</time>
      </trkpt>
      <trkpt lat="44.79355" lon="5.46991">
        <ele>1624.03</ele>
        <time>2019-09-29T11:33:16.000Z</time>
      </trkpt>
      <trkpt lat="44.79356" lon="5.47006">
        <ele>1624.48</ele>
        <time>2019-09-29T11:33:26.000Z</time>
      </trkpt>
      <trkpt lat="44.7936" lon="5.47022">
        <ele>1625.41</ele>
        <time>2019-09-29T11:33:36.000Z</time>
      </trkpt>
      <trkpt lat="44.79362" lon="5.47039">
        <ele>1627</ele>
        <time>2019-09-29T11:33:46.000Z</time>
      </trkpt>
      <trkpt lat="44.79366" lon="5.47052">
        <ele>1628.05</ele>
        <time>2019-09-29T11:33:56.000Z</time>
      </trkpt>
      <trkpt lat="44.79372" lon="5.47065">
        <ele>1627.67</ele>
        <time>2019-09-29T11:34:06.000Z</time>
      </trkpt>
      <trkpt lat="44.79377" lon="5.47077">
        <ele>1627.44</ele>
        <time>2019-09-29T11:34:16.000Z</time>
      </trkpt>
      <trkpt lat="44.79385" lon="5.47092">
        <ele>1625.94</ele>
        <time>2019-09-29T11:34:26.000Z</time>
      </trkpt>
      <trkpt lat="44.7939" lon="5.47104">
        <ele>1624.84</ele>
        <time>2019-09-29T11:34:36.000Z</time>
      </trkpt>
      <trkpt lat="44.79397" lon="5.47119">
        <ele>1623.35</ele>
        <time>2019-09-29T11:34:46.000Z</time>
      </trkpt>
      <trkpt lat="44.79403" lon="5.47131">
        <ele>1622.32</ele>
        <time>2019-09-29T11:34:56.000Z</time>
      </trkpt>
      <trkpt lat="44.79413" lon="5.47141">
        <ele>1619.86</ele>
        <time>2019-09-29T11:35:06.000Z</time>
      </trkpt>
      <trkpt lat="44.79424" lon="5.4715">
        <ele>1617.94</ele>
        <time>2019-09-29T11:35:16.000Z</time>
      </trkpt>
      <trkpt lat="44.79432" lon="5.47157">
        <ele>1616.83</ele>
        <time>2019-09-29T11:35:26.000Z</time>
      </trkpt>
      <trkpt lat="44.79442" lon="5.47168">
        <ele>1615.81</ele>
        <time>2019-09-29T11:35:36.000Z</time>
      </trkpt>
      <trkpt lat="44.79452" lon="5.47181">
        <ele>1615.16</ele>
        <time>2019-09-29T11:35:46.000Z</time>
      </trkpt>
      <trkpt lat="44.79458" lon="5.47196">
        <ele>1615.53</ele>
        <time>2019-09-29T11:35:56.000Z</time>
      </trkpt>
      <trkpt lat="44.79467" lon="5.47207">
        <ele>1615.06</ele>
        <time>2019-09-29T11:36:06.000Z</time>
      </trkpt>
      <trkpt lat="44.79475" lon="5.47219">
        <ele>1614.73</ele>
        <time>2019-09-29T11:36:16.000Z</time>
      </trkpt>
      <trkpt lat="44.79482" lon="5.47233">
        <ele>1614.56</ele>
        <time>2019-09-29T11:36:26.000Z</time>
      </trkpt>
      <trkpt lat="44.79488" lon="5.47244">
        <ele>1614.43</ele>
        <time>2019-09-29T11:36:36.000Z</time>
      </trkpt>
      <trkpt lat="44.79493" lon="5.47257">
        <ele>1614.18</ele>
        <time>2019-09-29T11:36:46.000Z</time>
      </trkpt>
      <trkpt lat="44.79502" lon="5.4727">
        <ele>1613.64</ele>
        <time>2019-09-29T11:36:56.000Z</time>
      </trkpt>
      <trkpt lat="44.79507" lon="5.47285">
        <ele>1613.58</ele>
        <time>2019-09-29T11:37:06.000Z</time>
      </trkpt>
      <trkpt lat="44.79511" lon="5.47299">
        <ele>1613.71</ele>
        <time>2019-09-29T11:37:16.000Z</time>
      </trkpt>
      <trkpt lat="44.79516" lon="5.47315">
        <ele>1613.91</ele>
        <time>2019-09-29T11:37:26.000Z</time>
      </trkpt>
      <trkpt lat="44.7952" lon="5.47328">
        <ele>1614.31</ele>
        <time>2019-09-29T11:37:36.000Z</time>
      </trkpt>
      <trkpt lat="44.79524" lon="5.47341">
        <ele>1614.66</ele>
        <time>2019-09-29T11:37:46.000Z</time>
      </trkpt>
      <trkpt lat="44.79528" lon="5.47354">
        <ele>1615.18</ele>
        <time>2019-09-29T11:37:56.000Z</time>
      </trkpt>
      <trkpt lat="44.79532" lon="5.47365">
        <ele>1615.5</ele>
        <time>2019-09-29T11:38:06.000Z</time>
      </trkpt>
      <trkpt lat="44.79538" lon="5.47379">
        <ele>1615.62</ele>
        <time>2019-09-29T11:38:16.000Z</time>
      </trkpt>
      <trkpt lat="44.79542" lon="5.47394">
        <ele>1615.77</ele>
        <time>2019-09-29T11:38:26.000Z</time>
      </trkpt>
      <trkpt lat="44.79546" lon="5.47409">
        <ele>1615.44</ele>
        <time>2019-09-29T11:38:36.000Z</time>
      </trkpt>
      <trkpt lat="44.79551" lon="5.47423">
        <ele>1614.66</ele>
        <time>2019-09-29T11:38:46.000Z</time>
      </trkpt>
      <trkpt lat="44.79554" lon="5.47438">
        <ele>1614.15</ele>
        <time>2019-09-29T11:38:56.000Z</time>
      </trkpt>
      <trkpt lat="44.79557" lon="5.47453">
        <ele>1613.39</ele>
        <time>2019-09-29T11:39:06.000Z</time>
      </trkpt>
      <trkpt lat="44.7956" lon="5.47466">
        <ele>1612.66</ele>
        <time>2019-09-29T11:39:16.000Z</time>
      </trkpt>
      <trkpt lat="44.79561" lon="5.4748">
        <ele>1612.25</ele>
        <time>2019-09-29T11:39:26.000Z</time>
      </trkpt>
      <trkpt lat="44.79562" lon="5.47495">
        <ele>1611.47</ele>
        <time>2019-09-29T11:39:36.000Z</time>
      </trkpt>
      <trkpt lat="44.79562" lon="5.4751">
        <ele>1610.47</ele>
        <time>2019-09-29T11:39:46.000Z</time>
      </trkpt>
      <trkpt lat="44.79559" lon="5.47523">
        <ele>1610.54</ele>
        <time>2019-09-29T11:39:59.000Z</time>
      </trkpt>
      <trkpt lat="44.79557" lon="5.47536">
        <ele>1610.05</ele>
        <time>2019-09-29T11:40:13.000Z</time>
      </trkpt>
      <trkpt lat="44.79553" lon="5.47548">
        <ele>1609.96</ele>
        <time>2019-09-29T11:40:28.000Z</time>
      </trkpt>
      <trkpt lat="44.79554" lon="5.47562">
        <ele>1608.46</ele>
        <time>2019-09-29T11:40:38.000Z</time>
      </trkpt>
      <trkpt lat="44.79555" lon="5.47575">
        <ele>1606.96</ele>
        <time>2019-09-29T11:40:48.000Z</time>
      </trkpt>
      <trkpt lat="44.79553" lon="5.47589">
        <ele>1606.68</ele>
        <time>2019-09-29T11:40:58.000Z</time>
      </trkpt>
      <trkpt lat="44.79548" lon="5.47601">
        <ele>1607.23</ele>
        <time>2019-09-29T11:41:14.000Z</time>
      </trkpt>
      <trkpt lat="44.79542" lon="5.47614">
        <ele>1607.88</ele>
        <time>2019-09-29T11:41:24.000Z</time>
      </trkpt>
      <trkpt lat="44.79537" lon="5.47626">
        <ele>1607.8</ele>
        <time>2019-09-29T11:41:35.000Z</time>
      </trkpt>
      <trkpt lat="44.79531" lon="5.47638">
        <ele>1607.45</ele>
        <time>2019-09-29T11:41:45.000Z</time>
      </trkpt>
      <trkpt lat="44.79526" lon="5.4765">
        <ele>1606.47</ele>
        <time>2019-09-29T11:41:55.000Z</time>
      </trkpt>
      <trkpt lat="44.79522" lon="5.47662">
        <ele>1605.41</ele>
        <time>2019-09-29T11:42:05.000Z</time>
      </trkpt>
      <trkpt lat="44.79515" lon="5.47672">
        <ele>1604.97</ele>
        <time>2019-09-29T11:42:15.000Z</time>
      </trkpt>
      <trkpt lat="44.79504" lon="5.47669">
        <ele>1606.35</ele>
        <time>2019-09-29T11:42:25.000Z</time>
      </trkpt>
      <trkpt lat="44.79494" lon="5.47666">
        <ele>1607.69</ele>
        <time>2019-09-29T11:42:37.000Z</time>
      </trkpt>
      <trkpt lat="44.79485" lon="5.4767">
        <ele>1608.21</ele>
        <time>2019-09-29T11:42:47.000Z</time>
      </trkpt>
      <trkpt lat="44.79477" lon="5.47676">
        <ele>1608.53</ele>
        <time>2019-09-29T11:42:57.000Z</time>
      </trkpt>
      <trkpt lat="44.7947" lon="5.47687">
        <ele>1608.3</ele>
        <time>2019-09-29T11:43:07.000Z</time>
      </trkpt>
      <trkpt lat="44.79463" lon="5.47695">
        <ele>1608.64</ele>
        <time>2019-09-29T11:43:18.000Z</time>
      </trkpt>
      <trkpt lat="44.79456" lon="5.47704">
        <ele>1609.08</ele>
        <time>2019-09-29T11:43:28.000Z</time>
      </trkpt>
      <trkpt lat="44.79454" lon="5.47719">
        <ele>1608.52</ele>
        <time>2019-09-29T11:43:38.000Z</time>
      </trkpt>
      <trkpt lat="44.79452" lon="5.47734">
        <ele>1607.72</ele>
        <time>2019-09-29T11:43:48.000Z</time>
      </trkpt>
      <trkpt lat="44.79454" lon="5.47749">
        <ele>1606.01</ele>
        <time>2019-09-29T11:43:58.000Z</time>
      </trkpt>
      <trkpt lat="44.79452" lon="5.47762">
        <ele>1605.15</ele>
        <time>2019-09-29T11:44:10.000Z</time>
      </trkpt>
      <trkpt lat="44.79447" lon="5.47775">
        <ele>1604.74</ele>
        <time>2019-09-29T11:44:20.000Z</time>
      </trkpt>
      <trkpt lat="44.79443" lon="5.4779">
        <ele>1603.54</ele>
        <time>2019-09-29T11:44:30.000Z</time>
      </trkpt>
      <trkpt lat="44.79438" lon="5.47804">
        <ele>1602.5</ele>
        <time>2019-09-29T11:44:40.000Z</time>
      </trkpt>
      <trkpt lat="44.79436" lon="5.47821">
        <ele>1600.59</ele>
        <time>2019-09-29T11:44:50.000Z</time>
      </trkpt>
      <trkpt lat="44.79432" lon="5.47834">
        <ele>1599.54</ele>
        <time>2019-09-29T11:45:02.000Z</time>
      </trkpt>
      <trkpt lat="44.7943" lon="5.47851">
        <ele>1597.8</ele>
        <time>2019-09-29T11:45:12.000Z</time>
      </trkpt>
      <trkpt lat="44.79425" lon="5.47865">
        <ele>1596.66</ele>
        <time>2019-09-29T11:45:22.000Z</time>
      </trkpt>
      <trkpt lat="44.79417" lon="5.47878">
        <ele>1595.83</ele>
        <time>2019-09-29T11:45:32.000Z</time>
      </trkpt>
      <trkpt lat="44.79413" lon="5.47891">
        <ele>1594.73</ele>
        <time>2019-09-29T11:45:42.000Z</time>
      </trkpt>
      <trkpt lat="44.79406" lon="5.47905">
        <ele>1593.75</ele>
        <time>2019-09-29T11:45:52.000Z</time>
      </trkpt>
      <trkpt lat="44.79399" lon="5.47917">
        <ele>1593.14</ele>
        <time>2019-09-29T11:46:02.000Z</time>
      </trkpt>
      <trkpt lat="44.79394" lon="5.47931">
        <ele>1592.3</ele>
        <time>2019-09-29T11:46:12.000Z</time>
      </trkpt>
      <trkpt lat="44.7939" lon="5.47948">
        <ele>1591.13</ele>
        <time>2019-09-29T11:46:22.000Z</time>
      </trkpt>
      <trkpt lat="44.79385" lon="5.47962">
        <ele>1590.17</ele>
        <time>2019-09-29T11:46:32.000Z</time>
      </trkpt>
      <trkpt lat="44.79382" lon="5.47977">
        <ele>1589.04</ele>
        <time>2019-09-29T11:46:42.000Z</time>
      </trkpt>
      <trkpt lat="44.79376" lon="5.4799">
        <ele>1588.3</ele>
        <time>2019-09-29T11:46:52.000Z</time>
      </trkpt>
      <trkpt lat="44.79371" lon="5.48003">
        <ele>1587.5</ele>
        <time>2019-09-29T11:47:02.000Z</time>
      </trkpt>
      <trkpt lat="44.79369" lon="5.48016">
        <ele>1586.79</ele>
        <time>2019-09-29T11:47:12.000Z</time>
      </trkpt>
      <trkpt lat="44.79371" lon="5.48029">
        <ele>1585.96</ele>
        <time>2019-09-29T11:47:32.000Z</time>
      </trkpt>
      <trkpt lat="44.7937" lon="5.48043">
        <ele>1585.32</ele>
        <time>2019-09-29T11:47:42.000Z</time>
      </trkpt>
      <trkpt lat="44.7937" lon="5.48056">
        <ele>1584.79</ele>
        <time>2019-09-29T11:47:52.000Z</time>
      </trkpt>
      <trkpt lat="44.7937" lon="5.48071">
        <ele>1584.29</ele>
        <time>2019-09-29T11:48:02.000Z</time>
      </trkpt>
      <trkpt lat="44.79373" lon="5.48087">
        <ele>1583.65</ele>
        <time>2019-09-29T11:48:12.000Z</time>
      </trkpt>
      <trkpt lat="44.79374" lon="5.48102">
        <ele>1583.26</ele>
        <time>2019-09-29T11:48:22.000Z</time>
      </trkpt>
      <trkpt lat="44.79374" lon="5.48118">
        <ele>1583.05</ele>
        <time>2019-09-29T11:48:32.000Z</time>
      </trkpt>
      <trkpt lat="44.79374" lon="5.48135">
        <ele>1582.97</ele>
        <time>2019-09-29T11:48:42.000Z</time>
      </trkpt>
      <trkpt lat="44.79376" lon="5.48154">
        <ele>1583</ele>
        <time>2019-09-29T11:48:52.000Z</time>
      </trkpt>
      <trkpt lat="44.7938" lon="5.48166">
        <ele>1582.91</ele>
        <time>2019-09-29T11:49:02.000Z</time>
      </trkpt>
      <trkpt lat="44.79389" lon="5.48177">
        <ele>1582.84</ele>
        <time>2019-09-29T11:49:12.000Z</time>
      </trkpt>
      <trkpt lat="44.79398" lon="5.48189">
        <ele>1583.23</ele>
        <time>2019-09-29T11:49:22.000Z</time>
      </trkpt>
      <trkpt lat="44.79404" lon="5.48198">
        <ele>1583.81</ele>
        <time>2019-09-29T11:49:32.000Z</time>
      </trkpt>
      <trkpt lat="44.7941" lon="5.48208">
        <ele>1584.73</ele>
        <time>2019-09-29T11:49:42.000Z</time>
      </trkpt>
      <trkpt lat="44.79417" lon="5.48221">
        <ele>1585.96</ele>
        <time>2019-09-29T11:49:52.000Z</time>
      </trkpt>
      <trkpt lat="44.79423" lon="5.48232">
        <ele>1587.08</ele>
        <time>2019-09-29T11:50:02.000Z</time>
      </trkpt>
      <trkpt lat="44.79431" lon="5.48247">
        <ele>1588.16</ele>
        <time>2019-09-29T11:50:12.000Z</time>
      </trkpt>
      <trkpt lat="44.79434" lon="5.48261">
        <ele>1588.63</ele>
        <time>2019-09-29T11:50:22.000Z</time>
      </trkpt>
      <trkpt lat="44.79436" lon="5.48278">
        <ele>1588.7</ele>
        <time>2019-09-29T11:50:32.000Z</time>
      </trkpt>
      <trkpt lat="44.7944" lon="5.48294">
        <ele>1588.28</ele>
        <time>2019-09-29T11:50:42.000Z</time>
      </trkpt>
      <trkpt lat="44.79448" lon="5.48306">
        <ele>1587.21</ele>
        <time>2019-09-29T11:50:52.000Z</time>
      </trkpt>
      <trkpt lat="44.79459" lon="5.48312">
        <ele>1585.5</ele>
        <time>2019-09-29T11:51:02.000Z</time>
      </trkpt>
      <trkpt lat="44.79469" lon="5.48323">
        <ele>1583.7</ele>
        <time>2019-09-29T11:51:12.000Z</time>
      </trkpt>
      <trkpt lat="44.79475" lon="5.48334">
        <ele>1582.62</ele>
        <time>2019-09-29T11:51:22.000Z</time>
      </trkpt>
      <trkpt lat="44.79485" lon="5.48347">
        <ele>1581.81</ele>
        <time>2019-09-29T11:51:32.000Z</time>
      </trkpt>
      <trkpt lat="44.79494" lon="5.48357">
        <ele>1581.95</ele>
        <time>2019-09-29T11:51:42.000Z</time>
      </trkpt>
      <trkpt lat="44.79503" lon="5.48366">
        <ele>1582.76</ele>
        <time>2019-09-29T11:51:52.000Z</time>
      </trkpt>
      <trkpt lat="44.79512" lon="5.48372">
        <ele>1583.62</ele>
        <time>2019-09-29T11:52:02.000Z</time>
      </trkpt>
      <trkpt lat="44.79521" lon="5.48377">
        <ele>1584.64</ele>
        <time>2019-09-29T11:52:12.000Z</time>
      </trkpt>
      <trkpt lat="44.79532" lon="5.48386">
        <ele>1586.13</ele>
        <time>2019-09-29T11:52:22.000Z</time>
      </trkpt>
      <trkpt lat="44.79542" lon="5.48396">
        <ele>1587.42</ele>
        <time>2019-09-29T11:52:32.000Z</time>
      </trkpt>
      <trkpt lat="44.7955" lon="5.48408">
        <ele>1588.4</ele>
        <time>2019-09-29T11:52:42.000Z</time>
      </trkpt>
      <trkpt lat="44.79557" lon="5.48419">
        <ele>1588.98</ele>
        <time>2019-09-29T11:52:52.000Z</time>
      </trkpt>
      <trkpt lat="44.79563" lon="5.4843">
        <ele>1589.38</ele>
        <time>2019-09-29T11:53:02.000Z</time>
      </trkpt>
      <trkpt lat="44.7957" lon="5.48444">
        <ele>1589.75</ele>
        <time>2019-09-29T11:53:12.000Z</time>
      </trkpt>
      <trkpt lat="44.79579" lon="5.48457">
        <ele>1590.16</ele>
        <time>2019-09-29T11:53:22.000Z</time>
      </trkpt>
      <trkpt lat="44.79586" lon="5.48467">
        <ele>1590.59</ele>
        <time>2019-09-29T11:53:32.000Z</time>
      </trkpt>
      <trkpt lat="44.79596" lon="5.48477">
        <ele>1591.17</ele>
        <time>2019-09-29T11:53:42.000Z</time>
      </trkpt>
      <trkpt lat="44.79604" lon="5.48491">
        <ele>1591.94</ele>
        <time>2019-09-29T11:53:52.000Z</time>
      </trkpt>
      <trkpt lat="44.79611" lon="5.48504">
        <ele>1592.88</ele>
        <time>2019-09-29T11:54:02.000Z</time>
      </trkpt>
      <trkpt lat="44.79619" lon="5.48514">
        <ele>1593.81</ele>
        <time>2019-09-29T11:54:12.000Z</time>
      </trkpt>
      <trkpt lat="44.79627" lon="5.48527">
        <ele>1595.27</ele>
        <time>2019-09-29T11:54:22.000Z</time>
      </trkpt>
      <trkpt lat="44.79633" lon="5.4854">
        <ele>1596.81</ele>
        <time>2019-09-29T11:54:32.000Z</time>
      </trkpt>
      <trkpt lat="44.7964" lon="5.48551">
        <ele>1597.99</ele>
        <time>2019-09-29T11:54:42.000Z</time>
      </trkpt>
      <trkpt lat="44.79649" lon="5.48555">
        <ele>1598.39</ele>
        <time>2019-09-29T11:54:52.000Z</time>
      </trkpt>
      <trkpt lat="44.79659" lon="5.48558">
        <ele>1598.65</ele>
        <time>2019-09-29T11:55:02.000Z</time>
      </trkpt>
      <trkpt lat="44.79668" lon="5.48559">
        <ele>1598.74</ele>
        <time>2019-09-29T11:55:12.000Z</time>
      </trkpt>
      <trkpt lat="44.79676" lon="5.48565">
        <ele>1598.99</ele>
        <time>2019-09-29T11:55:22.000Z</time>
      </trkpt>
      <trkpt lat="44.79686" lon="5.48575">
        <ele>1599.12</ele>
        <time>2019-09-29T11:55:32.000Z</time>
      </trkpt>
      <trkpt lat="44.79694" lon="5.48586">
        <ele>1599.05</ele>
        <time>2019-09-29T11:55:42.000Z</time>
      </trkpt>
      <trkpt lat="44.79702" lon="5.48601">
        <ele>1598.92</ele>
        <time>2019-09-29T11:55:52.000Z</time>
      </trkpt>
      <trkpt lat="44.79709" lon="5.48614">
        <ele>1598.78</ele>
        <time>2019-09-29T11:56:02.000Z</time>
      </trkpt>
      <trkpt lat="44.79712" lon="5.48631">
        <ele>1598.87</ele>
        <time>2019-09-29T11:56:12.000Z</time>
      </trkpt>
      <trkpt lat="44.79717" lon="5.48645">
        <ele>1598.94</ele>
        <time>2019-09-29T11:56:22.000Z</time>
      </trkpt>
      <trkpt lat="44.79721" lon="5.48659">
        <ele>1599.04</ele>
        <time>2019-09-29T11:56:32.000Z</time>
      </trkpt>
      <trkpt lat="44.79728" lon="5.48675">
        <ele>1599.08</ele>
        <time>2019-09-29T11:56:42.000Z</time>
      </trkpt>
      <trkpt lat="44.79735" lon="5.48687">
        <ele>1598.99</ele>
        <time>2019-09-29T11:56:52.000Z</time>
      </trkpt>
      <trkpt lat="44.79742" lon="5.48701">
        <ele>1598.87</ele>
        <time>2019-09-29T11:57:02.000Z</time>
      </trkpt>
      <trkpt lat="44.79748" lon="5.48718">
        <ele>1598.75</ele>
        <time>2019-09-29T11:57:12.000Z</time>
      </trkpt>
      <trkpt lat="44.79751" lon="5.48734">
        <ele>1598.76</ele>
        <time>2019-09-29T11:57:22.000Z</time>
      </trkpt>
      <trkpt lat="44.79757" lon="5.48747">
        <ele>1598.95</ele>
        <time>2019-09-29T11:57:32.000Z</time>
      </trkpt>
      <trkpt lat="44.79764" lon="5.48757">
        <ele>1599.24</ele>
        <time>2019-09-29T11:57:42.000Z</time>
      </trkpt>
      <trkpt lat="44.79772" lon="5.48768">
        <ele>1599.63</ele>
        <time>2019-09-29T11:57:52.000Z</time>
      </trkpt>
      <trkpt lat="44.79781" lon="5.48781">
        <ele>1600.03</ele>
        <time>2019-09-29T11:58:02.000Z</time>
      </trkpt>
      <trkpt lat="44.79786" lon="5.48796">
        <ele>1600.44</ele>
        <time>2019-09-29T11:58:12.000Z</time>
      </trkpt>
      <trkpt lat="44.7979" lon="5.48811">
        <ele>1600.8</ele>
        <time>2019-09-29T11:58:22.000Z</time>
      </trkpt>
      <trkpt lat="44.79791" lon="5.48826">
        <ele>1601.29</ele>
        <time>2019-09-29T11:58:32.000Z</time>
      </trkpt>
      <trkpt lat="44.79796" lon="5.48841">
        <ele>1601.58</ele>
        <time>2019-09-29T11:58:42.000Z</time>
      </trkpt>
      <trkpt lat="44.79797" lon="5.48855">
        <ele>1602.15</ele>
        <time>2019-09-29T11:58:52.000Z</time>
      </trkpt>
      <trkpt lat="44.79795" lon="5.48868">
        <ele>1602.91</ele>
        <time>2019-09-29T11:59:03.000Z</time>
      </trkpt>
      <trkpt lat="44.79798" lon="5.4888">
        <ele>1603.5</ele>
        <time>2019-09-29T11:59:13.000Z</time>
      </trkpt>
      <trkpt lat="44.79801" lon="5.48895">
        <ele>1604.16</ele>
        <time>2019-09-29T11:59:23.000Z</time>
      </trkpt>
      <trkpt lat="44.79805" lon="5.48908">
        <ele>1604.72</ele>
        <time>2019-09-29T11:59:33.000Z</time>
      </trkpt>
      <trkpt lat="44.7981" lon="5.48918">
        <ele>1605.08</ele>
        <time>2019-09-29T11:59:43.000Z</time>
      </trkpt>
      <trkpt lat="44.79813" lon="5.48931">
        <ele>1605.37</ele>
        <time>2019-09-29T11:59:53.000Z</time>
      </trkpt>
      <trkpt lat="44.79816" lon="5.48947">
        <ele>1605.57</ele>
        <time>2019-09-29T12:00:03.000Z</time>
      </trkpt>
      <trkpt lat="44.79823" lon="5.48959">
        <ele>1605.7</ele>
        <time>2019-09-29T12:00:13.000Z</time>
      </trkpt>
      <trkpt lat="44.79827" lon="5.48975">
        <ele>1605.8</ele>
        <time>2019-09-29T12:00:23.000Z</time>
      </trkpt>
      <trkpt lat="44.79829" lon="5.48989">
        <ele>1605.88</ele>
        <time>2019-09-29T12:00:33.000Z</time>
      </trkpt>
      <trkpt lat="44.79829" lon="5.49002">
        <ele>1606.01</ele>
        <time>2019-09-29T12:00:45.000Z</time>
      </trkpt>
      <trkpt lat="44.79828" lon="5.49016">
        <ele>1606.14</ele>
        <time>2019-09-29T12:00:55.000Z</time>
      </trkpt>
      <trkpt lat="44.79826" lon="5.4903">
        <ele>1606.24</ele>
        <time>2019-09-29T12:01:07.000Z</time>
      </trkpt>
      <trkpt lat="44.79829" lon="5.49044">
        <ele>1606.38</ele>
        <time>2019-09-29T12:01:17.000Z</time>
      </trkpt>
      <trkpt lat="44.79836" lon="5.49053">
        <ele>1606.5</ele>
        <time>2019-09-29T12:01:29.000Z</time>
      </trkpt>
      <trkpt lat="44.79846" lon="5.49057">
        <ele>1606.69</ele>
        <time>2019-09-29T12:01:39.000Z</time>
      </trkpt>
      <trkpt lat="44.79853" lon="5.49065">
        <ele>1607.04</ele>
        <time>2019-09-29T12:01:51.000Z</time>
      </trkpt>
      <trkpt lat="44.79857" lon="5.49078">
        <ele>1607.49</ele>
        <time>2019-09-29T12:02:03.000Z</time>
      </trkpt>
      <trkpt lat="44.79863" lon="5.4909">
        <ele>1608.03</ele>
        <time>2019-09-29T12:02:13.000Z</time>
      </trkpt>
      <trkpt lat="44.7987" lon="5.49106">
        <ele>1608.68</ele>
        <time>2019-09-29T12:02:23.000Z</time>
      </trkpt>
      <trkpt lat="44.79879" lon="5.49118">
        <ele>1609.24</ele>
        <time>2019-09-29T12:02:33.000Z</time>
      </trkpt>
      <trkpt lat="44.79886" lon="5.49132">
        <ele>1609.53</ele>
        <time>2019-09-29T12:02:43.000Z</time>
      </trkpt>
      <trkpt lat="44.79889" lon="5.49147">
        <ele>1609.64</ele>
        <time>2019-09-29T12:02:53.000Z</time>
      </trkpt>
      <trkpt lat="44.79896" lon="5.49158">
        <ele>1609.75</ele>
        <time>2019-09-29T12:03:03.000Z</time>
      </trkpt>
      <trkpt lat="44.79905" lon="5.49168">
        <ele>1609.9</ele>
        <time>2019-09-29T12:03:13.000Z</time>
      </trkpt>
      <trkpt lat="44.7991" lon="5.4918">
        <ele>1610.13</ele>
        <time>2019-09-29T12:03:23.000Z</time>
      </trkpt>
      <trkpt lat="44.79911" lon="5.49194">
        <ele>1610.39</ele>
        <time>2019-09-29T12:03:34.000Z</time>
      </trkpt>
      <trkpt lat="44.79915" lon="5.49206">
        <ele>1610.73</ele>
        <time>2019-09-29T12:03:44.000Z</time>
      </trkpt>
      <trkpt lat="44.79922" lon="5.49217">
        <ele>1611.12</ele>
        <time>2019-09-29T12:03:54.000Z</time>
      </trkpt>
      <trkpt lat="44.79925" lon="5.49228">
        <ele>1611.55</ele>
        <time>2019-09-29T12:04:05.000Z</time>
      </trkpt>
      <trkpt lat="44.79928" lon="5.49242">
        <ele>1612.03</ele>
        <time>2019-09-29T12:04:16.000Z</time>
      </trkpt>
      <trkpt lat="44.7993" lon="5.49257">
        <ele>1612.53</ele>
        <time>2019-09-29T12:04:26.000Z</time>
      </trkpt>
      <trkpt lat="44.79935" lon="5.49271">
        <ele>1613.09</ele>
        <time>2019-09-29T12:04:36.000Z</time>
      </trkpt>
      <trkpt lat="44.79938" lon="5.49283">
        <ele>1613.53</ele>
        <time>2019-09-29T12:04:46.000Z</time>
      </trkpt>
      <trkpt lat="44.7994" lon="5.49297">
        <ele>1613.98</ele>
        <time>2019-09-29T12:04:56.000Z</time>
      </trkpt>
      <trkpt lat="44.79934" lon="5.4931">
        <ele>1614.3</ele>
        <time>2019-09-29T12:05:06.000Z</time>
      </trkpt>
      <trkpt lat="44.79929" lon="5.49321">
        <ele>1614.63</ele>
        <time>2019-09-29T12:05:18.000Z</time>
      </trkpt>
      <trkpt lat="44.79928" lon="5.49334">
        <ele>1615.08</ele>
        <time>2019-09-29T12:05:28.000Z</time>
      </trkpt>
      <trkpt lat="44.7993" lon="5.49347">
        <ele>1615.56</ele>
        <time>2019-09-29T12:05:50.000Z</time>
      </trkpt>
      <trkpt lat="44.79926" lon="5.49364">
        <ele>1616.22</ele>
        <time>2019-09-29T12:06:00.000Z</time>
      </trkpt>
      <trkpt lat="44.79925" lon="5.49378">
        <ele>1616.76</ele>
        <time>2019-09-29T12:06:10.000Z</time>
      </trkpt>
      <trkpt lat="44.79924" lon="5.49392">
        <ele>1617.29</ele>
        <time>2019-09-29T12:06:23.000Z</time>
      </trkpt>
      <trkpt lat="44.79923" lon="5.49407">
        <ele>1617.77</ele>
        <time>2019-09-29T12:06:33.000Z</time>
      </trkpt>
      <trkpt lat="44.79929" lon="5.49419">
        <ele>1618.2</ele>
        <time>2019-09-29T12:06:43.000Z</time>
      </trkpt>
      <trkpt lat="44.79937" lon="5.49433">
        <ele>1618.62</ele>
        <time>2019-09-29T12:06:53.000Z</time>
      </trkpt>
      <trkpt lat="44.79944" lon="5.49446">
        <ele>1618.96</ele>
        <time>2019-09-29T12:07:03.000Z</time>
      </trkpt>
      <trkpt lat="44.79952" lon="5.49459">
        <ele>1619.26</ele>
        <time>2019-09-29T12:07:13.000Z</time>
      </trkpt>
      <trkpt lat="44.79959" lon="5.49471">
        <ele>1619.5</ele>
        <time>2019-09-29T12:07:23.000Z</time>
      </trkpt>
      <trkpt lat="44.79968" lon="5.49482">
        <ele>1619.72</ele>
        <time>2019-09-29T12:07:33.000Z</time>
      </trkpt>
      <trkpt lat="44.79973" lon="5.49496">
        <ele>1619.94</ele>
        <time>2019-09-29T12:07:43.000Z</time>
      </trkpt>
      <trkpt lat="44.7998" lon="5.49509">
        <ele>1620.07</ele>
        <time>2019-09-29T12:07:53.000Z</time>
      </trkpt>
      <trkpt lat="44.79985" lon="5.49523">
        <ele>1620.06</ele>
        <time>2019-09-29T12:08:03.000Z</time>
      </trkpt>
      <trkpt lat="44.79989" lon="5.49538">
        <ele>1619.95</ele>
        <time>2019-09-29T12:08:13.000Z</time>
      </trkpt>
      <trkpt lat="44.79995" lon="5.49551">
        <ele>1619.86</ele>
        <time>2019-09-29T12:08:23.000Z</time>
      </trkpt>
      <trkpt lat="44.80001" lon="5.49565">
        <ele>1619.84</ele>
        <time>2019-09-29T12:08:33.000Z</time>
      </trkpt>
      <trkpt lat="44.80007" lon="5.49579">
        <ele>1619.96</ele>
        <time>2019-09-29T12:08:43.000Z</time>
      </trkpt>
      <trkpt lat="44.80014" lon="5.4959">
        <ele>1620.23</ele>
        <time>2019-09-29T12:08:53.000Z</time>
      </trkpt>
      <trkpt lat="44.80023" lon="5.49599">
        <ele>1620.54</ele>
        <time>2019-09-29T12:09:03.000Z</time>
      </trkpt>
      <trkpt lat="44.80034" lon="5.49605">
        <ele>1620.82</ele>
        <time>2019-09-29T12:09:13.000Z</time>
      </trkpt>
      <trkpt lat="44.80041" lon="5.49618">
        <ele>1621.4</ele>
        <time>2019-09-29T12:09:23.000Z</time>
      </trkpt>
      <trkpt lat="44.80049" lon="5.49624">
        <ele>1621.77</ele>
        <time>2019-09-29T12:09:35.000Z</time>
      </trkpt>
      <trkpt lat="44.80057" lon="5.49636">
        <ele>1622.37</ele>
        <time>2019-09-29T12:09:45.000Z</time>
      </trkpt>
      <trkpt lat="44.80063" lon="5.49647">
        <ele>1622.94</ele>
        <time>2019-09-29T12:09:55.000Z</time>
      </trkpt>
      <trkpt lat="44.80069" lon="5.49658">
        <ele>1623.47</ele>
        <time>2019-09-29T12:10:05.000Z</time>
      </trkpt>
      <trkpt lat="44.80078" lon="5.4967">
        <ele>1624.08</ele>
        <time>2019-09-29T12:10:15.000Z</time>
      </trkpt>
      <trkpt lat="44.80089" lon="5.49682">
        <ele>1624.67</ele>
        <time>2019-09-29T12:10:25.000Z</time>
      </trkpt>
      <trkpt lat="44.80096" lon="5.49692">
        <ele>1625.08</ele>
        <time>2019-09-29T12:10:35.000Z</time>
      </trkpt>
      <trkpt lat="44.80104" lon="5.49704">
        <ele>1625.47</ele>
        <time>2019-09-29T12:10:45.000Z</time>
      </trkpt>
      <trkpt lat="44.80111" lon="5.49715">
        <ele>1625.72</ele>
        <time>2019-09-29T12:10:55.000Z</time>
      </trkpt>
      <trkpt lat="44.80117" lon="5.49728">
        <ele>1625.85</ele>
        <time>2019-09-29T12:11:05.000Z</time>
      </trkpt>
      <trkpt lat="44.80125" lon="5.49737">
        <ele>1625.7</ele>
        <time>2019-09-29T12:11:15.000Z</time>
      </trkpt>
      <trkpt lat="44.80133" lon="5.4975">
        <ele>1625.56</ele>
        <time>2019-09-29T12:11:25.000Z</time>
      </trkpt>
      <trkpt lat="44.80141" lon="5.4976">
        <ele>1625.42</ele>
        <time>2019-09-29T12:11:35.000Z</time>
      </trkpt>
      <trkpt lat="44.80149" lon="5.49774">
        <ele>1625.47</ele>
        <time>2019-09-29T12:11:45.000Z</time>
      </trkpt>
      <trkpt lat="44.80156" lon="5.49785">
        <ele>1625.69</ele>
        <time>2019-09-29T12:11:55.000Z</time>
      </trkpt>
      <trkpt lat="44.80165" lon="5.49798">
        <ele>1626.15</ele>
        <time>2019-09-29T12:12:05.000Z</time>
      </trkpt>
      <trkpt lat="44.80172" lon="5.49813">
        <ele>1626.76</ele>
        <time>2019-09-29T12:12:15.000Z</time>
      </trkpt>
      <trkpt lat="44.80176" lon="5.49829">
        <ele>1627.24</ele>
        <time>2019-09-29T12:12:25.000Z</time>
      </trkpt>
      <trkpt lat="44.80181" lon="5.49843">
        <ele>1627.56</ele>
        <time>2019-09-29T12:12:35.000Z</time>
      </trkpt>
      <trkpt lat="44.80189" lon="5.49856">
        <ele>1627.88</ele>
        <time>2019-09-29T12:12:45.000Z</time>
      </trkpt>
      <trkpt lat="44.80196" lon="5.49867">
        <ele>1628.14</ele>
        <time>2019-09-29T12:12:55.000Z</time>
      </trkpt>
      <trkpt lat="44.80203" lon="5.4988">
        <ele>1628.31</ele>
        <time>2019-09-29T12:13:05.000Z</time>
      </trkpt>
      <trkpt lat="44.80212" lon="5.49889">
        <ele>1628.5</ele>
        <time>2019-09-29T12:13:15.000Z</time>
      </trkpt>
      <trkpt lat="44.80221" lon="5.499">
        <ele>1628.61</ele>
        <time>2019-09-29T12:13:25.000Z</time>
      </trkpt>
      <trkpt lat="44.80226" lon="5.49913">
        <ele>1628.56</ele>
        <time>2019-09-29T12:13:35.000Z</time>
      </trkpt>
      <trkpt lat="44.80231" lon="5.49926">
        <ele>1628.43</ele>
        <time>2019-09-29T12:13:45.000Z</time>
      </trkpt>
      <trkpt lat="44.80237" lon="5.49941">
        <ele>1628.23</ele>
        <time>2019-09-29T12:13:55.000Z</time>
      </trkpt>
      <trkpt lat="44.80247" lon="5.49951">
        <ele>1628.18</ele>
        <time>2019-09-29T12:14:05.000Z</time>
      </trkpt>
      <trkpt lat="44.80256" lon="5.49964">
        <ele>1628.07</ele>
        <time>2019-09-29T12:14:15.000Z</time>
      </trkpt>
      <trkpt lat="44.80264" lon="5.49976">
        <ele>1628</ele>
        <time>2019-09-29T12:14:25.000Z</time>
      </trkpt>
      <trkpt lat="44.80272" lon="5.49989">
        <ele>1628.01</ele>
        <time>2019-09-29T12:14:35.000Z</time>
      </trkpt>
      <trkpt lat="44.8028" lon="5.49999">
        <ele>1628.15</ele>
        <time>2019-09-29T12:14:45.000Z</time>
      </trkpt>
      <trkpt lat="44.80287" lon="5.50013">
        <ele>1628.24</ele>
        <time>2019-09-29T12:14:55.000Z</time>
      </trkpt>
      <trkpt lat="44.80294" lon="5.50027">
        <ele>1628.38</ele>
        <time>2019-09-29T12:15:05.000Z</time>
      </trkpt>
      <trkpt lat="44.80301" lon="5.50039">
        <ele>1628.62</ele>
        <time>2019-09-29T12:15:15.000Z</time>
      </trkpt>
      <trkpt lat="44.8031" lon="5.50049">
        <ele>1629</ele>
        <time>2019-09-29T12:15:25.000Z</time>
      </trkpt>
      <trkpt lat="44.80318" lon="5.50062">
        <ele>1629.39</ele>
        <time>2019-09-29T12:15:35.000Z</time>
      </trkpt>
      <trkpt lat="44.80326" lon="5.50075">
        <ele>1629.73</ele>
        <time>2019-09-29T12:15:45.000Z</time>
      </trkpt>
      <trkpt lat="44.80335" lon="5.50087">
        <ele>1630.05</ele>
        <time>2019-09-29T12:15:55.000Z</time>
      </trkpt>
      <trkpt lat="44.80344" lon="5.50099">
        <ele>1630.25</ele>
        <time>2019-09-29T12:16:05.000Z</time>
      </trkpt>
      <trkpt lat="44.80351" lon="5.50112">
        <ele>1630.33</ele>
        <time>2019-09-29T12:16:15.000Z</time>
      </trkpt>
      <trkpt lat="44.80357" lon="5.50124">
        <ele>1630.37</ele>
        <time>2019-09-29T12:16:25.000Z</time>
      </trkpt>
      <trkpt lat="44.80365" lon="5.50134">
        <ele>1630.35</ele>
        <time>2019-09-29T12:16:35.000Z</time>
      </trkpt>
      <trkpt lat="44.80376" lon="5.50142">
        <ele>1630.28</ele>
        <time>2019-09-29T12:16:45.000Z</time>
      </trkpt>
      <trkpt lat="44.80386" lon="5.50154">
        <ele>1630.18</ele>
        <time>2019-09-29T12:16:55.000Z</time>
      </trkpt>
      <trkpt lat="44.80395" lon="5.50165">
        <ele>1630.12</ele>
        <time>2019-09-29T12:17:05.000Z</time>
      </trkpt>
      <trkpt lat="44.80402" lon="5.50176">
        <ele>1630.11</ele>
        <time>2019-09-29T12:17:15.000Z</time>
      </trkpt>
      <trkpt lat="44.80413" lon="5.50184">
        <ele>1630.11</ele>
        <time>2019-09-29T12:17:25.000Z</time>
      </trkpt>
      <trkpt lat="44.80424" lon="5.50187">
        <ele>1630.13</ele>
        <time>2019-09-29T12:17:35.000Z</time>
      </trkpt>
      <trkpt lat="44.80436" lon="5.50189">
        <ele>1630.13</ele>
        <time>2019-09-29T12:17:45.000Z</time>
      </trkpt>
      <trkpt lat="44.80447" lon="5.5019">
        <ele>1630.11</ele>
        <time>2019-09-29T12:17:55.000Z</time>
      </trkpt>
      <trkpt lat="44.80457" lon="5.50197">
        <ele>1630.12</ele>
        <time>2019-09-29T12:18:05.000Z</time>
      </trkpt>
      <trkpt lat="44.80464" lon="5.50207">
        <ele>1630.14</ele>
        <time>2019-09-29T12:18:15.000Z</time>
      </trkpt>
      <trkpt lat="44.80475" lon="5.50215">
        <ele>1630.11</ele>
        <time>2019-09-29T12:18:25.000Z</time>
      </trkpt>
      <trkpt lat="44.80487" lon="5.50222">
        <ele>1630.06</ele>
        <time>2019-09-29T12:18:35.000Z</time>
      </trkpt>
      <trkpt lat="44.80497" lon="5.5023">
        <ele>1630.01</ele>
        <time>2019-09-29T12:18:45.000Z</time>
      </trkpt>
      <trkpt lat="44.80508" lon="5.50237">
        <ele>1629.97</ele>
        <time>2019-09-29T12:18:55.000Z</time>
      </trkpt>
      <trkpt lat="44.80517" lon="5.50245">
        <ele>1629.94</ele>
        <time>2019-09-29T12:19:05.000Z</time>
      </trkpt>
      <trkpt lat="44.80524" lon="5.50256">
        <ele>1629.91</ele>
        <time>2019-09-29T12:19:15.000Z</time>
      </trkpt>
      <trkpt lat="44.8053" lon="5.50268">
        <ele>1629.86</ele>
        <time>2019-09-29T12:19:25.000Z</time>
      </trkpt>
      <trkpt lat="44.80533" lon="5.50287">
        <ele>1629.76</ele>
        <time>2019-09-29T12:19:35.000Z</time>
      </trkpt>
      <trkpt lat="44.80539" lon="5.50302">
        <ele>1629.72</ele>
        <time>2019-09-29T12:19:45.000Z</time>
      </trkpt>
      <trkpt lat="44.80544" lon="5.50315">
        <ele>1629.74</ele>
        <time>2019-09-29T12:19:55.000Z</time>
      </trkpt>
      <trkpt lat="44.80549" lon="5.50331">
        <ele>1629.79</ele>
        <time>2019-09-29T12:20:05.000Z</time>
      </trkpt>
      <trkpt lat="44.80554" lon="5.50347">
        <ele>1629.86</ele>
        <time>2019-09-29T12:20:15.000Z</time>
      </trkpt>
      <trkpt lat="44.80562" lon="5.5036">
        <ele>1629.87</ele>
        <time>2019-09-29T12:20:25.000Z</time>
      </trkpt>
      <trkpt lat="44.80569" lon="5.50373">
        <ele>1629.83</ele>
        <time>2019-09-29T12:20:35.000Z</time>
      </trkpt>
      <trkpt lat="44.80576" lon="5.50385">
        <ele>1629.79</ele>
        <time>2019-09-29T12:20:45.000Z</time>
      </trkpt>
      <trkpt lat="44.80586" lon="5.50397">
        <ele>1629.79</ele>
        <time>2019-09-29T12:20:55.000Z</time>
      </trkpt>
      <trkpt lat="44.8059" lon="5.50409">
        <ele>1629.87</ele>
        <time>2019-09-29T12:21:05.000Z</time>
      </trkpt>
      <trkpt lat="44.80595" lon="5.50423">
        <ele>1630.07</ele>
        <time>2019-09-29T12:21:15.000Z</time>
      </trkpt>
      <trkpt lat="44.80602" lon="5.50437">
        <ele>1630.32</ele>
        <time>2019-09-29T12:21:25.000Z</time>
      </trkpt>
      <trkpt lat="44.80609" lon="5.50451">
        <ele>1630.56</ele>
        <time>2019-09-29T12:21:35.000Z</time>
      </trkpt>
      <trkpt lat="44.80612" lon="5.50467">
        <ele>1630.88</ele>
        <time>2019-09-29T12:21:45.000Z</time>
      </trkpt>
      <trkpt lat="44.80617" lon="5.50481">
        <ele>1631.09</ele>
        <time>2019-09-29T12:21:55.000Z</time>
      </trkpt>
      <trkpt lat="44.80619" lon="5.50496">
        <ele>1631.36</ele>
        <time>2019-09-29T12:22:05.000Z</time>
      </trkpt>
      <trkpt lat="44.80619" lon="5.50513">
        <ele>1631.78</ele>
        <time>2019-09-29T12:22:15.000Z</time>
      </trkpt>
      <trkpt lat="44.80619" lon="5.50526">
        <ele>1632.21</ele>
        <time>2019-09-29T12:22:28.000Z</time>
      </trkpt>
      <trkpt lat="44.8062" lon="5.5054">
        <ele>1632.63</ele>
        <time>2019-09-29T12:22:38.000Z</time>
      </trkpt>
      <trkpt lat="44.80623" lon="5.50555">
        <ele>1632.96</ele>
        <time>2019-09-29T12:22:48.000Z</time>
      </trkpt>
      <trkpt lat="44.80628" lon="5.50572">
        <ele>1633.05</ele>
        <time>2019-09-29T12:22:58.000Z</time>
      </trkpt>
      <trkpt lat="44.80627" lon="5.50586">
        <ele>1633.29</ele>
        <time>2019-09-29T12:23:08.000Z</time>
      </trkpt>
      <trkpt lat="44.80627" lon="5.50603">
        <ele>1633.32</ele>
        <time>2019-09-29T12:23:18.000Z</time>
      </trkpt>
      <trkpt lat="44.80621" lon="5.5062">
        <ele>1633.62</ele>
        <time>2019-09-29T12:23:28.000Z</time>
      </trkpt>
      <trkpt lat="44.80616" lon="5.50635">
        <ele>1633.78</ele>
        <time>2019-09-29T12:23:38.000Z</time>
      </trkpt>
      <trkpt lat="44.80614" lon="5.50653">
        <ele>1633.67</ele>
        <time>2019-09-29T12:23:48.000Z</time>
      </trkpt>
      <trkpt lat="44.80614" lon="5.5067">
        <ele>1633.43</ele>
        <time>2019-09-29T12:23:58.000Z</time>
      </trkpt>
      <trkpt lat="44.80612" lon="5.50688">
        <ele>1633.32</ele>
        <time>2019-09-29T12:24:08.000Z</time>
      </trkpt>
      <trkpt lat="44.8061" lon="5.50704">
        <ele>1633.22</ele>
        <time>2019-09-29T12:24:18.000Z</time>
      </trkpt>
      <trkpt lat="44.8061" lon="5.50717">
        <ele>1632.93</ele>
        <time>2019-09-29T12:24:28.000Z</time>
      </trkpt>
      <trkpt lat="44.80606" lon="5.50728">
        <ele>1633.07</ele>
        <time>2019-09-29T12:24:38.000Z</time>
      </trkpt>
      <trkpt lat="44.80603" lon="5.50744">
        <ele>1633.03</ele>
        <time>2019-09-29T12:24:48.000Z</time>
      </trkpt>
      <trkpt lat="44.80601" lon="5.50759">
        <ele>1633.11</ele>
        <time>2019-09-29T12:24:58.000Z</time>
      </trkpt>
      <trkpt lat="44.80595" lon="5.50773">
        <ele>1633.42</ele>
        <time>2019-09-29T12:25:08.000Z</time>
      </trkpt>
      <trkpt lat="44.80591" lon="5.50785">
        <ele>1633.66</ele>
        <time>2019-09-29T12:25:19.000Z</time>
      </trkpt>
      <trkpt lat="44.80586" lon="5.50796">
        <ele>1634.05</ele>
        <time>2019-09-29T12:25:38.000Z</time>
      </trkpt>
      <trkpt lat="44.80585" lon="5.50809">
        <ele>1634.29</ele>
        <time>2019-09-29T12:25:49.000Z</time>
      </trkpt>
      <trkpt lat="44.8058" lon="5.50824">
        <ele>1634.91</ele>
        <time>2019-09-29T12:25:59.000Z</time>
      </trkpt>
      <trkpt lat="44.80576" lon="5.50836">
        <ele>1635.58</ele>
        <time>2019-09-29T12:26:11.000Z</time>
      </trkpt>
      <trkpt lat="44.80574" lon="5.50849">
        <ele>1636.46</ele>
        <time>2019-09-29T12:26:21.000Z</time>
      </trkpt>
      <trkpt lat="44.80572" lon="5.50863">
        <ele>1637.57</ele>
        <time>2019-09-29T12:26:31.000Z</time>
      </trkpt>
      <trkpt lat="44.80569" lon="5.50876">
        <ele>1639.01</ele>
        <time>2019-09-29T12:26:41.000Z</time>
      </trkpt>
      <trkpt lat="44.80564" lon="5.50888">
        <ele>1640.56</ele>
        <time>2019-09-29T12:26:52.000Z</time>
      </trkpt>
      <trkpt lat="44.80561" lon="5.509">
        <ele>1642.16</ele>
        <time>2019-09-29T12:27:03.000Z</time>
      </trkpt>
      <trkpt lat="44.80562" lon="5.50914">
        <ele>1643.01</ele>
        <time>2019-09-29T12:27:13.000Z</time>
      </trkpt>
      <trkpt lat="44.8056" lon="5.50928">
        <ele>1644.34</ele>
        <time>2019-09-29T12:27:23.000Z</time>
      </trkpt>
      <trkpt lat="44.80559" lon="5.50943">
        <ele>1645.65</ele>
        <time>2019-09-29T12:27:33.000Z</time>
      </trkpt>
      <trkpt lat="44.80561" lon="5.50958">
        <ele>1646.28</ele>
        <time>2019-09-29T12:27:43.000Z</time>
      </trkpt>
      <trkpt lat="44.8056" lon="5.50976">
        <ele>1647.27</ele>
        <time>2019-09-29T12:27:53.000Z</time>
      </trkpt>
      <trkpt lat="44.80558" lon="5.50992">
        <ele>1648.42</ele>
        <time>2019-09-29T12:28:03.000Z</time>
      </trkpt>
      <trkpt lat="44.8055" lon="5.51003">
        <ele>1650.43</ele>
        <time>2019-09-29T12:28:13.000Z</time>
      </trkpt>
      <trkpt lat="44.80544" lon="5.51015">
        <ele>1652.06</ele>
        <time>2019-09-29T12:28:25.000Z</time>
      </trkpt>
      <trkpt lat="44.80544" lon="5.51029">
        <ele>1652.45</ele>
        <time>2019-09-29T12:28:35.000Z</time>
      </trkpt>
      <trkpt lat="44.80545" lon="5.51015">
        <ele>1651.86</ele>
        <time>2019-09-29T12:28:56.000Z</time>
      </trkpt>
      <trkpt lat="44.80553" lon="5.5101">
        <ele>1649.64</ele>
        <time>2019-09-29T12:29:12.000Z</time>
      </trkpt>
      <trkpt lat="44.80562" lon="5.51017">
        <ele>1647.68</ele>
        <time>2019-09-29T12:29:35.000Z</time>
      </trkpt>
      <trkpt lat="44.80568" lon="5.51027">
        <ele>1646.05</ele>
        <time>2019-09-29T12:29:52.000Z</time>
      </trkpt>
      <trkpt lat="44.80575" lon="5.51036">
        <ele>1644.32</ele>
        <time>2019-09-29T12:30:07.000Z</time>
      </trkpt>
      <trkpt lat="44.80577" lon="5.51049">
        <ele>1643.35</ele>
        <time>2019-09-29T12:30:28.000Z</time>
      </trkpt>
      <trkpt lat="44.80582" lon="5.5106">
        <ele>1641.63</ele>
        <time>2019-09-29T12:35:42.000Z</time>
      </trkpt>
      <trkpt lat="44.80576" lon="5.51051">
        <ele>1643.47</ele>
        <time>2019-09-29T12:50:27.000Z</time>
      </trkpt>
      <trkpt lat="44.80573" lon="5.51039">
        <ele>1644.69</ele>
        <time>2019-09-29T12:50:40.000Z</time>
      </trkpt>
      <trkpt lat="44.80567" lon="5.51028">
        <ele>1646.3</ele>
        <time>2019-09-29T12:50:53.000Z</time>
      </trkpt>
      <trkpt lat="44.8056" lon="5.51019">
        <ele>1648.15</ele>
        <time>2019-09-29T12:51:03.000Z</time>
      </trkpt>
      <trkpt lat="44.80555" lon="5.51008">
        <ele>1649.28</ele>
        <time>2019-09-29T12:51:21.000Z</time>
      </trkpt>
      <trkpt lat="44.80553" lon="5.50995">
        <ele>1649.49</ele>
        <time>2019-09-29T12:51:31.000Z</time>
      </trkpt>
      <trkpt lat="44.80558" lon="5.50979">
        <ele>1647.94</ele>
        <time>2019-09-29T12:51:41.000Z</time>
      </trkpt>
      <trkpt lat="44.80558" lon="5.50961">
        <ele>1646.93</ele>
        <time>2019-09-29T12:51:51.000Z</time>
      </trkpt>
      <trkpt lat="44.80556" lon="5.50944">
        <ele>1646.13</ele>
        <time>2019-09-29T12:52:01.000Z</time>
      </trkpt>
      <trkpt lat="44.8056" lon="5.50928">
        <ele>1644.24</ele>
        <time>2019-09-29T12:52:11.000Z</time>
      </trkpt>
      <trkpt lat="44.80561" lon="5.50913">
        <ele>1643.15</ele>
        <time>2019-09-29T12:52:21.000Z</time>
      </trkpt>
      <trkpt lat="44.80561" lon="5.509">
        <ele>1642.03</ele>
        <time>2019-09-29T12:52:31.000Z</time>
      </trkpt>
      <trkpt lat="44.80564" lon="5.50885">
        <ele>1640.34</ele>
        <time>2019-09-29T12:52:41.000Z</time>
      </trkpt>
      <trkpt lat="44.8057" lon="5.50873">
        <ele>1638.64</ele>
        <time>2019-09-29T12:52:51.000Z</time>
      </trkpt>
      <trkpt lat="44.80572" lon="5.50857">
        <ele>1637.18</ele>
        <time>2019-09-29T12:53:01.000Z</time>
      </trkpt>
      <trkpt lat="44.80576" lon="5.50844">
        <ele>1636.01</ele>
        <time>2019-09-29T12:53:11.000Z</time>
      </trkpt>
      <trkpt lat="44.80578" lon="5.5083">
        <ele>1635.24</ele>
        <time>2019-09-29T12:53:23.000Z</time>
      </trkpt>
      <trkpt lat="44.80582" lon="5.50816">
        <ele>1634.55</ele>
        <time>2019-09-29T12:53:33.000Z</time>
      </trkpt>
      <trkpt lat="44.80582" lon="5.50801">
        <ele>1634.29</ele>
        <time>2019-09-29T12:53:43.000Z</time>
      </trkpt>
      <trkpt lat="44.80588" lon="5.5079">
        <ele>1633.89</ele>
        <time>2019-09-29T12:54:00.000Z</time>
      </trkpt>
      <trkpt lat="44.80595" lon="5.50781">
        <ele>1633.43</ele>
        <time>2019-09-29T12:54:10.000Z</time>
      </trkpt>
      <trkpt lat="44.80597" lon="5.50769">
        <ele>1633.31</ele>
        <time>2019-09-29T12:54:21.000Z</time>
      </trkpt>
      <trkpt lat="44.80602" lon="5.50753">
        <ele>1633.09</ele>
        <time>2019-09-29T12:54:31.000Z</time>
      </trkpt>
      <trkpt lat="44.80604" lon="5.50737">
        <ele>1633.07</ele>
        <time>2019-09-29T12:54:41.000Z</time>
      </trkpt>
      <trkpt lat="44.80605" lon="5.50722">
        <ele>1633.24</ele>
        <time>2019-09-29T12:54:51.000Z</time>
      </trkpt>
      <trkpt lat="44.80607" lon="5.50709">
        <ele>1633.34</ele>
        <time>2019-09-29T12:55:01.000Z</time>
      </trkpt>
      <trkpt lat="44.80611" lon="5.50695">
        <ele>1633.33</ele>
        <time>2019-09-29T12:55:11.000Z</time>
      </trkpt>
      <trkpt lat="44.80612" lon="5.50678">
        <ele>1633.53</ele>
        <time>2019-09-29T12:55:21.000Z</time>
      </trkpt>
      <trkpt lat="44.80612" lon="5.50659">
        <ele>1633.76</ele>
        <time>2019-09-29T12:55:31.000Z</time>
      </trkpt>
      <trkpt lat="44.80617" lon="5.50642">
        <ele>1633.66</ele>
        <time>2019-09-29T12:55:41.000Z</time>
      </trkpt>
      <trkpt lat="44.80622" lon="5.50626">
        <ele>1633.5</ele>
        <time>2019-09-29T12:55:51.000Z</time>
      </trkpt>
      <trkpt lat="44.80626" lon="5.50606">
        <ele>1633.39</ele>
        <time>2019-09-29T12:56:01.000Z</time>
      </trkpt>
      <trkpt lat="44.80628" lon="5.50591">
        <ele>1633.28</ele>
        <time>2019-09-29T12:56:11.000Z</time>
      </trkpt>
      <trkpt lat="44.80628" lon="5.50577">
        <ele>1633.12</ele>
        <time>2019-09-29T12:56:21.000Z</time>
      </trkpt>
      <trkpt lat="44.80625" lon="5.50559">
        <ele>1632.96</ele>
        <time>2019-09-29T12:56:31.000Z</time>
      </trkpt>
      <trkpt lat="44.8062" lon="5.50544">
        <ele>1632.81</ele>
        <time>2019-09-29T12:56:41.000Z</time>
      </trkpt>
      <trkpt lat="44.80618" lon="5.50524">
        <ele>1632.22</ele>
        <time>2019-09-29T12:56:51.000Z</time>
      </trkpt>
      <trkpt lat="44.80619" lon="5.50507">
        <ele>1631.6</ele>
        <time>2019-09-29T12:57:01.000Z</time>
      </trkpt>
      <trkpt lat="44.80616" lon="5.50491">
        <ele>1631.35</ele>
        <time>2019-09-29T12:57:11.000Z</time>
      </trkpt>
      <trkpt lat="44.80613" lon="5.50477">
        <ele>1631.09</ele>
        <time>2019-09-29T12:57:21.000Z</time>
      </trkpt>
      <trkpt lat="44.80608" lon="5.5046">
        <ele>1630.79</ele>
        <time>2019-09-29T12:57:31.000Z</time>
      </trkpt>
      <trkpt lat="44.80604" lon="5.50447">
        <ele>1630.54</ele>
        <time>2019-09-29T12:57:41.000Z</time>
      </trkpt>
      <trkpt lat="44.80597" lon="5.50435">
        <ele>1630.31</ele>
        <time>2019-09-29T12:57:51.000Z</time>
      </trkpt>
      <trkpt lat="44.80592" lon="5.50421">
        <ele>1630.03</ele>
        <time>2019-09-29T12:58:01.000Z</time>
      </trkpt>
      <trkpt lat="44.80586" lon="5.50407">
        <ele>1629.86</ele>
        <time>2019-09-29T12:58:11.000Z</time>
      </trkpt>
      <trkpt lat="44.8058" lon="5.50393">
        <ele>1629.79</ele>
        <time>2019-09-29T12:58:21.000Z</time>
      </trkpt>
      <trkpt lat="44.80573" lon="5.50383">
        <ele>1629.81</ele>
        <time>2019-09-29T12:58:31.000Z</time>
      </trkpt>
      <trkpt lat="44.80565" lon="5.50368">
        <ele>1629.85</ele>
        <time>2019-09-29T12:58:41.000Z</time>
      </trkpt>
      <trkpt lat="44.80557" lon="5.50351">
        <ele>1629.87</ele>
        <time>2019-09-29T12:58:51.000Z</time>
      </trkpt>
      <trkpt lat="44.8055" lon="5.50338">
        <ele>1629.82</ele>
        <time>2019-09-29T12:59:01.000Z</time>
      </trkpt>
      <trkpt lat="44.80547" lon="5.50323">
        <ele>1629.76</ele>
        <time>2019-09-29T12:59:11.000Z</time>
      </trkpt>
      <trkpt lat="44.8054" lon="5.50307">
        <ele>1629.72</ele>
        <time>2019-09-29T12:59:21.000Z</time>
      </trkpt>
      <trkpt lat="44.80533" lon="5.5029">
        <ele>1629.75</ele>
        <time>2019-09-29T12:59:31.000Z</time>
      </trkpt>
      <trkpt lat="44.80528" lon="5.50275">
        <ele>1629.82</ele>
        <time>2019-09-29T12:59:41.000Z</time>
      </trkpt>
      <trkpt lat="44.80524" lon="5.50263">
        <ele>1629.88</ele>
        <time>2019-09-29T12:59:51.000Z</time>
      </trkpt>
      <trkpt lat="44.80517" lon="5.50253">
        <ele>1629.93</ele>
        <time>2019-09-29T13:00:01.000Z</time>
      </trkpt>
      <trkpt lat="44.80505" lon="5.50243">
        <ele>1629.98</ele>
        <time>2019-09-29T13:00:11.000Z</time>
      </trkpt>
      <trkpt lat="44.80495" lon="5.50234">
        <ele>1630.02</ele>
        <time>2019-09-29T13:00:21.000Z</time>
      </trkpt>
      <trkpt lat="44.80485" lon="5.50225">
        <ele>1630.07</ele>
        <time>2019-09-29T13:00:31.000Z</time>
      </trkpt>
      <trkpt lat="44.80474" lon="5.50217">
        <ele>1630.13</ele>
        <time>2019-09-29T13:00:41.000Z</time>
      </trkpt>
      <trkpt lat="44.80463" lon="5.50211">
        <ele>1630.16</ele>
        <time>2019-09-29T13:00:51.000Z</time>
      </trkpt>
      <trkpt lat="44.80455" lon="5.50204">
        <ele>1630.17</ele>
        <time>2019-09-29T13:01:01.000Z</time>
      </trkpt>
      <trkpt lat="44.80447" lon="5.50194">
        <ele>1630.13</ele>
        <time>2019-09-29T13:01:11.000Z</time>
      </trkpt>
      <trkpt lat="44.80438" lon="5.50191">
        <ele>1630.13</ele>
        <time>2019-09-29T13:01:21.000Z</time>
      </trkpt>
      <trkpt lat="44.80426" lon="5.5019">
        <ele>1630.15</ele>
        <time>2019-09-29T13:01:31.000Z</time>
      </trkpt>
      <trkpt lat="44.80415" lon="5.50189">
        <ele>1630.15</ele>
        <time>2019-09-29T13:01:41.000Z</time>
      </trkpt>
      <trkpt lat="44.80404" lon="5.50185">
        <ele>1630.16</ele>
        <time>2019-09-29T13:01:51.000Z</time>
      </trkpt>
      <trkpt lat="44.80396" lon="5.50173">
        <ele>1630.15</ele>
        <time>2019-09-29T13:02:01.000Z</time>
      </trkpt>
      <trkpt lat="44.80389" lon="5.50161">
        <ele>1630.16</ele>
        <time>2019-09-29T13:02:11.000Z</time>
      </trkpt>
      <trkpt lat="44.80379" lon="5.50149">
        <ele>1630.25</ele>
        <time>2019-09-29T13:02:21.000Z</time>
      </trkpt>
      <trkpt lat="44.80368" lon="5.50139">
        <ele>1630.34</ele>
        <time>2019-09-29T13:02:31.000Z</time>
      </trkpt>
      <trkpt lat="44.8036" lon="5.50131">
        <ele>1630.37</ele>
        <time>2019-09-29T13:02:41.000Z</time>
      </trkpt>
      <trkpt lat="44.8035" lon="5.50117">
        <ele>1630.32</ele>
        <time>2019-09-29T13:02:51.000Z</time>
      </trkpt>
      <trkpt lat="44.80344" lon="5.50105">
        <ele>1630.25</ele>
        <time>2019-09-29T13:03:01.000Z</time>
      </trkpt>
      <trkpt lat="44.80336" lon="5.50091">
        <ele>1630.06</ele>
        <time>2019-09-29T13:03:11.000Z</time>
      </trkpt>
      <trkpt lat="44.80329" lon="5.50078">
        <ele>1629.83</ele>
        <time>2019-09-29T13:03:21.000Z</time>
      </trkpt>
      <trkpt lat="44.80319" lon="5.50066">
        <ele>1629.43</ele>
        <time>2019-09-29T13:03:31.000Z</time>
      </trkpt>
      <trkpt lat="44.80311" lon="5.50054">
        <ele>1629.03</ele>
        <time>2019-09-29T13:03:41.000Z</time>
      </trkpt>
      <trkpt lat="44.80305" lon="5.50043">
        <ele>1628.79</ele>
        <time>2019-09-29T13:03:54.000Z</time>
      </trkpt>
      <trkpt lat="44.80297" lon="5.50032">
        <ele>1628.45</ele>
        <time>2019-09-29T13:04:04.000Z</time>
      </trkpt>
      <trkpt lat="44.80289" lon="5.50017">
        <ele>1628.27</ele>
        <time>2019-09-29T13:04:14.000Z</time>
      </trkpt>
      <trkpt lat="44.80281" lon="5.50004">
        <ele>1628.11</ele>
        <time>2019-09-29T13:04:24.000Z</time>
      </trkpt>
      <trkpt lat="44.80271" lon="5.4999">
        <ele>1627.94</ele>
        <time>2019-09-29T13:04:34.000Z</time>
      </trkpt>
      <trkpt lat="44.80264" lon="5.49979">
        <ele>1627.93</ele>
        <time>2019-09-29T13:04:44.000Z</time>
      </trkpt>
      <trkpt lat="44.80255" lon="5.49965">
        <ele>1628.02</ele>
        <time>2019-09-29T13:04:54.000Z</time>
      </trkpt>
      <trkpt lat="44.80246" lon="5.49952">
        <ele>1628.14</ele>
        <time>2019-09-29T13:05:04.000Z</time>
      </trkpt>
      <trkpt lat="44.80238" lon="5.49939">
        <ele>1628.28</ele>
        <time>2019-09-29T13:05:14.000Z</time>
      </trkpt>
      <trkpt lat="44.80233" lon="5.49925">
        <ele>1628.5</ele>
        <time>2019-09-29T13:05:24.000Z</time>
      </trkpt>
      <trkpt lat="44.80227" lon="5.4991">
        <ele>1628.63</ele>
        <time>2019-09-29T13:05:34.000Z</time>
      </trkpt>
      <trkpt lat="44.80221" lon="5.49897">
        <ele>1628.65</ele>
        <time>2019-09-29T13:05:44.000Z</time>
      </trkpt>
      <trkpt lat="44.80213" lon="5.49884">
        <ele>1628.57</ele>
        <time>2019-09-29T13:05:54.000Z</time>
      </trkpt>
      <trkpt lat="44.80212" lon="5.49868">
        <ele>1628.6</ele>
        <time>2019-09-29T13:06:04.000Z</time>
      </trkpt>
      <trkpt lat="44.80215" lon="5.49853">
        <ele>1628.69</ele>
        <time>2019-09-29T13:06:14.000Z</time>
      </trkpt>
      <trkpt lat="44.80214" lon="5.49837">
        <ele>1628.62</ele>
        <time>2019-09-29T13:06:24.000Z</time>
      </trkpt>
      <trkpt lat="44.80215" lon="5.49823">
        <ele>1628.51</ele>
        <time>2019-09-29T13:06:39.000Z</time>
      </trkpt>
      <trkpt lat="44.80224" lon="5.49817">
        <ele>1628.81</ele>
        <time>2019-09-29T13:07:04.000Z</time>
      </trkpt>
      <trkpt lat="44.80227" lon="5.49805">
        <ele>1628.73</ele>
        <time>2019-09-29T13:07:23.000Z</time>
      </trkpt>
      <trkpt lat="44.80227" lon="5.49792">
        <ele>1628.45</ele>
        <time>2019-09-29T13:07:37.000Z</time>
      </trkpt>
      <trkpt lat="44.80221" lon="5.49778">
        <ele>1627.84</ele>
        <time>2019-09-29T13:07:47.000Z</time>
      </trkpt>
      <trkpt lat="44.80219" lon="5.49765">
        <ele>1627.48</ele>
        <time>2019-09-29T13:08:02.000Z</time>
      </trkpt>
      <trkpt lat="44.80221" lon="5.49751">
        <ele>1627.45</ele>
        <time>2019-09-29T13:08:17.000Z</time>
      </trkpt>
      <trkpt lat="44.80216" lon="5.49737">
        <ele>1627.08</ele>
        <time>2019-09-29T13:08:27.000Z</time>
      </trkpt>
      <trkpt lat="44.80213" lon="5.49722">
        <ele>1626.91</ele>
        <time>2019-09-29T13:08:37.000Z</time>
      </trkpt>
      <trkpt lat="44.80212" lon="5.49705">
        <ele>1626.97</ele>
        <time>2019-09-29T13:08:47.000Z</time>
      </trkpt>
      <trkpt lat="44.80215" lon="5.49693">
        <ele>1627.25</ele>
        <time>2019-09-29T13:08:57.000Z</time>
      </trkpt>
      <trkpt lat="44.80222" lon="5.49683">
        <ele>1627.67</ele>
        <time>2019-09-29T13:09:07.000Z</time>
      </trkpt>
      <trkpt lat="44.8023" lon="5.49677">
        <ele>1628.16</ele>
        <time>2019-09-29T13:09:18.000Z</time>
      </trkpt>
      <trkpt lat="44.80236" lon="5.49666">
        <ele>1628.49</ele>
        <time>2019-09-29T13:09:33.000Z</time>
      </trkpt>
      <trkpt lat="44.80244" lon="5.49653">
        <ele>1628.86</ele>
        <time>2019-09-29T13:09:43.000Z</time>
      </trkpt>
      <trkpt lat="44.80245" lon="5.49639">
        <ele>1628.99</ele>
        <time>2019-09-29T13:09:53.000Z</time>
      </trkpt>
      <trkpt lat="44.80242" lon="5.49625">
        <ele>1629</ele>
        <time>2019-09-29T13:10:03.000Z</time>
      </trkpt>
      <trkpt lat="44.80244" lon="5.49608">
        <ele>1629.1</ele>
        <time>2019-09-29T13:10:13.000Z</time>
      </trkpt>
      <trkpt lat="44.80249" lon="5.49595">
        <ele>1629.19</ele>
        <time>2019-09-29T13:10:23.000Z</time>
      </trkpt>
      <trkpt lat="44.80255" lon="5.49583">
        <ele>1629.1</ele>
        <time>2019-09-29T13:10:33.000Z</time>
      </trkpt>
      <trkpt lat="44.80261" lon="5.49571">
        <ele>1628.84</ele>
        <time>2019-09-29T13:10:43.000Z</time>
      </trkpt>
      <trkpt lat="44.8026" lon="5.49557">
        <ele>1628.35</ele>
        <time>2019-09-29T13:10:56.000Z</time>
      </trkpt>
      <trkpt lat="44.80259" lon="5.49541">
        <ele>1627.69</ele>
        <time>2019-09-29T13:11:06.000Z</time>
      </trkpt>
      <trkpt lat="44.80257" lon="5.49528">
        <ele>1627.03</ele>
        <time>2019-09-29T13:11:30.000Z</time>
      </trkpt>
      <trkpt lat="44.80257" lon="5.49511">
        <ele>1625.93</ele>
        <time>2019-09-29T13:11:40.000Z</time>
      </trkpt>
      <trkpt lat="44.80259" lon="5.49496">
        <ele>1624.7</ele>
        <time>2019-09-29T13:11:50.000Z</time>
      </trkpt>
      <trkpt lat="44.80263" lon="5.4948">
        <ele>1622.9</ele>
        <time>2019-09-29T13:12:00.000Z</time>
      </trkpt>
      <trkpt lat="44.80265" lon="5.49466">
        <ele>1620.99</ele>
        <time>2019-09-29T13:12:10.000Z</time>
      </trkpt>
      <trkpt lat="44.80265" lon="5.49452">
        <ele>1618.96</ele>
        <time>2019-09-29T13:12:37.000Z</time>
      </trkpt>
      <trkpt lat="44.80263" lon="5.49434">
        <ele>1616.73</ele>
        <time>2019-09-29T13:12:47.000Z</time>
      </trkpt>
      <trkpt lat="44.80261" lon="5.49414">
        <ele>1615.8</ele>
        <time>2019-09-29T13:12:57.000Z</time>
      </trkpt>
      <trkpt lat="44.80257" lon="5.49396">
        <ele>1616.69</ele>
        <time>2019-09-29T13:13:07.000Z</time>
      </trkpt>
      <trkpt lat="44.80254" lon="5.49383">
        <ele>1618.25</ele>
        <time>2019-09-29T13:13:17.000Z</time>
      </trkpt>
      <trkpt lat="44.80252" lon="5.49371">
        <ele>1620.2</ele>
        <time>2019-09-29T13:13:33.000Z</time>
      </trkpt>
      <trkpt lat="44.80246" lon="5.4936">
        <ele>1621.83</ele>
        <time>2019-09-29T13:13:45.000Z</time>
      </trkpt>
      <trkpt lat="44.80247" lon="5.49347">
        <ele>1623.78</ele>
        <time>2019-09-29T13:14:00.000Z</time>
      </trkpt>
      <trkpt lat="44.80247" lon="5.49334">
        <ele>1624.95</ele>
        <time>2019-09-29T13:14:14.000Z</time>
      </trkpt>
      <trkpt lat="44.80246" lon="5.49321">
        <ele>1625.39</ele>
        <time>2019-09-29T13:14:25.000Z</time>
      </trkpt>
      <trkpt lat="44.80239" lon="5.49311">
        <ele>1625.31</ele>
        <time>2019-09-29T13:14:36.000Z</time>
      </trkpt>
      <trkpt lat="44.80234" lon="5.49298">
        <ele>1624.82</ele>
        <time>2019-09-29T13:14:47.000Z</time>
      </trkpt>
      <trkpt lat="44.80232" lon="5.49286">
        <ele>1624.1</ele>
        <time>2019-09-29T13:14:57.000Z</time>
      </trkpt>
      <trkpt lat="44.80236" lon="5.49273">
        <ele>1623.74</ele>
        <time>2019-09-29T13:15:07.000Z</time>
      </trkpt>
      <trkpt lat="44.80241" lon="5.49258">
        <ele>1623.62</ele>
        <time>2019-09-29T13:15:17.000Z</time>
      </trkpt>
      <trkpt lat="44.80244" lon="5.49245">
        <ele>1623.54</ele>
        <time>2019-09-29T13:15:27.000Z</time>
      </trkpt>
      <trkpt lat="44.80244" lon="5.49232">
        <ele>1623.28</ele>
        <time>2019-09-29T13:15:37.000Z</time>
      </trkpt>
      <trkpt lat="44.80243" lon="5.49217">
        <ele>1622.86</ele>
        <time>2019-09-29T13:15:47.000Z</time>
      </trkpt>
      <trkpt lat="44.80242" lon="5.49204">
        <ele>1622.51</ele>
        <time>2019-09-29T13:15:58.000Z</time>
      </trkpt>
      <trkpt lat="44.80239" lon="5.49191">
        <ele>1621.85</ele>
        <time>2019-09-29T13:16:11.000Z</time>
      </trkpt>
      <trkpt lat="44.80238" lon="5.49178">
        <ele>1621.23</ele>
        <time>2019-09-29T13:16:21.000Z</time>
      </trkpt>
      <trkpt lat="44.80237" lon="5.49165">
        <ele>1620.69</ele>
        <time>2019-09-29T13:16:35.000Z</time>
      </trkpt>
      <trkpt lat="44.80242" lon="5.49153">
        <ele>1620.75</ele>
        <time>2019-09-29T13:16:46.000Z</time>
      </trkpt>
      <trkpt lat="44.80247" lon="5.49141">
        <ele>1620.58</ele>
        <time>2019-09-29T13:16:58.000Z</time>
      </trkpt>
      <trkpt lat="44.80245" lon="5.49128">
        <ele>1619.79</ele>
        <time>2019-09-29T13:17:08.000Z</time>
      </trkpt>
      <trkpt lat="44.80243" lon="5.49116">
        <ele>1618.88</ele>
        <time>2019-09-29T13:17:18.000Z</time>
      </trkpt>
      <trkpt lat="44.80239" lon="5.49102">
        <ele>1617.74</ele>
        <time>2019-09-29T13:17:28.000Z</time>
      </trkpt>
      <trkpt lat="44.80233" lon="5.49093">
        <ele>1616.62</ele>
        <time>2019-09-29T13:17:38.000Z</time>
      </trkpt>
      <trkpt lat="44.80228" lon="5.4908">
        <ele>1615.41</ele>
        <time>2019-09-29T13:17:55.000Z</time>
      </trkpt>
      <trkpt lat="44.80231" lon="5.49068">
        <ele>1614.82</ele>
        <time>2019-09-29T13:18:08.000Z</time>
      </trkpt>
      <trkpt lat="44.80233" lon="5.49055">
        <ele>1613.75</ele>
        <time>2019-09-29T13:18:22.000Z</time>
      </trkpt>
      <trkpt lat="44.80228" lon="5.49043">
        <ele>1612.41</ele>
        <time>2019-09-29T13:18:32.000Z</time>
      </trkpt>
      <trkpt lat="44.8022" lon="5.49034">
        <ele>1611.39</ele>
        <time>2019-09-29T13:18:43.000Z</time>
      </trkpt>
      <trkpt lat="44.80215" lon="5.49024">
        <ele>1610.56</ele>
        <time>2019-09-29T13:18:54.000Z</time>
      </trkpt>
      <trkpt lat="44.80213" lon="5.49011">
        <ele>1609.84</ele>
        <time>2019-09-29T13:19:06.000Z</time>
      </trkpt>
      <trkpt lat="44.80211" lon="5.48998">
        <ele>1609.3</ele>
        <time>2019-09-29T13:19:21.000Z</time>
      </trkpt>
      <trkpt lat="44.80209" lon="5.48985">
        <ele>1608.89</ele>
        <time>2019-09-29T13:19:32.000Z</time>
      </trkpt>
      <trkpt lat="44.80211" lon="5.48972">
        <ele>1608.56</ele>
        <time>2019-09-29T13:19:44.000Z</time>
      </trkpt>
      <trkpt lat="44.80209" lon="5.48958">
        <ele>1608.25</ele>
        <time>2019-09-29T13:20:00.000Z</time>
      </trkpt>
      <trkpt lat="44.80207" lon="5.48946">
        <ele>1607.96</ele>
        <time>2019-09-29T13:20:11.000Z</time>
      </trkpt>
      <trkpt lat="44.80206" lon="5.48931">
        <ele>1607.64</ele>
        <time>2019-09-29T13:20:21.000Z</time>
      </trkpt>
      <trkpt lat="44.80208" lon="5.48918">
        <ele>1607.44</ele>
        <time>2019-09-29T13:20:32.000Z</time>
      </trkpt>
      <trkpt lat="44.80213" lon="5.48905">
        <ele>1607.4</ele>
        <time>2019-09-29T13:20:42.000Z</time>
      </trkpt>
      <trkpt lat="44.80221" lon="5.48895">
        <ele>1607.47</ele>
        <time>2019-09-29T13:20:52.000Z</time>
      </trkpt>
      <trkpt lat="44.80226" lon="5.48883">
        <ele>1607.42</ele>
        <time>2019-09-29T13:21:02.000Z</time>
      </trkpt>
      <trkpt lat="44.80231" lon="5.48873">
        <ele>1607.39</ele>
        <time>2019-09-29T13:21:18.000Z</time>
      </trkpt>
      <trkpt lat="44.80239" lon="5.48865">
        <ele>1607.37</ele>
        <time>2019-09-29T13:21:32.000Z</time>
      </trkpt>
      <trkpt lat="44.80241" lon="5.48852">
        <ele>1607.21</ele>
        <time>2019-09-29T13:21:44.000Z</time>
      </trkpt>
      <trkpt lat="44.80246" lon="5.4884">
        <ele>1607.07</ele>
        <time>2019-09-29T13:21:57.000Z</time>
      </trkpt>
      <trkpt lat="44.80248" lon="5.48827">
        <ele>1606.91</ele>
        <time>2019-09-29T13:22:10.000Z</time>
      </trkpt>
      <trkpt lat="44.8025" lon="5.48813">
        <ele>1606.7</ele>
        <time>2019-09-29T13:22:24.000Z</time>
      </trkpt>
      <trkpt lat="44.80249" lon="5.48799">
        <ele>1606.48</ele>
        <time>2019-09-29T13:22:35.000Z</time>
      </trkpt>
      <trkpt lat="44.80249" lon="5.48785">
        <ele>1606.27</ele>
        <time>2019-09-29T13:22:45.000Z</time>
      </trkpt>
      <trkpt lat="44.80247" lon="5.48773">
        <ele>1606.08</ele>
        <time>2019-09-29T13:22:58.000Z</time>
      </trkpt>
      <trkpt lat="44.80245" lon="5.4876">
        <ele>1605.93</ele>
        <time>2019-09-29T13:23:11.000Z</time>
      </trkpt>
      <trkpt lat="44.80243" lon="5.48747">
        <ele>1605.83</ele>
        <time>2019-09-29T13:23:23.000Z</time>
      </trkpt>
      <trkpt lat="44.80243" lon="5.48734">
        <ele>1605.78</ele>
        <time>2019-09-29T13:23:35.000Z</time>
      </trkpt>
      <trkpt lat="44.80248" lon="5.48722">
        <ele>1605.94</ele>
        <time>2019-09-29T13:23:45.000Z</time>
      </trkpt>
      <trkpt lat="44.80252" lon="5.48707">
        <ele>1606.16</ele>
        <time>2019-09-29T13:23:55.000Z</time>
      </trkpt>
      <trkpt lat="44.80253" lon="5.48694">
        <ele>1606.37</ele>
        <time>2019-09-29T13:24:09.000Z</time>
      </trkpt>
      <trkpt lat="44.80254" lon="5.4868">
        <ele>1606.71</ele>
        <time>2019-09-29T13:24:19.000Z</time>
      </trkpt>
      <trkpt lat="44.80253" lon="5.48667">
        <ele>1607.12</ele>
        <time>2019-09-29T13:24:30.000Z</time>
      </trkpt>
      <trkpt lat="44.80251" lon="5.48652">
        <ele>1607.83</ele>
        <time>2019-09-29T13:24:40.000Z</time>
      </trkpt>
      <trkpt lat="44.8025" lon="5.48639">
        <ele>1608.62</ele>
        <time>2019-09-29T13:25:11.000Z</time>
      </trkpt>
      <trkpt lat="44.8025" lon="5.48626">
        <ele>1609.63</ele>
        <time>2019-09-29T13:25:25.000Z</time>
      </trkpt>
      <trkpt lat="44.80249" lon="5.48613">
        <ele>1610.63</ele>
        <time>2019-09-29T13:25:37.000Z</time>
      </trkpt>
      <trkpt lat="44.80249" lon="5.486">
        <ele>1611.68</ele>
        <time>2019-09-29T13:25:51.000Z</time>
      </trkpt>
      <trkpt lat="44.80249" lon="5.48587">
        <ele>1612.64</ele>
        <time>2019-09-29T13:26:02.000Z</time>
      </trkpt>
      <trkpt lat="44.80243" lon="5.48574">
        <ele>1613.16</ele>
        <time>2019-09-29T13:26:12.000Z</time>
      </trkpt>
      <trkpt lat="44.80237" lon="5.48561">
        <ele>1613.38</ele>
        <time>2019-09-29T13:26:22.000Z</time>
      </trkpt>
      <trkpt lat="44.80228" lon="5.48556">
        <ele>1612.68</ele>
        <time>2019-09-29T13:26:32.000Z</time>
      </trkpt>
      <trkpt lat="44.80218" lon="5.48547">
        <ele>1612</ele>
        <time>2019-09-29T13:26:42.000Z</time>
      </trkpt>
      <trkpt lat="44.80208" lon="5.4854">
        <ele>1611.05</ele>
        <time>2019-09-29T13:26:52.000Z</time>
      </trkpt>
      <trkpt lat="44.80199" lon="5.48542">
        <ele>1609.47</ele>
        <time>2019-09-29T13:27:03.000Z</time>
      </trkpt>
      <trkpt lat="44.80191" lon="5.48534">
        <ele>1609.03</ele>
        <time>2019-09-29T13:27:16.000Z</time>
      </trkpt>
      <trkpt lat="44.80183" lon="5.48527">
        <ele>1608.6</ele>
        <time>2019-09-29T13:27:27.000Z</time>
      </trkpt>
      <trkpt lat="44.80179" lon="5.48514">
        <ele>1609.31</ele>
        <time>2019-09-29T13:27:43.000Z</time>
      </trkpt>
      <trkpt lat="44.80179" lon="5.48499">
        <ele>1610.28</ele>
        <time>2019-09-29T13:27:53.000Z</time>
      </trkpt>
      <trkpt lat="44.80178" lon="5.48486">
        <ele>1610.65</ele>
        <time>2019-09-29T13:28:04.000Z</time>
      </trkpt>
      <trkpt lat="44.80173" lon="5.48475">
        <ele>1610.26</ele>
        <time>2019-09-29T13:28:14.000Z</time>
      </trkpt>
      <trkpt lat="44.80167" lon="5.48465">
        <ele>1609.88</ele>
        <time>2019-09-29T13:28:26.000Z</time>
      </trkpt>
      <trkpt lat="44.80161" lon="5.48455">
        <ele>1609.5</ele>
        <time>2019-09-29T13:28:36.000Z</time>
      </trkpt>
      <trkpt lat="44.80159" lon="5.48441">
        <ele>1609.46</ele>
        <time>2019-09-29T13:28:47.000Z</time>
      </trkpt>
      <trkpt lat="44.80158" lon="5.48428">
        <ele>1609.48</ele>
        <time>2019-09-29T13:28:59.000Z</time>
      </trkpt>
      <trkpt lat="44.80153" lon="5.48414">
        <ele>1609.55</ele>
        <time>2019-09-29T13:29:09.000Z</time>
      </trkpt>
      <trkpt lat="44.80146" lon="5.48403">
        <ele>1609.79</ele>
        <time>2019-09-29T13:29:19.000Z</time>
      </trkpt>
      <trkpt lat="44.80138" lon="5.48395">
        <ele>1610.29</ele>
        <time>2019-09-29T13:29:29.000Z</time>
      </trkpt>
      <trkpt lat="44.80129" lon="5.4839">
        <ele>1611.09</ele>
        <time>2019-09-29T13:29:42.000Z</time>
      </trkpt>
      <trkpt lat="44.8012" lon="5.48389">
        <ele>1611.92</ele>
        <time>2019-09-29T13:29:55.000Z</time>
      </trkpt>
      <trkpt lat="44.80114" lon="5.48379">
        <ele>1613.08</ele>
        <time>2019-09-29T13:30:10.000Z</time>
      </trkpt>
      <trkpt lat="44.80112" lon="5.48365">
        <ele>1613.95</ele>
        <time>2019-09-29T13:30:24.000Z</time>
      </trkpt>
      <trkpt lat="44.8011" lon="5.48352">
        <ele>1614.94</ele>
        <time>2019-09-29T13:30:34.000Z</time>
      </trkpt>
      <trkpt lat="44.80103" lon="5.4834">
        <ele>1616.46</ele>
        <time>2019-09-29T13:30:44.000Z</time>
      </trkpt>
      <trkpt lat="44.80097" lon="5.48325">
        <ele>1618.01</ele>
        <time>2019-09-29T13:30:54.000Z</time>
      </trkpt>
      <trkpt lat="44.80096" lon="5.48312">
        <ele>1618.79</ele>
        <time>2019-09-29T13:31:04.000Z</time>
      </trkpt>
      <trkpt lat="44.80098" lon="5.48299">
        <ele>1619.39</ele>
        <time>2019-09-29T13:31:14.000Z</time>
      </trkpt>
      <trkpt lat="44.80101" lon="5.48283">
        <ele>1619.95</ele>
        <time>2019-09-29T13:31:24.000Z</time>
      </trkpt>
      <trkpt lat="44.80099" lon="5.4827">
        <ele>1620.85</ele>
        <time>2019-09-29T13:31:34.000Z</time>
      </trkpt>
      <trkpt lat="44.80097" lon="5.48254">
        <ele>1621.77</ele>
        <time>2019-09-29T13:31:44.000Z</time>
      </trkpt>
      <trkpt lat="44.80096" lon="5.48237">
        <ele>1622.76</ele>
        <time>2019-09-29T13:31:54.000Z</time>
      </trkpt>
      <trkpt lat="44.80099" lon="5.48223">
        <ele>1623.6</ele>
        <time>2019-09-29T13:32:04.000Z</time>
      </trkpt>
      <trkpt lat="44.80097" lon="5.48209">
        <ele>1624.51</ele>
        <time>2019-09-29T13:32:16.000Z</time>
      </trkpt>
      <trkpt lat="44.80094" lon="5.48197">
        <ele>1625.16</ele>
        <time>2019-09-29T13:32:29.000Z</time>
      </trkpt>
      <trkpt lat="44.80092" lon="5.48182">
        <ele>1625.68</ele>
        <time>2019-09-29T13:32:39.000Z</time>
      </trkpt>
      <trkpt lat="44.80089" lon="5.48169">
        <ele>1625.65</ele>
        <time>2019-09-29T13:32:50.000Z</time>
      </trkpt>
      <trkpt lat="44.80085" lon="5.48157">
        <ele>1625.11</ele>
        <time>2019-09-29T13:33:02.000Z</time>
      </trkpt>
      <trkpt lat="44.80085" lon="5.48144">
        <ele>1624.74</ele>
        <time>2019-09-29T13:33:15.000Z</time>
      </trkpt>
      <trkpt lat="44.80087" lon="5.48132">
        <ele>1624.5</ele>
        <time>2019-09-29T13:33:26.000Z</time>
      </trkpt>
      <trkpt lat="44.80088" lon="5.48118">
        <ele>1623.96</ele>
        <time>2019-09-29T13:33:36.000Z</time>
      </trkpt>
      <trkpt lat="44.80083" lon="5.48107">
        <ele>1623.02</ele>
        <time>2019-09-29T13:33:46.000Z</time>
      </trkpt>
      <trkpt lat="44.80077" lon="5.48096">
        <ele>1622.2</ele>
        <time>2019-09-29T13:33:57.000Z</time>
      </trkpt>
      <trkpt lat="44.80071" lon="5.48083">
        <ele>1621.7</ele>
        <time>2019-09-29T13:34:07.000Z</time>
      </trkpt>
      <trkpt lat="44.80065" lon="5.48069">
        <ele>1621.63</ele>
        <time>2019-09-29T13:34:17.000Z</time>
      </trkpt>
      <trkpt lat="44.80065" lon="5.48055">
        <ele>1622.33</ele>
        <time>2019-09-29T13:34:29.000Z</time>
      </trkpt>
      <trkpt lat="44.80065" lon="5.48042">
        <ele>1623.32</ele>
        <time>2019-09-29T13:41:01.000Z</time>
      </trkpt>
      <trkpt lat="44.80063" lon="5.4803">
        <ele>1623.86</ele>
        <time>2019-09-29T13:41:12.000Z</time>
      </trkpt>
      <trkpt lat="44.80066" lon="5.48017">
        <ele>1625.51</ele>
        <time>2019-09-29T13:41:24.000Z</time>
      </trkpt>
      <trkpt lat="44.8007" lon="5.48005">
        <ele>1627.21</ele>
        <time>2019-09-29T13:41:38.000Z</time>
      </trkpt>
      <trkpt lat="44.80073" lon="5.47993">
        <ele>1628.8</ele>
        <time>2019-09-29T13:41:54.000Z</time>
      </trkpt>
      <trkpt lat="44.80074" lon="5.47978">
        <ele>1630.07</ele>
        <time>2019-09-29T13:42:05.000Z</time>
      </trkpt>
      <trkpt lat="44.80074" lon="5.47964">
        <ele>1631.3</ele>
        <time>2019-09-29T13:42:15.000Z</time>
      </trkpt>
      <trkpt lat="44.80072" lon="5.47951">
        <ele>1631.94</ele>
        <time>2019-09-29T13:42:25.000Z</time>
      </trkpt>
      <trkpt lat="44.80068" lon="5.47934">
        <ele>1632.69</ele>
        <time>2019-09-29T13:42:35.000Z</time>
      </trkpt>
      <trkpt lat="44.80064" lon="5.47919">
        <ele>1633.75</ele>
        <time>2019-09-29T13:42:45.000Z</time>
      </trkpt>
      <trkpt lat="44.80063" lon="5.47905">
        <ele>1635.31</ele>
        <time>2019-09-29T13:42:55.000Z</time>
      </trkpt>
      <trkpt lat="44.80058" lon="5.47891">
        <ele>1636.75</ele>
        <time>2019-09-29T13:43:05.000Z</time>
      </trkpt>
      <trkpt lat="44.80056" lon="5.47876">
        <ele>1638.99</ele>
        <time>2019-09-29T13:43:15.000Z</time>
      </trkpt>
      <trkpt lat="44.8005" lon="5.47866">
        <ele>1639.76</ele>
        <time>2019-09-29T13:44:05.000Z</time>
      </trkpt>
      <trkpt lat="44.80049" lon="5.47852">
        <ele>1641.95</ele>
        <time>2019-09-29T13:44:19.000Z</time>
      </trkpt>
      <trkpt lat="44.80048" lon="5.47837">
        <ele>1643.98</ele>
        <time>2019-09-29T13:44:29.000Z</time>
      </trkpt>
      <trkpt lat="44.80047" lon="5.47824">
        <ele>1645.42</ele>
        <time>2019-09-29T13:44:44.000Z</time>
      </trkpt>
      <trkpt lat="44.80043" lon="5.47812">
        <ele>1646.28</ele>
        <time>2019-09-29T13:44:57.000Z</time>
      </trkpt>
      <trkpt lat="44.80037" lon="5.47802">
        <ele>1646.17</ele>
        <time>2019-09-29T13:45:09.000Z</time>
      </trkpt>
      <trkpt lat="44.80033" lon="5.4779">
        <ele>1646.54</ele>
        <time>2019-09-29T13:45:20.000Z</time>
      </trkpt>
      <trkpt lat="44.8003" lon="5.47778">
        <ele>1646.66</ele>
        <time>2019-09-29T13:45:31.000Z</time>
      </trkpt>
      <trkpt lat="44.80032" lon="5.47763">
        <ele>1647.58</ele>
        <time>2019-09-29T13:45:41.000Z</time>
      </trkpt>
      <trkpt lat="44.8004" lon="5.47754">
        <ele>1649.88</ele>
        <time>2019-09-29T13:45:51.000Z</time>
      </trkpt>
      <trkpt lat="44.80047" lon="5.47747">
        <ele>1652.03</ele>
        <time>2019-09-29T13:46:01.000Z</time>
      </trkpt>
      <trkpt lat="44.80055" lon="5.47739">
        <ele>1654.1</ele>
        <time>2019-09-29T13:46:14.000Z</time>
      </trkpt>
      <trkpt lat="44.80059" lon="5.47726">
        <ele>1655.58</ele>
        <time>2019-09-29T13:46:24.000Z</time>
      </trkpt>
      <trkpt lat="44.80066" lon="5.47715">
        <ele>1657.44</ele>
        <time>2019-09-29T13:46:34.000Z</time>
      </trkpt>
      <trkpt lat="44.80075" lon="5.47709">
        <ele>1659.34</ele>
        <time>2019-09-29T13:46:44.000Z</time>
      </trkpt>
      <trkpt lat="44.80081" lon="5.477">
        <ele>1660.28</ele>
        <time>2019-09-29T13:46:54.000Z</time>
      </trkpt>
      <trkpt lat="44.80091" lon="5.47695">
        <ele>1660.79</ele>
        <time>2019-09-29T13:47:04.000Z</time>
      </trkpt>
      <trkpt lat="44.801" lon="5.477">
        <ele>1660.85</ele>
        <time>2019-09-29T13:47:14.000Z</time>
      </trkpt>
      <trkpt lat="44.80111" lon="5.47702">
        <ele>1660.35</ele>
        <time>2019-09-29T13:47:24.000Z</time>
      </trkpt>
      <trkpt lat="44.80122" lon="5.47704">
        <ele>1659.53</ele>
        <time>2019-09-29T13:47:34.000Z</time>
      </trkpt>
      <trkpt lat="44.80131" lon="5.47705">
        <ele>1658.45</ele>
        <time>2019-09-29T13:47:45.000Z</time>
      </trkpt>
      <trkpt lat="44.8014" lon="5.47705">
        <ele>1656.99</ele>
        <time>2019-09-29T13:48:03.000Z</time>
      </trkpt>
      <trkpt lat="44.80149" lon="5.47702">
        <ele>1654.37</ele>
        <time>2019-09-29T13:48:15.000Z</time>
      </trkpt>
      <trkpt lat="44.80158" lon="5.47697">
        <ele>1651.2</ele>
        <time>2019-09-29T13:48:25.000Z</time>
      </trkpt>
      <trkpt lat="44.80166" lon="5.47692">
        <ele>1647.79</ele>
        <time>2019-09-29T13:48:38.000Z</time>
      </trkpt>
      <trkpt lat="44.80176" lon="5.47685">
        <ele>1643.44</ele>
        <time>2019-09-29T13:48:48.000Z</time>
      </trkpt>
      <trkpt lat="44.80185" lon="5.47677">
        <ele>1638.99</ele>
        <time>2019-09-29T13:48:58.000Z</time>
      </trkpt>
      <trkpt lat="44.80198" lon="5.47674">
        <ele>1634.11</ele>
        <time>2019-09-29T13:49:08.000Z</time>
      </trkpt>
      <trkpt lat="44.80209" lon="5.4767">
        <ele>1629.97</ele>
        <time>2019-09-29T13:49:18.000Z</time>
      </trkpt>
      <trkpt lat="44.80215" lon="5.47659">
        <ele>1628.49</ele>
        <time>2019-09-29T13:49:30.000Z</time>
      </trkpt>
      <trkpt lat="44.80226" lon="5.47651">
        <ele>1627.1</ele>
        <time>2019-09-29T13:49:40.000Z</time>
      </trkpt>
      <trkpt lat="44.80234" lon="5.47646">
        <ele>1626.73</ele>
        <time>2019-09-29T13:49:50.000Z</time>
      </trkpt>
      <trkpt lat="44.80244" lon="5.47641">
        <ele>1626.6</ele>
        <time>2019-09-29T13:50:00.000Z</time>
      </trkpt>
      <trkpt lat="44.80253" lon="5.47638">
        <ele>1626.45</ele>
        <time>2019-09-29T13:50:10.000Z</time>
      </trkpt>
      <trkpt lat="44.80263" lon="5.47635">
        <ele>1626.41</ele>
        <time>2019-09-29T13:50:20.000Z</time>
      </trkpt>
      <trkpt lat="44.80272" lon="5.47627">
        <ele>1627.82</ele>
        <time>2019-09-29T13:50:30.000Z</time>
      </trkpt>
      <trkpt lat="44.80281" lon="5.4762">
        <ele>1628.04</ele>
        <time>2019-09-29T13:50:40.000Z</time>
      </trkpt>
      <trkpt lat="44.80293" lon="5.47617">
        <ele>1626.22</ele>
        <time>2019-09-29T13:50:50.000Z</time>
      </trkpt>
      <trkpt lat="44.80306" lon="5.47618">
        <ele>1623.4</ele>
        <time>2019-09-29T13:51:00.000Z</time>
      </trkpt>
      <trkpt lat="44.80316" lon="5.47617">
        <ele>1621.43</ele>
        <time>2019-09-29T13:51:10.000Z</time>
      </trkpt>
      <trkpt lat="44.80327" lon="5.47609">
        <ele>1619.11</ele>
        <time>2019-09-29T13:51:20.000Z</time>
      </trkpt>
      <trkpt lat="44.80337" lon="5.47605">
        <ele>1617.09</ele>
        <time>2019-09-29T13:51:30.000Z</time>
      </trkpt>
      <trkpt lat="44.80349" lon="5.47601">
        <ele>1615.19</ele>
        <time>2019-09-29T13:51:40.000Z</time>
      </trkpt>
      <trkpt lat="44.80359" lon="5.47601">
        <ele>1614.04</ele>
        <time>2019-09-29T13:51:52.000Z</time>
      </trkpt>
      <trkpt lat="44.8037" lon="5.47592">
        <ele>1612.43</ele>
        <time>2019-09-29T13:52:02.000Z</time>
      </trkpt>
      <trkpt lat="44.8038" lon="5.47589">
        <ele>1611.62</ele>
        <time>2019-09-29T13:52:12.000Z</time>
      </trkpt>
      <trkpt lat="44.80391" lon="5.47591">
        <ele>1611.03</ele>
        <time>2019-09-29T13:52:22.000Z</time>
      </trkpt>
      <trkpt lat="44.80402" lon="5.476">
        <ele>1611.38</ele>
        <time>2019-09-29T13:52:32.000Z</time>
      </trkpt>
      <trkpt lat="44.80414" lon="5.47605">
        <ele>1611.71</ele>
        <time>2019-09-29T13:52:42.000Z</time>
      </trkpt>
      <trkpt lat="44.80422" lon="5.47619">
        <ele>1614.11</ele>
        <time>2019-09-29T13:52:52.000Z</time>
      </trkpt>
      <trkpt lat="44.80431" lon="5.47632">
        <ele>1616.51</ele>
        <time>2019-09-29T13:53:02.000Z</time>
      </trkpt>
      <trkpt lat="44.8044" lon="5.47639">
        <ele>1617.35</ele>
        <time>2019-09-29T13:53:12.000Z</time>
      </trkpt>
      <trkpt lat="44.80452" lon="5.4764">
        <ele>1616.24</ele>
        <time>2019-09-29T13:53:22.000Z</time>
      </trkpt>
      <trkpt lat="44.80462" lon="5.47643">
        <ele>1615.67</ele>
        <time>2019-09-29T13:53:32.000Z</time>
      </trkpt>
      <trkpt lat="44.80472" lon="5.4764">
        <ele>1614.4</ele>
        <time>2019-09-29T13:53:44.000Z</time>
      </trkpt>
      <trkpt lat="44.80481" lon="5.47636">
        <ele>1613.3</ele>
        <time>2019-09-29T13:53:55.000Z</time>
      </trkpt>
      <trkpt lat="44.80487" lon="5.47627">
        <ele>1612.51</ele>
        <time>2019-09-29T13:54:05.000Z</time>
      </trkpt>
      <trkpt lat="44.80495" lon="5.47619">
        <ele>1612.4</ele>
        <time>2019-09-29T13:54:15.000Z</time>
      </trkpt>
      <trkpt lat="44.80504" lon="5.4762">
        <ele>1612.8</ele>
        <time>2019-09-29T13:54:25.000Z</time>
      </trkpt>
      <trkpt lat="44.80515" lon="5.47621">
        <ele>1613.68</ele>
        <time>2019-09-29T13:54:35.000Z</time>
      </trkpt>
      <trkpt lat="44.80524" lon="5.47619">
        <ele>1614.8</ele>
        <time>2019-09-29T13:54:46.000Z</time>
      </trkpt>
      <trkpt lat="44.80533" lon="5.47612">
        <ele>1616.52</ele>
        <time>2019-09-29T13:54:56.000Z</time>
      </trkpt>
      <trkpt lat="44.80542" lon="5.4761">
        <ele>1618.19</ele>
        <time>2019-09-29T13:55:06.000Z</time>
      </trkpt>
      <trkpt lat="44.80552" lon="5.47615">
        <ele>1619.22</ele>
        <time>2019-09-29T13:55:16.000Z</time>
      </trkpt>
      <trkpt lat="44.80562" lon="5.47617">
        <ele>1620.32</ele>
        <time>2019-09-29T13:55:26.000Z</time>
      </trkpt>
      <trkpt lat="44.80573" lon="5.47619">
        <ele>1621.3</ele>
        <time>2019-09-29T13:55:36.000Z</time>
      </trkpt>
      <trkpt lat="44.80583" lon="5.47615">
        <ele>1622.28</ele>
        <time>2019-09-29T13:55:46.000Z</time>
      </trkpt>
      <trkpt lat="44.80596" lon="5.47615">
        <ele>1622.3</ele>
        <time>2019-09-29T13:55:56.000Z</time>
      </trkpt>
      <trkpt lat="44.80609" lon="5.47617">
        <ele>1621.53</ele>
        <time>2019-09-29T13:56:06.000Z</time>
      </trkpt>
      <trkpt lat="44.8062" lon="5.47624">
        <ele>1621.08</ele>
        <time>2019-09-29T13:56:16.000Z</time>
      </trkpt>
      <trkpt lat="44.80634" lon="5.47628">
        <ele>1621.01</ele>
        <time>2019-09-29T13:56:26.000Z</time>
      </trkpt>
      <trkpt lat="44.80647" lon="5.47628">
        <ele>1620.82</ele>
        <time>2019-09-29T13:56:36.000Z</time>
      </trkpt>
      <trkpt lat="44.80656" lon="5.47616">
        <ele>1618.28</ele>
        <time>2019-09-29T13:56:46.000Z</time>
      </trkpt>
      <trkpt lat="44.80663" lon="5.47608">
        <ele>1616.43</ele>
        <time>2019-09-29T13:56:56.000Z</time>
      </trkpt>
      <trkpt lat="44.80671" lon="5.476">
        <ele>1614.7</ele>
        <time>2019-09-29T13:57:07.000Z</time>
      </trkpt>
      <trkpt lat="44.8068" lon="5.47597">
        <ele>1614.03</ele>
        <time>2019-09-29T13:57:17.000Z</time>
      </trkpt>
      <trkpt lat="44.80687" lon="5.47589">
        <ele>1612.72</ele>
        <time>2019-09-29T13:57:36.000Z</time>
      </trkpt>
      <trkpt lat="44.80692" lon="5.47576">
        <ele>1610.35</ele>
        <time>2019-09-29T13:59:00.000Z</time>
      </trkpt>
      <trkpt lat="44.80701" lon="5.47564">
        <ele>1608.14</ele>
        <time>2019-09-29T13:59:10.000Z</time>
      </trkpt>
      <trkpt lat="44.80709" lon="5.47555">
        <ele>1605.9</ele>
        <time>2019-09-29T13:59:22.000Z</time>
      </trkpt>
      <trkpt lat="44.80716" lon="5.47545">
        <ele>1602.99</ele>
        <time>2019-09-29T13:59:36.000Z</time>
      </trkpt>
      <trkpt lat="44.80719" lon="5.47533">
        <ele>1599.63</ele>
        <time>2019-09-29T13:59:46.000Z</time>
      </trkpt>
      <trkpt lat="44.80726" lon="5.47524">
        <ele>1595.78</ele>
        <time>2019-09-29T13:59:56.000Z</time>
      </trkpt>
      <trkpt lat="44.80733" lon="5.47514">
        <ele>1591.27</ele>
        <time>2019-09-29T14:00:09.000Z</time>
      </trkpt>
      <trkpt lat="44.80738" lon="5.47502">
        <ele>1587.59</ele>
        <time>2019-09-29T14:00:19.000Z</time>
      </trkpt>
      <trkpt lat="44.80743" lon="5.47489">
        <ele>1584.15</ele>
        <time>2019-09-29T14:00:29.000Z</time>
      </trkpt>
      <trkpt lat="44.80747" lon="5.47475">
        <ele>1581.85</ele>
        <time>2019-09-29T14:00:39.000Z</time>
      </trkpt>
      <trkpt lat="44.80755" lon="5.4746">
        <ele>1579.62</ele>
        <time>2019-09-29T14:00:49.000Z</time>
      </trkpt>
      <trkpt lat="44.80763" lon="5.4745">
        <ele>1578.15</ele>
        <time>2019-09-29T14:01:05.000Z</time>
      </trkpt>
      <trkpt lat="44.80772" lon="5.47444">
        <ele>1576.85</ele>
        <time>2019-09-29T14:01:17.000Z</time>
      </trkpt>
      <trkpt lat="44.80779" lon="5.47437">
        <ele>1575.47</ele>
        <time>2019-09-29T14:01:32.000Z</time>
      </trkpt>
      <trkpt lat="44.80781" lon="5.47424">
        <ele>1573.89</ele>
        <time>2019-09-29T14:01:42.000Z</time>
      </trkpt>
      <trkpt lat="44.80785" lon="5.47413">
        <ele>1571.99</ele>
        <time>2019-09-29T14:01:52.000Z</time>
      </trkpt>
      <trkpt lat="44.80794" lon="5.47404">
        <ele>1569.68</ele>
        <time>2019-09-29T14:02:17.000Z</time>
      </trkpt>
      <trkpt lat="44.80809" lon="5.47399">
        <ele>1566.64</ele>
        <time>2019-09-29T14:02:27.000Z</time>
      </trkpt>
      <trkpt lat="44.80823" lon="5.47392">
        <ele>1563.83</ele>
        <time>2019-09-29T14:02:37.000Z</time>
      </trkpt>
      <trkpt lat="44.80831" lon="5.47386">
        <ele>1561.67</ele>
        <time>2019-09-29T14:02:47.000Z</time>
      </trkpt>
      <trkpt lat="44.8084" lon="5.47379">
        <ele>1559.45</ele>
        <time>2019-09-29T14:02:57.000Z</time>
      </trkpt>
      <trkpt lat="44.80849" lon="5.47374">
        <ele>1557.52</ele>
        <time>2019-09-29T14:03:07.000Z</time>
      </trkpt>
      <trkpt lat="44.80858" lon="5.47367">
        <ele>1554.97</ele>
        <time>2019-09-29T14:03:17.000Z</time>
      </trkpt>
      <trkpt lat="44.80869" lon="5.47359">
        <ele>1551.96</ele>
        <time>2019-09-29T14:03:27.000Z</time>
      </trkpt>
      <trkpt lat="44.80878" lon="5.47351">
        <ele>1548.9</ele>
        <time>2019-09-29T14:03:37.000Z</time>
      </trkpt>
      <trkpt lat="44.80887" lon="5.47344">
        <ele>1545.87</ele>
        <time>2019-09-29T14:03:47.000Z</time>
      </trkpt>
      <trkpt lat="44.80895" lon="5.47334">
        <ele>1542.32</ele>
        <time>2019-09-29T14:03:58.000Z</time>
      </trkpt>
      <trkpt lat="44.80903" lon="5.47322">
        <ele>1538.76</ele>
        <time>2019-09-29T14:04:08.000Z</time>
      </trkpt>
      <trkpt lat="44.80913" lon="5.47312">
        <ele>1536.19</ele>
        <time>2019-09-29T14:04:18.000Z</time>
      </trkpt>
      <trkpt lat="44.8092" lon="5.47302">
        <ele>1534.41</ele>
        <time>2019-09-29T14:04:28.000Z</time>
      </trkpt>
      <trkpt lat="44.8092" lon="5.47289">
        <ele>1533.17</ele>
        <time>2019-09-29T14:04:40.000Z</time>
      </trkpt>
      <trkpt lat="44.80928" lon="5.4728">
        <ele>1532.26</ele>
        <time>2019-09-29T14:04:56.000Z</time>
      </trkpt>
      <trkpt lat="44.80934" lon="5.47269">
        <ele>1531.51</ele>
        <time>2019-09-29T14:05:24.000Z</time>
      </trkpt>
      <trkpt lat="44.80941" lon="5.47262">
        <ele>1531.54</ele>
        <time>2019-09-29T14:05:34.000Z</time>
      </trkpt>
      <trkpt lat="44.80939" lon="5.47249">
        <ele>1529.74</ele>
        <time>2019-09-29T14:07:36.000Z</time>
      </trkpt>
      <trkpt lat="44.80934" lon="5.4726">
        <ele>1530.59</ele>
        <time>2019-09-29T14:08:25.000Z</time>
      </trkpt>
      <trkpt lat="44.80942" lon="5.47264">
        <ele>1531.79</ele>
        <time>2019-09-29T14:10:01.000Z</time>
      </trkpt>
      <trkpt lat="44.80934" lon="5.47271">
        <ele>1531.64</ele>
        <time>2019-09-29T14:12:18.000Z</time>
      </trkpt>
      <trkpt lat="44.80926" lon="5.47263">
        <ele>1530.64</ele>
        <time>2019-09-29T14:12:33.000Z</time>
      </trkpt>
      <trkpt lat="44.80918" lon="5.47254">
        <ele>1529.55</ele>
        <time>2019-09-29T14:12:43.000Z</time>
      </trkpt>
      <trkpt lat="44.80916" lon="5.4724">
        <ele>1527.26</ele>
        <time>2019-09-29T14:13:05.000Z</time>
      </trkpt>
      <trkpt lat="44.8091" lon="5.47229">
        <ele>1525.58</ele>
        <time>2019-09-29T14:13:20.000Z</time>
      </trkpt>
      <trkpt lat="44.80904" lon="5.47219">
        <ele>1523.82</ele>
        <time>2019-09-29T14:13:31.000Z</time>
      </trkpt>
      <trkpt lat="44.80897" lon="5.4721">
        <ele>1522.86</ele>
        <time>2019-09-29T14:13:42.000Z</time>
      </trkpt>
      <trkpt lat="44.80891" lon="5.47198">
        <ele>1520.98</ele>
        <time>2019-09-29T14:13:52.000Z</time>
      </trkpt>
      <trkpt lat="44.80884" lon="5.47186">
        <ele>1519.12</ele>
        <time>2019-09-29T14:14:02.000Z</time>
      </trkpt>
      <trkpt lat="44.80876" lon="5.47173">
        <ele>1517.05</ele>
        <time>2019-09-29T14:14:12.000Z</time>
      </trkpt>
      <trkpt lat="44.80885" lon="5.47171">
        <ele>1513.89</ele>
        <time>2019-09-29T14:14:33.000Z</time>
      </trkpt>
      <trkpt lat="44.80894" lon="5.47174">
        <ele>1513.14</ele>
        <time>2019-09-29T14:14:45.000Z</time>
      </trkpt>
      <trkpt lat="44.80904" lon="5.47178">
        <ele>1513.22</ele>
        <time>2019-09-29T14:14:57.000Z</time>
      </trkpt>
      <trkpt lat="44.80913" lon="5.47178">
        <ele>1512.77</ele>
        <time>2019-09-29T14:15:15.000Z</time>
      </trkpt>
      <trkpt lat="44.80915" lon="5.47165">
        <ele>1509.37</ele>
        <time>2019-09-29T14:15:29.000Z</time>
      </trkpt>
      <trkpt lat="44.80917" lon="5.47152">
        <ele>1505.58</ele>
        <time>2019-09-29T14:15:41.000Z</time>
      </trkpt>
      <trkpt lat="44.80918" lon="5.47134">
        <ele>1499.72</ele>
        <time>2019-09-29T14:15:51.000Z</time>
      </trkpt>
      <trkpt lat="44.8092" lon="5.47121">
        <ele>1494.99</ele>
        <time>2019-09-29T14:16:06.000Z</time>
      </trkpt>
      <trkpt lat="44.8092" lon="5.47108">
        <ele>1490.59</ele>
        <time>2019-09-29T14:16:16.000Z</time>
      </trkpt>
      <trkpt lat="44.80925" lon="5.47096">
        <ele>1487.92</ele>
        <time>2019-09-29T14:16:28.000Z</time>
      </trkpt>
      <trkpt lat="44.80929" lon="5.47083">
        <ele>1485.63</ele>
        <time>2019-09-29T14:16:38.000Z</time>
      </trkpt>
      <trkpt lat="44.80937" lon="5.47066">
        <ele>1484.48</ele>
        <time>2019-09-29T14:16:48.000Z</time>
      </trkpt>
      <trkpt lat="44.80941" lon="5.47054">
        <ele>1483.96</ele>
        <time>2019-09-29T14:16:58.000Z</time>
      </trkpt>
      <trkpt lat="44.80943" lon="5.47041">
        <ele>1482.61</ele>
        <time>2019-09-29T14:17:09.000Z</time>
      </trkpt>
      <trkpt lat="44.80943" lon="5.47024">
        <ele>1479.45</ele>
        <time>2019-09-29T14:17:19.000Z</time>
      </trkpt>
      <trkpt lat="44.80942" lon="5.47011">
        <ele>1476.61</ele>
        <time>2019-09-29T14:17:40.000Z</time>
      </trkpt>
      <trkpt lat="44.80944" lon="5.46998">
        <ele>1474.54</ele>
        <time>2019-09-29T14:21:39.000Z</time>
      </trkpt>
      <trkpt lat="44.80935" lon="5.47003">
        <ele>1472.82</ele>
        <time>2019-09-29T14:22:35.000Z</time>
      </trkpt>
      <trkpt lat="44.80928" lon="5.47011">
        <ele>1472.27</ele>
        <time>2019-09-29T14:22:46.000Z</time>
      </trkpt>
      <trkpt lat="44.8092" lon="5.47019">
        <ele>1471.91</ele>
        <time>2019-09-29T14:22:56.000Z</time>
      </trkpt>
      <trkpt lat="44.80912" lon="5.47013">
        <ele>1470.64</ele>
        <time>2019-09-29T14:23:07.000Z</time>
      </trkpt>
      <trkpt lat="44.80903" lon="5.47018">
        <ele>1471.56</ele>
        <time>2019-09-29T14:23:19.000Z</time>
      </trkpt>
      <trkpt lat="44.80899" lon="5.4703">
        <ele>1473.58</ele>
        <time>2019-09-29T14:23:29.000Z</time>
      </trkpt>
      <trkpt lat="44.80886" lon="5.47031">
        <ele>1475.56</ele>
        <time>2019-09-29T14:23:39.000Z</time>
      </trkpt>
      <trkpt lat="44.80883" lon="5.47019">
        <ele>1474.65</ele>
        <time>2019-09-29T14:23:49.000Z</time>
      </trkpt>
      <trkpt lat="44.80872" lon="5.47007">
        <ele>1475.14</ele>
        <time>2019-09-29T14:23:59.000Z</time>
      </trkpt>
      <trkpt lat="44.80865" lon="5.46996">
        <ele>1474.97</ele>
        <time>2019-09-29T14:24:09.000Z</time>
      </trkpt>
      <trkpt lat="44.80856" lon="5.46987">
        <ele>1475.31</ele>
        <time>2019-09-29T14:24:19.000Z</time>
      </trkpt>
      <trkpt lat="44.80851" lon="5.46974">
        <ele>1473.13</ele>
        <time>2019-09-29T14:24:29.000Z</time>
      </trkpt>
      <trkpt lat="44.80849" lon="5.46961">
        <ele>1469.81</ele>
        <time>2019-09-29T14:24:39.000Z</time>
      </trkpt>
      <trkpt lat="44.80843" lon="5.4695">
        <ele>1467.83</ele>
        <time>2019-09-29T14:24:49.000Z</time>
      </trkpt>
      <trkpt lat="44.80833" lon="5.46938">
        <ele>1466.82</ele>
        <time>2019-09-29T14:24:59.000Z</time>
      </trkpt>
      <trkpt lat="44.80826" lon="5.46927">
        <ele>1466.14</ele>
        <time>2019-09-29T14:25:09.000Z</time>
      </trkpt>
      <trkpt lat="44.80824" lon="5.46914">
        <ele>1463.91</ele>
        <time>2019-09-29T14:25:19.000Z</time>
      </trkpt>
      <trkpt lat="44.80816" lon="5.46906">
        <ele>1466.22</ele>
        <time>2019-09-29T14:25:29.000Z</time>
      </trkpt>
      <trkpt lat="44.80812" lon="5.46893">
        <ele>1464.73</ele>
        <time>2019-09-29T14:25:39.000Z</time>
      </trkpt>
      <trkpt lat="44.80811" lon="5.46878">
        <ele>1461.73</ele>
        <time>2019-09-29T14:25:49.000Z</time>
      </trkpt>
      <trkpt lat="44.80812" lon="5.46864">
        <ele>1458.42</ele>
        <time>2019-09-29T14:25:59.000Z</time>
      </trkpt>
      <trkpt lat="44.80807" lon="5.46853">
        <ele>1459.4</ele>
        <time>2019-09-29T14:26:10.000Z</time>
      </trkpt>
      <trkpt lat="44.80814" lon="5.46839">
        <ele>1454.91</ele>
        <time>2019-09-29T14:26:20.000Z</time>
      </trkpt>
      <trkpt lat="44.80818" lon="5.46823">
        <ele>1454.88</ele>
        <time>2019-09-29T14:26:30.000Z</time>
      </trkpt>
      <trkpt lat="44.80824" lon="5.46809">
        <ele>1455.98</ele>
        <time>2019-09-29T14:26:40.000Z</time>
      </trkpt>
      <trkpt lat="44.80828" lon="5.46796">
        <ele>1458.43</ele>
        <time>2019-09-29T14:26:50.000Z</time>
      </trkpt>
      <trkpt lat="44.80829" lon="5.46783">
        <ele>1462.54</ele>
        <time>2019-09-29T14:27:00.000Z</time>
      </trkpt>
      <trkpt lat="44.80837" lon="5.46775">
        <ele>1459.87</ele>
        <time>2019-09-29T14:27:10.000Z</time>
      </trkpt>
      <trkpt lat="44.80846" lon="5.4677">
        <ele>1454.94</ele>
        <time>2019-09-29T14:27:20.000Z</time>
      </trkpt>
      <trkpt lat="44.80851" lon="5.46759">
        <ele>1451.89</ele>
        <time>2019-09-29T14:28:58.000Z</time>
      </trkpt>
      <trkpt lat="44.80845" lon="5.46748">
        <ele>1455.44</ele>
        <time>2019-09-29T14:29:23.000Z</time>
      </trkpt>
      <trkpt lat="44.80838" lon="5.46739">
        <ele>1459.55</ele>
        <time>2019-09-29T14:29:56.000Z</time>
      </trkpt>
      <trkpt lat="44.80828" lon="5.46734">
        <ele>1465.77</ele>
        <time>2019-09-29T14:30:06.000Z</time>
      </trkpt>
      <trkpt lat="44.8082" lon="5.46724">
        <ele>1468.25</ele>
        <time>2019-09-29T14:30:16.000Z</time>
      </trkpt>
      <trkpt lat="44.80815" lon="5.46713">
        <ele>1467.75</ele>
        <time>2019-09-29T14:30:27.000Z</time>
      </trkpt>
      <trkpt lat="44.80812" lon="5.46698">
        <ele>1463.61</ele>
        <time>2019-09-29T14:30:37.000Z</time>
      </trkpt>
      <trkpt lat="44.80805" lon="5.46687">
        <ele>1464.82</ele>
        <time>2019-09-29T14:30:48.000Z</time>
      </trkpt>
      <trkpt lat="44.80798" lon="5.46679">
        <ele>1467.92</ele>
        <time>2019-09-29T14:30:58.000Z</time>
      </trkpt>
      <trkpt lat="44.80792" lon="5.46668">
        <ele>1469.68</ele>
        <time>2019-09-29T14:31:09.000Z</time>
      </trkpt>
      <trkpt lat="44.8079" lon="5.46653">
        <ele>1466.7</ele>
        <time>2019-09-29T14:31:19.000Z</time>
      </trkpt>
      <trkpt lat="44.80788" lon="5.46638">
        <ele>1464.01</ele>
        <time>2019-09-29T14:31:29.000Z</time>
      </trkpt>
      <trkpt lat="44.80784" lon="5.46623">
        <ele>1463.28</ele>
        <time>2019-09-29T14:31:39.000Z</time>
      </trkpt>
      <trkpt lat="44.8078" lon="5.46608">
        <ele>1461.15</ele>
        <time>2019-09-29T14:31:49.000Z</time>
      </trkpt>
      <trkpt lat="44.80778" lon="5.46593">
        <ele>1455.96</ele>
        <time>2019-09-29T14:31:59.000Z</time>
      </trkpt>
      <trkpt lat="44.80777" lon="5.46577">
        <ele>1450.15</ele>
        <time>2019-09-29T14:32:09.000Z</time>
      </trkpt>
      <trkpt lat="44.80769" lon="5.46568">
        <ele>1451.69</ele>
        <time>2019-09-29T14:32:37.000Z</time>
      </trkpt>
      <trkpt lat="44.8076" lon="5.46564">
        <ele>1455.47</ele>
        <time>2019-09-29T14:32:56.000Z</time>
      </trkpt>
      <trkpt lat="44.80751" lon="5.4656">
        <ele>1458.02</ele>
        <time>2019-09-29T14:33:07.000Z</time>
      </trkpt>
      <trkpt lat="44.8074" lon="5.46556">
        <ele>1460.77</ele>
        <time>2019-09-29T14:33:17.000Z</time>
      </trkpt>
      <trkpt lat="44.8073" lon="5.46545">
        <ele>1457.44</ele>
        <time>2019-09-29T14:33:27.000Z</time>
      </trkpt>
      <trkpt lat="44.8072" lon="5.46538">
        <ele>1456.16</ele>
        <time>2019-09-29T14:33:37.000Z</time>
      </trkpt>
      <trkpt lat="44.80708" lon="5.46532">
        <ele>1454.98</ele>
        <time>2019-09-29T14:33:47.000Z</time>
      </trkpt>
      <trkpt lat="44.80699" lon="5.46526">
        <ele>1453.58</ele>
        <time>2019-09-29T14:33:57.000Z</time>
      </trkpt>
      <trkpt lat="44.80688" lon="5.46519">
        <ele>1452.95</ele>
        <time>2019-09-29T14:34:07.000Z</time>
      </trkpt>
      <trkpt lat="44.80678" lon="5.4652">
        <ele>1456.24</ele>
        <time>2019-09-29T14:34:17.000Z</time>
      </trkpt>
      <trkpt lat="44.8067" lon="5.46511">
        <ele>1454.8</ele>
        <time>2019-09-29T14:34:27.000Z</time>
      </trkpt>
      <trkpt lat="44.80664" lon="5.46499">
        <ele>1451.64</ele>
        <time>2019-09-29T14:34:37.000Z</time>
      </trkpt>
      <trkpt lat="44.80663" lon="5.4648">
        <ele>1445.5</ele>
        <time>2019-09-29T14:34:47.000Z</time>
      </trkpt>
      <trkpt lat="44.80663" lon="5.46459">
        <ele>1439.9</ele>
        <time>2019-09-29T14:34:57.000Z</time>
      </trkpt>
      <trkpt lat="44.8066" lon="5.46445">
        <ele>1437.73</ele>
        <time>2019-09-29T14:35:07.000Z</time>
      </trkpt>
      <trkpt lat="44.80654" lon="5.46433">
        <ele>1436.36</ele>
        <time>2019-09-29T14:35:17.000Z</time>
      </trkpt>
      <trkpt lat="44.80647" lon="5.46424">
        <ele>1435.34</ele>
        <time>2019-09-29T14:35:28.000Z</time>
      </trkpt>
      <trkpt lat="44.80637" lon="5.46421">
        <ele>1435.95</ele>
        <time>2019-09-29T14:35:39.000Z</time>
      </trkpt>
      <trkpt lat="44.80627" lon="5.4642">
        <ele>1436.63</ele>
        <time>2019-09-29T14:35:49.000Z</time>
      </trkpt>
      <trkpt lat="44.80617" lon="5.46417">
        <ele>1436.11</ele>
        <time>2019-09-29T14:35:59.000Z</time>
      </trkpt>
      <trkpt lat="44.80605" lon="5.46418">
        <ele>1438.04</ele>
        <time>2019-09-29T14:36:09.000Z</time>
      </trkpt>
      <trkpt lat="44.80594" lon="5.46408">
        <ele>1436.84</ele>
        <time>2019-09-29T14:36:19.000Z</time>
      </trkpt>
      <trkpt lat="44.80591" lon="5.46394">
        <ele>1433.06</ele>
        <time>2019-09-29T14:36:29.000Z</time>
      </trkpt>
      <trkpt lat="44.80587" lon="5.46382">
        <ele>1431.63</ele>
        <time>2019-09-29T14:36:39.000Z</time>
      </trkpt>
      <trkpt lat="44.80576" lon="5.46372">
        <ele>1434.76</ele>
        <time>2019-09-29T14:36:49.000Z</time>
      </trkpt>
      <trkpt lat="44.80571" lon="5.4636">
        <ele>1435.46</ele>
        <time>2019-09-29T14:36:59.000Z</time>
      </trkpt>
      <trkpt lat="44.80566" lon="5.46344">
        <ele>1435.27</ele>
        <time>2019-09-29T14:37:09.000Z</time>
      </trkpt>
      <trkpt lat="44.80565" lon="5.4633">
        <ele>1433.22</ele>
        <time>2019-09-29T14:37:19.000Z</time>
      </trkpt>
      <trkpt lat="44.80562" lon="5.46317">
        <ele>1431.02</ele>
        <time>2019-09-29T14:37:29.000Z</time>
      </trkpt>
      <trkpt lat="44.80557" lon="5.46305">
        <ele>1431.36</ele>
        <time>2019-09-29T14:37:39.000Z</time>
      </trkpt>
      <trkpt lat="44.80557" lon="5.46292">
        <ele>1427.27</ele>
        <time>2019-09-29T14:37:49.000Z</time>
      </trkpt>
      <trkpt lat="44.80553" lon="5.46277">
        <ele>1426.73</ele>
        <time>2019-09-29T14:37:59.000Z</time>
      </trkpt>
      <trkpt lat="44.80556" lon="5.46262">
        <ele>1420.92</ele>
        <time>2019-09-29T14:38:09.000Z</time>
      </trkpt>
      <trkpt lat="44.80558" lon="5.46248">
        <ele>1417.27</ele>
        <time>2019-09-29T14:38:19.000Z</time>
      </trkpt>
      <trkpt lat="44.8056" lon="5.46229">
        <ele>1416.06</ele>
        <time>2019-09-29T14:38:29.000Z</time>
      </trkpt>
      <trkpt lat="44.80558" lon="5.46211">
        <ele>1420.09</ele>
        <time>2019-09-29T14:38:39.000Z</time>
      </trkpt>
      <trkpt lat="44.80558" lon="5.46195">
        <ele>1423</ele>
        <time>2019-09-29T14:38:49.000Z</time>
      </trkpt>
      <trkpt lat="44.80561" lon="5.46178">
        <ele>1421.83</ele>
        <time>2019-09-29T14:38:59.000Z</time>
      </trkpt>
      <trkpt lat="44.80555" lon="5.46167">
        <ele>1426.47</ele>
        <time>2019-09-29T14:39:09.000Z</time>
      </trkpt>
      <trkpt lat="44.80551" lon="5.46155">
        <ele>1427.58</ele>
        <time>2019-09-29T14:39:22.000Z</time>
      </trkpt>
      <trkpt lat="44.80545" lon="5.46143">
        <ele>1429.09</ele>
        <time>2019-09-29T14:39:32.000Z</time>
      </trkpt>
      <trkpt lat="44.80538" lon="5.46131">
        <ele>1428.68</ele>
        <time>2019-09-29T14:39:42.000Z</time>
      </trkpt>
      <trkpt lat="44.80529" lon="5.46127">
        <ele>1432.71</ele>
        <time>2019-09-29T14:40:22.000Z</time>
      </trkpt>
      <trkpt lat="44.80522" lon="5.46118">
        <ele>1432.62</ele>
        <time>2019-09-29T14:40:35.000Z</time>
      </trkpt>
      <trkpt lat="44.80513" lon="5.46111">
        <ele>1434.17</ele>
        <time>2019-09-29T14:40:49.000Z</time>
      </trkpt>
      <trkpt lat="44.80512" lon="5.46095">
        <ele>1428.16</ele>
        <time>2019-09-29T14:40:59.000Z</time>
      </trkpt>
      <trkpt lat="44.80511" lon="5.46079">
        <ele>1423.35</ele>
        <time>2019-09-29T14:41:09.000Z</time>
      </trkpt>
      <trkpt lat="44.80512" lon="5.46062">
        <ele>1419.01</ele>
        <time>2019-09-29T14:41:19.000Z</time>
      </trkpt>
      <trkpt lat="44.80504" lon="5.46051">
        <ele>1421.35</ele>
        <time>2019-09-29T14:41:29.000Z</time>
      </trkpt>
      <trkpt lat="44.80497" lon="5.46041">
        <ele>1424.66</ele>
        <time>2019-09-29T14:41:40.000Z</time>
      </trkpt>
      <trkpt lat="44.80492" lon="5.46026">
        <ele>1427.54</ele>
        <time>2019-09-29T14:41:50.000Z</time>
      </trkpt>
      <trkpt lat="44.80491" lon="5.46013">
        <ele>1427.76</ele>
        <time>2019-09-29T14:42:02.000Z</time>
      </trkpt>
      <trkpt lat="44.80492" lon="5.45997">
        <ele>1427.49</ele>
        <time>2019-09-29T14:42:16.000Z</time>
      </trkpt>
      <trkpt lat="44.80498" lon="5.45987">
        <ele>1423.91</ele>
        <time>2019-09-29T14:42:26.000Z</time>
      </trkpt>
      <trkpt lat="44.80501" lon="5.45973">
        <ele>1425.13</ele>
        <time>2019-09-29T14:42:36.000Z</time>
      </trkpt>
      <trkpt lat="44.80503" lon="5.45958">
        <ele>1428.25</ele>
        <time>2019-09-29T14:42:46.000Z</time>
      </trkpt>
      <trkpt lat="44.80505" lon="5.45941">
        <ele>1431.43</ele>
        <time>2019-09-29T14:42:56.000Z</time>
      </trkpt>
      <trkpt lat="44.80509" lon="5.45929">
        <ele>1430.32</ele>
        <time>2019-09-29T14:43:18.000Z</time>
      </trkpt>
      <trkpt lat="44.80511" lon="5.45917">
        <ele>1428.38</ele>
        <time>2019-09-29T14:45:28.000Z</time>
      </trkpt>
      <trkpt lat="44.80517" lon="5.45906">
        <ele>1421.91</ele>
        <time>2019-09-29T14:45:55.000Z</time>
      </trkpt>
      <trkpt lat="44.80521" lon="5.45895">
        <ele>1414.88</ele>
        <time>2019-09-29T14:46:05.000Z</time>
      </trkpt>
      <trkpt lat="44.80529" lon="5.45906">
        <ele>1412.41</ele>
        <time>2019-09-29T14:46:20.000Z</time>
      </trkpt>
      <trkpt lat="44.80533" lon="5.4592">
        <ele>1411.23</ele>
        <time>2019-09-29T14:46:36.000Z</time>
      </trkpt>
      <trkpt lat="44.80534" lon="5.45933">
        <ele>1409.73</ele>
        <time>2019-09-29T14:46:47.000Z</time>
      </trkpt>
      <trkpt lat="44.8054" lon="5.45942">
        <ele>1402.03</ele>
        <time>2019-09-29T14:47:33.000Z</time>
      </trkpt>
      <trkpt lat="44.8055" lon="5.45944">
        <ele>1393.1</ele>
        <time>2019-09-29T14:48:01.000Z</time>
      </trkpt>
      <trkpt lat="44.8055" lon="5.45931">
        <ele>1395.47</ele>
        <time>2019-09-29T14:48:27.000Z</time>
      </trkpt>
      <trkpt lat="44.80558" lon="5.45938">
        <ele>1387.2</ele>
        <time>2019-09-29T14:48:45.000Z</time>
      </trkpt>
      <trkpt lat="44.80562" lon="5.4595">
        <ele>1380.79</ele>
        <time>2019-09-29T14:48:57.000Z</time>
      </trkpt>
      <trkpt lat="44.80564" lon="5.45963">
        <ele>1376.41</ele>
        <time>2019-09-29T14:49:07.000Z</time>
      </trkpt>
      <trkpt lat="44.80559" lon="5.45975">
        <ele>1377.59</ele>
        <time>2019-09-29T14:49:17.000Z</time>
      </trkpt>
      <trkpt lat="44.80555" lon="5.45986">
        <ele>1379.42</ele>
        <time>2019-09-29T14:49:30.000Z</time>
      </trkpt>
      <trkpt lat="44.80564" lon="5.45982">
        <ele>1373.19</ele>
        <time>2019-09-29T14:49:52.000Z</time>
      </trkpt>
      <trkpt lat="44.80572" lon="5.45978">
        <ele>1367.25</ele>
        <time>2019-09-29T14:50:06.000Z</time>
      </trkpt>
      <trkpt lat="44.8058" lon="5.4597">
        <ele>1362.72</ele>
        <time>2019-09-29T14:50:21.000Z</time>
      </trkpt>
      <trkpt lat="44.80582" lon="5.45956">
        <ele>1363.4</ele>
        <time>2019-09-29T14:50:36.000Z</time>
      </trkpt>
      <trkpt lat="44.80587" lon="5.45945">
        <ele>1361.16</ele>
        <time>2019-09-29T14:50:47.000Z</time>
      </trkpt>
      <trkpt lat="44.80591" lon="5.45933">
        <ele>1358.89</ele>
        <time>2019-09-29T14:50:59.000Z</time>
      </trkpt>
      <trkpt lat="44.80594" lon="5.45917">
        <ele>1355.93</ele>
        <time>2019-09-29T14:51:14.000Z</time>
      </trkpt>
      <trkpt lat="44.80598" lon="5.45906">
        <ele>1351.1</ele>
        <time>2019-09-29T14:51:27.000Z</time>
      </trkpt>
      <trkpt lat="44.80606" lon="5.459">
        <ele>1342.8</ele>
        <time>2019-09-29T14:52:06.000Z</time>
      </trkpt>
      <trkpt lat="44.80614" lon="5.45906">
        <ele>1335.89</ele>
        <time>2019-09-29T14:52:32.000Z</time>
      </trkpt>
      <trkpt lat="44.80613" lon="5.4592">
        <ele>1338.99</ele>
        <time>2019-09-29T14:52:45.000Z</time>
      </trkpt>
      <trkpt lat="44.80619" lon="5.4593">
        <ele>1335.02</ele>
        <time>2019-09-29T14:52:56.000Z</time>
      </trkpt>
      <trkpt lat="44.8062" lon="5.45942">
        <ele>1335.68</ele>
        <time>2019-09-29T14:53:07.000Z</time>
      </trkpt>
      <trkpt lat="44.80624" lon="5.45957">
        <ele>1335.42</ele>
        <time>2019-09-29T14:53:17.000Z</time>
      </trkpt>
      <trkpt lat="44.80625" lon="5.4597">
        <ele>1337.27</ele>
        <time>2019-09-29T14:53:28.000Z</time>
      </trkpt>
      <trkpt lat="44.80632" lon="5.45963">
        <ele>1331.67</ele>
        <time>2019-09-29T14:53:40.000Z</time>
      </trkpt>
      <trkpt lat="44.80637" lon="5.45951">
        <ele>1325.49</ele>
        <time>2019-09-29T14:53:51.000Z</time>
      </trkpt>
      <trkpt lat="44.80638" lon="5.45938">
        <ele>1321.54</ele>
        <time>2019-09-29T14:54:04.000Z</time>
      </trkpt>
      <trkpt lat="44.80644" lon="5.45947">
        <ele>1319.26</ele>
        <time>2019-09-29T14:54:33.000Z</time>
      </trkpt>
      <trkpt lat="44.8065" lon="5.45935">
        <ele>1310.67</ele>
        <time>2019-09-29T14:55:06.000Z</time>
      </trkpt>
      <trkpt lat="44.80654" lon="5.45921">
        <ele>1302.68</ele>
        <time>2019-09-29T14:55:16.000Z</time>
      </trkpt>
      <trkpt lat="44.80655" lon="5.45907">
        <ele>1298.33</ele>
        <time>2019-09-29T14:55:30.000Z</time>
      </trkpt>
      <trkpt lat="44.80657" lon="5.45895">
        <ele>1295.02</ele>
        <time>2019-09-29T14:55:41.000Z</time>
      </trkpt>
      <trkpt lat="44.80664" lon="5.45886">
        <ele>1288.03</ele>
        <time>2019-09-29T14:55:55.000Z</time>
      </trkpt>
      <trkpt lat="44.8067" lon="5.45876">
        <ele>1282.37</ele>
        <time>2019-09-29T14:56:16.000Z</time>
      </trkpt>
      <trkpt lat="44.80678" lon="5.45868">
        <ele>1275.56</ele>
        <time>2019-09-29T14:56:31.000Z</time>
      </trkpt>
      <trkpt lat="44.80687" lon="5.45867">
        <ele>1267.9</ele>
        <time>2019-09-29T14:57:14.000Z</time>
      </trkpt>
      <trkpt lat="44.80695" lon="5.45862">
        <ele>1260.64</ele>
        <time>2019-09-29T14:57:36.000Z</time>
      </trkpt>
      <trkpt lat="44.80702" lon="5.45852">
        <ele>1254.18</ele>
        <time>2019-09-29T14:57:46.000Z</time>
      </trkpt>
      <trkpt lat="44.80704" lon="5.45839">
        <ele>1251.43</ele>
        <time>2019-09-29T14:58:04.000Z</time>
      </trkpt>
      <trkpt lat="44.80705" lon="5.45826">
        <ele>1248.29</ele>
        <time>2019-09-29T14:58:36.000Z</time>
      </trkpt>
      <trkpt lat="44.80714" lon="5.45822">
        <ele>1240.8</ele>
        <time>2019-09-29T14:59:35.000Z</time>
      </trkpt>
      <trkpt lat="44.80723" lon="5.45822">
        <ele>1234.15</ele>
        <time>2019-09-29T15:01:17.000Z</time>
      </trkpt>
      <trkpt lat="44.80718" lon="5.45811">
        <ele>1236.74</ele>
        <time>2019-09-29T15:01:30.000Z</time>
      </trkpt>
      <trkpt lat="44.80716" lon="5.45798">
        <ele>1235.57</ele>
        <time>2019-09-29T15:01:53.000Z</time>
      </trkpt>
      <trkpt lat="44.80725" lon="5.45794">
        <ele>1231.02</ele>
        <time>2019-09-29T15:02:06.000Z</time>
      </trkpt>
      <trkpt lat="44.80734" lon="5.45795">
        <ele>1226.22</ele>
        <time>2019-09-29T15:02:18.000Z</time>
      </trkpt>
      <trkpt lat="44.80743" lon="5.45798">
        <ele>1220.24</ele>
        <time>2019-09-29T15:02:41.000Z</time>
      </trkpt>
      <trkpt lat="44.8074" lon="5.45785">
        <ele>1222.88</ele>
        <time>2019-09-29T15:02:57.000Z</time>
      </trkpt>
      <trkpt lat="44.80734" lon="5.45776">
        <ele>1225.67</ele>
        <time>2019-09-29T15:03:10.000Z</time>
      </trkpt>
      <trkpt lat="44.8074" lon="5.45766">
        <ele>1221.86</ele>
        <time>2019-09-29T15:03:31.000Z</time>
      </trkpt>
      <trkpt lat="44.80749" lon="5.4576">
        <ele>1216.55</ele>
        <time>2019-09-29T15:03:47.000Z</time>
      </trkpt>
      <trkpt lat="44.80758" lon="5.45758">
        <ele>1210.49</ele>
        <time>2019-09-29T15:03:57.000Z</time>
      </trkpt>
      <trkpt lat="44.80768" lon="5.45757">
        <ele>1203.1</ele>
        <time>2019-09-29T15:04:14.000Z</time>
      </trkpt>
      <trkpt lat="44.80766" lon="5.45744">
        <ele>1200.72</ele>
        <time>2019-09-29T15:04:50.000Z</time>
      </trkpt>
      <trkpt lat="44.80758" lon="5.45736">
        <ele>1201.89</ele>
        <time>2019-09-29T15:05:01.000Z</time>
      </trkpt>
      <trkpt lat="44.80762" lon="5.45725">
        <ele>1192.17</ele>
        <time>2019-09-29T15:05:24.000Z</time>
      </trkpt>
      <trkpt lat="44.80772" lon="5.45724">
        <ele>1186.11</ele>
        <time>2019-09-29T15:05:38.000Z</time>
      </trkpt>
      <trkpt lat="44.80781" lon="5.45722">
        <ele>1179.2</ele>
        <time>2019-09-29T15:05:50.000Z</time>
      </trkpt>
      <trkpt lat="44.8079" lon="5.45717">
        <ele>1171.62</ele>
        <time>2019-09-29T15:06:00.000Z</time>
      </trkpt>
      <trkpt lat="44.80799" lon="5.45716">
        <ele>1165.47</ele>
        <time>2019-09-29T15:06:14.000Z</time>
      </trkpt>
      <trkpt lat="44.80808" lon="5.45713">
        <ele>1158.61</ele>
        <time>2019-09-29T15:06:24.000Z</time>
      </trkpt>
      <trkpt lat="44.808" lon="5.45706">
        <ele>1160.59</ele>
        <time>2019-09-29T15:06:40.000Z</time>
      </trkpt>
      <trkpt lat="44.80802" lon="5.45693">
        <ele>1154.2</ele>
        <time>2019-09-29T15:06:56.000Z</time>
      </trkpt>
      <trkpt lat="44.80812" lon="5.45689">
        <ele>1149.53</ele>
        <time>2019-09-29T15:07:09.000Z</time>
      </trkpt>
      <trkpt lat="44.8082" lon="5.45687">
        <ele>1145.59</ele>
        <time>2019-09-29T15:07:25.000Z</time>
      </trkpt>
      <trkpt lat="44.80819" lon="5.45673">
        <ele>1141.26</ele>
        <time>2019-09-29T15:07:57.000Z</time>
      </trkpt>
      <trkpt lat="44.80826" lon="5.45664">
        <ele>1135.22</ele>
        <time>2019-09-29T15:08:12.000Z</time>
      </trkpt>
      <trkpt lat="44.80835" lon="5.45663">
        <ele>1131.9</ele>
        <time>2019-09-29T15:08:23.000Z</time>
      </trkpt>
      <trkpt lat="44.80844" lon="5.45662">
        <ele>1127.76</ele>
        <time>2019-09-29T15:08:36.000Z</time>
      </trkpt>
      <trkpt lat="44.80846" lon="5.45674">
        <ele>1131.47</ele>
        <time>2019-09-29T15:08:50.000Z</time>
      </trkpt>
      <trkpt lat="44.80854" lon="5.4567">
        <ele>1126.07</ele>
        <time>2019-09-29T15:09:04.000Z</time>
      </trkpt>
      <trkpt lat="44.80852" lon="5.45656">
        <ele>1121.64</ele>
        <time>2019-09-29T15:09:17.000Z</time>
      </trkpt>
      <trkpt lat="44.80851" lon="5.45644">
        <ele>1114.21</ele>
        <time>2019-09-29T15:09:31.000Z</time>
      </trkpt>
      <trkpt lat="44.80856" lon="5.45632">
        <ele>1104.07</ele>
        <time>2019-09-29T15:09:43.000Z</time>
      </trkpt>
      <trkpt lat="44.80863" lon="5.45639">
        <ele>1106.76</ele>
        <time>2019-09-29T15:09:58.000Z</time>
      </trkpt>
      <trkpt lat="44.80871" lon="5.45647">
        <ele>1108.69</ele>
        <time>2019-09-29T15:10:11.000Z</time>
      </trkpt>
      <trkpt lat="44.80878" lon="5.45658">
        <ele>1109.82</ele>
        <time>2019-09-29T15:10:21.000Z</time>
      </trkpt>
      <trkpt lat="44.80882" lon="5.4567">
        <ele>1110.1</ele>
        <time>2019-09-29T15:10:36.000Z</time>
      </trkpt>
      <trkpt lat="44.80886" lon="5.45658">
        <ele>1105.37</ele>
        <time>2019-09-29T15:10:47.000Z</time>
      </trkpt>
      <trkpt lat="44.80885" lon="5.45644">
        <ele>1100.67</ele>
        <time>2019-09-29T15:10:59.000Z</time>
      </trkpt>
      <trkpt lat="44.80887" lon="5.4563">
        <ele>1093.01</ele>
        <time>2019-09-29T15:11:11.000Z</time>
      </trkpt>
      <trkpt lat="44.80885" lon="5.45617">
        <ele>1085.37</ele>
        <time>2019-09-29T15:11:27.000Z</time>
      </trkpt>
      <trkpt lat="44.80893" lon="5.45611">
        <ele>1079.74</ele>
        <time>2019-09-29T15:14:01.000Z</time>
      </trkpt>
      <trkpt lat="44.80902" lon="5.45615">
        <ele>1079.63</ele>
        <time>2019-09-29T15:14:16.000Z</time>
      </trkpt>
      <trkpt lat="44.8091" lon="5.45621">
        <ele>1079.84</ele>
        <time>2019-09-29T15:14:37.000Z</time>
      </trkpt>
      <trkpt lat="44.80916" lon="5.45633">
        <ele>1082.01</ele>
        <time>2019-09-29T15:14:47.000Z</time>
      </trkpt>
      <trkpt lat="44.80923" lon="5.4564">
        <ele>1080.38</ele>
        <time>2019-09-29T15:14:57.000Z</time>
      </trkpt>
      <trkpt lat="44.80931" lon="5.45647">
        <ele>1077.52</ele>
        <time>2019-09-29T15:15:09.000Z</time>
      </trkpt>
      <trkpt lat="44.80939" lon="5.45639">
        <ele>1071.21</ele>
        <time>2019-09-29T15:15:19.000Z</time>
      </trkpt>
      <trkpt lat="44.80943" lon="5.45627">
        <ele>1066.72</ele>
        <time>2019-09-29T15:15:31.000Z</time>
      </trkpt>
      <trkpt lat="44.80952" lon="5.45623">
        <ele>1061.04</ele>
        <time>2019-09-29T15:15:50.000Z</time>
      </trkpt>
      <trkpt lat="44.80958" lon="5.45633">
        <ele>1058.89</ele>
        <time>2019-09-29T15:16:08.000Z</time>
      </trkpt>
      <trkpt lat="44.80961" lon="5.45646">
        <ele>1058.37</ele>
        <time>2019-09-29T15:16:18.000Z</time>
      </trkpt>
      <trkpt lat="44.80968" lon="5.45655">
        <ele>1053.67</ele>
        <time>2019-09-29T15:16:28.000Z</time>
      </trkpt>
      <trkpt lat="44.80975" lon="5.45645">
        <ele>1049.04</ele>
        <time>2019-09-29T15:16:39.000Z</time>
      </trkpt>
      <trkpt lat="44.80978" lon="5.45632">
        <ele>1046.62</ele>
        <time>2019-09-29T15:16:49.000Z</time>
      </trkpt>
      <trkpt lat="44.80978" lon="5.45619">
        <ele>1045.23</ele>
        <time>2019-09-29T15:17:01.000Z</time>
      </trkpt>
      <trkpt lat="44.80977" lon="5.45605">
        <ele>1044.87</ele>
        <time>2019-09-29T15:17:13.000Z</time>
      </trkpt>
      <trkpt lat="44.80974" lon="5.45589">
        <ele>1045.17</ele>
        <time>2019-09-29T15:17:23.000Z</time>
      </trkpt>
      <trkpt lat="44.80969" lon="5.45575">
        <ele>1046.27</ele>
        <time>2019-09-29T15:17:33.000Z</time>
      </trkpt>
      <trkpt lat="44.80966" lon="5.45562">
        <ele>1046.37</ele>
        <time>2019-09-29T15:17:43.000Z</time>
      </trkpt>
      <trkpt lat="44.80967" lon="5.45549">
        <ele>1045.79</ele>
        <time>2019-09-29T15:17:56.000Z</time>
      </trkpt>
      <trkpt lat="44.80959" lon="5.45542">
        <ele>1044.49</ele>
        <time>2019-09-29T15:26:42.000Z</time>
      </trkpt>
      <trkpt lat="44.80951" lon="5.45535">
        <ele>1041.34</ele>
        <time>2019-09-29T15:26:52.000Z</time>
      </trkpt>
      <trkpt lat="44.80939" lon="5.45528">
        <ele>1035.95</ele>
        <time>2019-09-29T15:27:02.000Z</time>
      </trkpt>
      <trkpt lat="44.80928" lon="5.45525">
        <ele>1031.75</ele>
        <time>2019-09-29T15:27:12.000Z</time>
      </trkpt>
      <trkpt lat="44.80919" lon="5.45524">
        <ele>1030.22</ele>
        <time>2019-09-29T15:27:24.000Z</time>
      </trkpt>
      <trkpt lat="44.8091" lon="5.45519">
        <ele>1027.68</ele>
        <time>2019-09-29T15:27:34.000Z</time>
      </trkpt>
      <trkpt lat="44.80893" lon="5.45517">
        <ele>1028.18</ele>
        <time>2019-09-29T15:27:44.000Z</time>
      </trkpt>
      <trkpt lat="44.80882" lon="5.4552">
        <ele>1031.45</ele>
        <time>2019-09-29T15:27:54.000Z</time>
      </trkpt>
      <trkpt lat="44.80873" lon="5.45527">
        <ele>1036.24</ele>
        <time>2019-09-29T15:28:04.000Z</time>
      </trkpt>
      <trkpt lat="44.80864" lon="5.45533">
        <ele>1040.54</ele>
        <time>2019-09-29T15:28:14.000Z</time>
      </trkpt>
      <trkpt lat="44.80852" lon="5.45533">
        <ele>1043.09</ele>
        <time>2019-09-29T15:28:24.000Z</time>
      </trkpt>
      <trkpt lat="44.80837" lon="5.45529">
        <ele>1044.97</ele>
        <time>2019-09-29T15:28:34.000Z</time>
      </trkpt>
      <trkpt lat="44.80828" lon="5.45526">
        <ele>1046.03</ele>
        <time>2019-09-29T15:28:46.000Z</time>
      </trkpt>
      <trkpt lat="44.80819" lon="5.45529">
        <ele>1049.27</ele>
        <time>2019-09-29T15:28:56.000Z</time>
      </trkpt>
      <trkpt lat="44.80808" lon="5.45525">
        <ele>1051.51</ele>
        <time>2019-09-29T15:29:06.000Z</time>
      </trkpt>
      <trkpt lat="44.80797" lon="5.45521">
        <ele>1054.51</ele>
        <time>2019-09-29T15:29:16.000Z</time>
      </trkpt>
      <trkpt lat="44.80784" lon="5.45517">
        <ele>1058.79</ele>
        <time>2019-09-29T15:29:26.000Z</time>
      </trkpt>
      <trkpt lat="44.80782" lon="5.45497">
        <ele>1059.47</ele>
        <time>2019-09-29T15:29:36.000Z</time>
      </trkpt>
      <trkpt lat="44.80789" lon="5.45483">
        <ele>1058.95</ele>
        <time>2019-09-29T15:29:46.000Z</time>
      </trkpt>
      <trkpt lat="44.80797" lon="5.45474">
        <ele>1058.26</ele>
        <time>2019-09-29T15:29:56.000Z</time>
      </trkpt>
      <trkpt lat="44.80806" lon="5.45462">
        <ele>1057.76</ele>
        <time>2019-09-29T15:30:06.000Z</time>
      </trkpt>
      <trkpt lat="44.80817" lon="5.45453">
        <ele>1055.93</ele>
        <time>2019-09-29T15:30:16.000Z</time>
      </trkpt>
      <trkpt lat="44.80821" lon="5.4544">
        <ele>1057.98</ele>
        <time>2019-09-29T15:30:27.000Z</time>
      </trkpt>
      <trkpt lat="44.80825" lon="5.45422">
        <ele>1061.14</ele>
        <time>2019-09-29T15:30:37.000Z</time>
      </trkpt>
      <trkpt lat="44.8082" lon="5.45406">
        <ele>1067.62</ele>
        <time>2019-09-29T15:30:47.000Z</time>
      </trkpt>
      <trkpt lat="44.80814" lon="5.45389">
        <ele>1073.91</ele>
        <time>2019-09-29T15:30:57.000Z</time>
      </trkpt>
      <trkpt lat="44.80815" lon="5.45376">
        <ele>1074.93</ele>
        <time>2019-09-29T15:31:07.000Z</time>
      </trkpt>
      <trkpt lat="44.80823" lon="5.45359">
        <ele>1072.22</ele>
        <time>2019-09-29T15:31:17.000Z</time>
      </trkpt>
      <trkpt lat="44.80829" lon="5.45342">
        <ele>1070.94</ele>
        <time>2019-09-29T15:31:27.000Z</time>
      </trkpt>
      <trkpt lat="44.80828" lon="5.45323">
        <ele>1075.06</ele>
        <time>2019-09-29T15:31:37.000Z</time>
      </trkpt>
      <trkpt lat="44.80838" lon="5.4531">
        <ele>1070.25</ele>
        <time>2019-09-29T15:31:47.000Z</time>
      </trkpt>
      <trkpt lat="44.80842" lon="5.45294">
        <ele>1070.8</ele>
        <time>2019-09-29T15:31:57.000Z</time>
      </trkpt>
      <trkpt lat="44.80848" lon="5.45276">
        <ele>1070.65</ele>
        <time>2019-09-29T15:32:07.000Z</time>
      </trkpt>
      <trkpt lat="44.80851" lon="5.45258">
        <ele>1072.42</ele>
        <time>2019-09-29T15:32:17.000Z</time>
      </trkpt>
      <trkpt lat="44.80853" lon="5.45241">
        <ele>1074.12</ele>
        <time>2019-09-29T15:32:27.000Z</time>
      </trkpt>
      <trkpt lat="44.80857" lon="5.45221">
        <ele>1074.83</ele>
        <time>2019-09-29T15:32:37.000Z</time>
      </trkpt>
      <trkpt lat="44.80859" lon="5.45204">
        <ele>1075.74</ele>
        <time>2019-09-29T15:32:47.000Z</time>
      </trkpt>
      <trkpt lat="44.80863" lon="5.45189">
        <ele>1074.54</ele>
        <time>2019-09-29T15:32:57.000Z</time>
      </trkpt>
      <trkpt lat="44.80866" lon="5.45173">
        <ele>1073.92</ele>
        <time>2019-09-29T15:33:07.000Z</time>
      </trkpt>
      <trkpt lat="44.80868" lon="5.45157">
        <ele>1072.89</ele>
        <time>2019-09-29T15:33:17.000Z</time>
      </trkpt>
      <trkpt lat="44.80869" lon="5.45138">
        <ele>1072.66</ele>
        <time>2019-09-29T15:33:27.000Z</time>
      </trkpt>
      <trkpt lat="44.80873" lon="5.45123">
        <ele>1069.99</ele>
        <time>2019-09-29T15:33:37.000Z</time>
      </trkpt>
      <trkpt lat="44.80875" lon="5.45108">
        <ele>1067.04</ele>
        <time>2019-09-29T15:33:47.000Z</time>
      </trkpt>
      <trkpt lat="44.80876" lon="5.45095">
        <ele>1063.59</ele>
        <time>2019-09-29T15:33:57.000Z</time>
      </trkpt>
      <trkpt lat="44.80874" lon="5.45076">
        <ele>1058.03</ele>
        <time>2019-09-29T15:34:07.000Z</time>
      </trkpt>
      <trkpt lat="44.80867" lon="5.45062">
        <ele>1054.93</ele>
        <time>2019-09-29T15:34:17.000Z</time>
      </trkpt>
      <trkpt lat="44.80858" lon="5.45052">
        <ele>1054.37</ele>
        <time>2019-09-29T15:34:27.000Z</time>
      </trkpt>
      <trkpt lat="44.80845" lon="5.45043">
        <ele>1056.23</ele>
        <time>2019-09-29T15:34:37.000Z</time>
      </trkpt>
      <trkpt lat="44.80832" lon="5.45036">
        <ele>1058.42</ele>
        <time>2019-09-29T15:34:47.000Z</time>
      </trkpt>
      <trkpt lat="44.80818" lon="5.45034">
        <ele>1062.2</ele>
        <time>2019-09-29T15:34:57.000Z</time>
      </trkpt>
      <trkpt lat="44.80808" lon="5.45035">
        <ele>1065.41</ele>
        <time>2019-09-29T15:35:07.000Z</time>
      </trkpt>
      <trkpt lat="44.80797" lon="5.45034">
        <ele>1067.22</ele>
        <time>2019-09-29T15:35:17.000Z</time>
      </trkpt>
      <trkpt lat="44.80784" lon="5.45025">
        <ele>1064.36</ele>
        <time>2019-09-29T15:35:27.000Z</time>
      </trkpt>
      <trkpt lat="44.80771" lon="5.45015">
        <ele>1061.94</ele>
        <time>2019-09-29T15:35:37.000Z</time>
      </trkpt>
      <trkpt lat="44.80758" lon="5.45009">
        <ele>1062.61</ele>
        <time>2019-09-29T15:35:47.000Z</time>
      </trkpt>
      <trkpt lat="44.80749" lon="5.45003">
        <ele>1062.67</ele>
        <time>2019-09-29T15:35:58.000Z</time>
      </trkpt>
      <trkpt lat="44.80739" lon="5.44992">
        <ele>1061.24</ele>
        <time>2019-09-29T15:36:08.000Z</time>
      </trkpt>
      <trkpt lat="44.80731" lon="5.44982">
        <ele>1059.77</ele>
        <time>2019-09-29T15:36:18.000Z</time>
      </trkpt>
      <trkpt lat="44.80721" lon="5.44971">
        <ele>1059.76</ele>
        <time>2019-09-29T15:36:28.000Z</time>
      </trkpt>
      <trkpt lat="44.80705" lon="5.44963">
        <ele>1064.67</ele>
        <time>2019-09-29T15:36:38.000Z</time>
      </trkpt>
      <trkpt lat="44.80697" lon="5.44955">
        <ele>1067.86</ele>
        <time>2019-09-29T15:36:48.000Z</time>
      </trkpt>
      <trkpt lat="44.80695" lon="5.44938">
        <ele>1066.34</ele>
        <time>2019-09-29T15:36:58.000Z</time>
      </trkpt>
      <trkpt lat="44.80699" lon="5.44924">
        <ele>1060.75</ele>
        <time>2019-09-29T15:37:08.000Z</time>
      </trkpt>
      <trkpt lat="44.80702" lon="5.44907">
        <ele>1054.16</ele>
        <time>2019-09-29T15:37:18.000Z</time>
      </trkpt>
      <trkpt lat="44.80704" lon="5.4489">
        <ele>1047.96</ele>
        <time>2019-09-29T15:37:28.000Z</time>
      </trkpt>
      <trkpt lat="44.80701" lon="5.44874">
        <ele>1045.32</ele>
        <time>2019-09-29T15:37:38.000Z</time>
      </trkpt>
      <trkpt lat="44.80697" lon="5.44857">
        <ele>1042.87</ele>
        <time>2019-09-29T15:37:48.000Z</time>
      </trkpt>
      <trkpt lat="44.80694" lon="5.44841">
        <ele>1039.18</ele>
        <time>2019-09-29T15:37:58.000Z</time>
      </trkpt>
      <trkpt lat="44.80685" lon="5.44832">
        <ele>1040.11</ele>
        <time>2019-09-29T15:38:08.000Z</time>
      </trkpt>
      <trkpt lat="44.80676" lon="5.44825">
        <ele>1041.84</ele>
        <time>2019-09-29T15:38:21.000Z</time>
      </trkpt>
      <trkpt lat="44.80671" lon="5.44813">
        <ele>1039.59</ele>
        <time>2019-09-29T15:38:31.000Z</time>
      </trkpt>
      <trkpt lat="44.80662" lon="5.44801">
        <ele>1037.94</ele>
        <time>2019-09-29T15:38:41.000Z</time>
      </trkpt>
      <trkpt lat="44.80652" lon="5.4479">
        <ele>1037.4</ele>
        <time>2019-09-29T15:38:51.000Z</time>
      </trkpt>
      <trkpt lat="44.80642" lon="5.44776">
        <ele>1035.15</ele>
        <time>2019-09-29T15:39:01.000Z</time>
      </trkpt>
      <trkpt lat="44.80633" lon="5.44766">
        <ele>1033.69</ele>
        <time>2019-09-29T15:39:11.000Z</time>
      </trkpt>
      <trkpt lat="44.80626" lon="5.44756">
        <ele>1032.39</ele>
        <time>2019-09-29T15:39:21.000Z</time>
      </trkpt>
      <trkpt lat="44.80618" lon="5.44745">
        <ele>1030.9</ele>
        <time>2019-09-29T15:39:31.000Z</time>
      </trkpt>
      <trkpt lat="44.8061" lon="5.44732">
        <ele>1030.36</ele>
        <time>2019-09-29T15:39:41.000Z</time>
      </trkpt>
      <trkpt lat="44.80602" lon="5.44718">
        <ele>1030.11</ele>
        <time>2019-09-29T15:39:51.000Z</time>
      </trkpt>
      <trkpt lat="44.80596" lon="5.44704">
        <ele>1030.26</ele>
        <time>2019-09-29T15:40:01.000Z</time>
      </trkpt>
      <trkpt lat="44.80592" lon="5.4469">
        <ele>1030.26</ele>
        <time>2019-09-29T15:40:11.000Z</time>
      </trkpt>
      <trkpt lat="44.80584" lon="5.44673">
        <ele>1031.81</ele>
        <time>2019-09-29T15:40:21.000Z</time>
      </trkpt>
      <trkpt lat="44.80581" lon="5.44654">
        <ele>1030.26</ele>
        <time>2019-09-29T15:40:31.000Z</time>
      </trkpt>
      <trkpt lat="44.8058" lon="5.44639">
        <ele>1027.73</ele>
        <time>2019-09-29T15:40:41.000Z</time>
      </trkpt>
      <trkpt lat="44.80579" lon="5.44624">
        <ele>1026.08</ele>
        <time>2019-09-29T15:40:51.000Z</time>
      </trkpt>
      <trkpt lat="44.80577" lon="5.44605">
        <ele>1024.69</ele>
        <time>2019-09-29T15:41:01.000Z</time>
      </trkpt>
      <trkpt lat="44.80574" lon="5.44589">
        <ele>1024.68</ele>
        <time>2019-09-29T15:41:11.000Z</time>
      </trkpt>
      <trkpt lat="44.80573" lon="5.44572">
        <ele>1023.15</ele>
        <time>2019-09-29T15:41:21.000Z</time>
      </trkpt>
      <trkpt lat="44.80571" lon="5.44555">
        <ele>1022.34</ele>
        <time>2019-09-29T15:41:31.000Z</time>
      </trkpt>
      <trkpt lat="44.8057" lon="5.44537">
        <ele>1021.27</ele>
        <time>2019-09-29T15:41:41.000Z</time>
      </trkpt>
      <trkpt lat="44.8057" lon="5.44521">
        <ele>1019.85</ele>
        <time>2019-09-29T15:41:51.000Z</time>
      </trkpt>
      <trkpt lat="44.8058" lon="5.44522">
        <ele>1014.84</ele>
        <time>2019-09-29T15:42:01.000Z</time>
      </trkpt>
      <trkpt lat="44.80585" lon="5.44535">
        <ele>1012.91</ele>
        <time>2019-09-29T15:42:11.000Z</time>
      </trkpt>
      <trkpt lat="44.80588" lon="5.44551">
        <ele>1012.92</ele>
        <time>2019-09-29T15:42:21.000Z</time>
      </trkpt>
      <trkpt lat="44.80594" lon="5.44569">
        <ele>1011.77</ele>
        <time>2019-09-29T15:42:31.000Z</time>
      </trkpt>
      <trkpt lat="44.80601" lon="5.44583">
        <ele>1010.95</ele>
        <time>2019-09-29T15:42:41.000Z</time>
      </trkpt>
      <trkpt lat="44.80603" lon="5.44598">
        <ele>1011.34</ele>
        <time>2019-09-29T15:42:51.000Z</time>
      </trkpt>
      <trkpt lat="44.80608" lon="5.44612">
        <ele>1010.88</ele>
        <time>2019-09-29T15:43:01.000Z</time>
      </trkpt>
      <trkpt lat="44.80613" lon="5.44623">
        <ele>1009.8</ele>
        <time>2019-09-29T15:43:12.000Z</time>
      </trkpt>
      <trkpt lat="44.80621" lon="5.44633">
        <ele>1007.45</ele>
        <time>2019-09-29T15:43:22.000Z</time>
      </trkpt>
      <trkpt lat="44.80627" lon="5.44643">
        <ele>1005.37</ele>
        <time>2019-09-29T15:43:32.000Z</time>
      </trkpt>
      <trkpt lat="44.80636" lon="5.44646">
        <ele>1001.87</ele>
        <time>2019-09-29T15:43:43.000Z</time>
      </trkpt>
      <trkpt lat="44.80647" lon="5.44645">
        <ele>998.38</ele>
        <time>2019-09-29T15:43:54.000Z</time>
      </trkpt>
      <trkpt lat="44.80658" lon="5.44644">
        <ele>994.86</ele>
        <time>2019-09-29T15:44:04.000Z</time>
      </trkpt>
      <trkpt lat="44.80661" lon="5.44644">
        <ele>994.1</ele>
        <time>2019-09-29T15:44:08.000Z</time>
      </trkpt>
    </trkseg>
  </trk>
</gpx>